<?xml version="1.0" encoding="UTF-8" standalone="no" ?>
<gpx xmlns="http://www.topografix.com/GPX/1/1" xmlns:xsi="http://www.w3.org/2001/XMLSchema-instance" xsi:schemaLocation="http://www.topografix.com/GPX/1/1 http://www.topografix.com/GPX/1/1/gpx.xsd" version="1.1" creator="VisuGPX - https://www.visugpx.com">
  <metadata>
    <name>Charnier de Signes</name>
    <desc><![CDATA[Randonnée facile et sans difficulté. ]]></desc>
  </metadata>
  <trk>
    <name><![CDATA[Charnier de Signes_1]]></name>
    <trkseg>
      <trkpt lat="43.26415" lon="5.76522">
        <ele>469</ele>
        <time>2019-09-25T08:33:16Z</time>
      </trkpt>
      <trkpt lat="43.26415" lon="5.76528">
        <ele>462</ele>
        <time>2019-09-25T08:33:40Z</time>
      </trkpt>
      <trkpt lat="43.26419" lon="5.76532">
        <ele>463</ele>
        <time>2019-09-25T08:35:04Z</time>
      </trkpt>
      <trkpt lat="43.2642" lon="5.76525">
        <ele>464</ele>
        <time>2019-09-25T08:36:22Z</time>
      </trkpt>
      <trkpt lat="43.26423" lon="5.76522">
        <ele>461</ele>
        <time>2019-09-25T08:36:54Z</time>
      </trkpt>
      <trkpt lat="43.26428" lon="5.76518">
        <ele>460</ele>
        <time>2019-09-25T08:37:00Z</time>
      </trkpt>
      <trkpt lat="43.26434" lon="5.76516">
        <ele>462</ele>
        <time>2019-09-25T08:37:08Z</time>
      </trkpt>
      <trkpt lat="43.26438" lon="5.76513">
        <ele>462</ele>
        <time>2019-09-25T08:37:14Z</time>
      </trkpt>
      <trkpt lat="43.26444" lon="5.7651">
        <ele>460</ele>
        <time>2019-09-25T08:37:22Z</time>
      </trkpt>
      <trkpt lat="43.26448" lon="5.76505">
        <ele>462</ele>
        <time>2019-09-25T08:37:28Z</time>
      </trkpt>
      <trkpt lat="43.26453" lon="5.765">
        <ele>462</ele>
        <time>2019-09-25T08:37:34Z</time>
      </trkpt>
      <trkpt lat="43.26457" lon="5.76498">
        <ele>462</ele>
        <time>2019-09-25T08:37:40Z</time>
      </trkpt>
      <trkpt lat="43.26462" lon="5.76496">
        <ele>460</ele>
        <time>2019-09-25T08:37:46Z</time>
      </trkpt>
      <trkpt lat="43.26468" lon="5.76492">
        <ele>457</ele>
        <time>2019-09-25T08:37:52Z</time>
      </trkpt>
      <trkpt lat="43.26472" lon="5.76487">
        <ele>454</ele>
        <time>2019-09-25T08:37:56Z</time>
      </trkpt>
      <trkpt lat="43.26476" lon="5.76484">
        <ele>452</ele>
        <time>2019-09-25T08:38:04Z</time>
      </trkpt>
      <trkpt lat="43.26482" lon="5.7648">
        <ele>455</ele>
        <time>2019-09-25T08:38:12Z</time>
      </trkpt>
      <trkpt lat="43.26487" lon="5.76476">
        <ele>457</ele>
        <time>2019-09-25T08:38:18Z</time>
      </trkpt>
      <trkpt lat="43.26491" lon="5.76472">
        <ele>453</ele>
        <time>2019-09-25T08:38:24Z</time>
      </trkpt>
      <trkpt lat="43.26497" lon="5.76468">
        <ele>454</ele>
        <time>2019-09-25T08:38:30Z</time>
      </trkpt>
      <trkpt lat="43.26502" lon="5.76467">
        <ele>455</ele>
        <time>2019-09-25T08:38:36Z</time>
      </trkpt>
      <trkpt lat="43.26508" lon="5.76461">
        <ele>454</ele>
        <time>2019-09-25T08:38:42Z</time>
      </trkpt>
      <trkpt lat="43.26512" lon="5.76457">
        <ele>455</ele>
        <time>2019-09-25T08:38:46Z</time>
      </trkpt>
      <trkpt lat="43.26516" lon="5.76454">
        <ele>455</ele>
        <time>2019-09-25T08:38:50Z</time>
      </trkpt>
      <trkpt lat="43.2652" lon="5.76451">
        <ele>455</ele>
        <time>2019-09-25T08:38:54Z</time>
      </trkpt>
      <trkpt lat="43.26524" lon="5.76446">
        <ele>455</ele>
        <time>2019-09-25T08:38:58Z</time>
      </trkpt>
      <trkpt lat="43.26528" lon="5.7644">
        <ele>454</ele>
        <time>2019-09-25T08:39:04Z</time>
      </trkpt>
      <trkpt lat="43.26533" lon="5.76438">
        <ele>453</ele>
        <time>2019-09-25T08:39:10Z</time>
      </trkpt>
      <trkpt lat="43.26538" lon="5.76433">
        <ele>451</ele>
        <time>2019-09-25T08:39:16Z</time>
      </trkpt>
      <trkpt lat="43.26543" lon="5.7643">
        <ele>450</ele>
        <time>2019-09-25T08:39:20Z</time>
      </trkpt>
      <trkpt lat="43.26547" lon="5.76425">
        <ele>450</ele>
        <time>2019-09-25T08:39:24Z</time>
      </trkpt>
      <trkpt lat="43.26551" lon="5.76422">
        <ele>450</ele>
        <time>2019-09-25T08:39:28Z</time>
      </trkpt>
      <trkpt lat="43.26556" lon="5.76418">
        <ele>452</ele>
        <time>2019-09-25T08:39:34Z</time>
      </trkpt>
      <trkpt lat="43.26561" lon="5.76415">
        <ele>451</ele>
        <time>2019-09-25T08:39:40Z</time>
      </trkpt>
      <trkpt lat="43.26567" lon="5.76413">
        <ele>452</ele>
        <time>2019-09-25T08:39:46Z</time>
      </trkpt>
      <trkpt lat="43.26571" lon="5.76408">
        <ele>452</ele>
        <time>2019-09-25T08:39:50Z</time>
      </trkpt>
      <trkpt lat="43.26574" lon="5.76403">
        <ele>451</ele>
        <time>2019-09-25T08:39:54Z</time>
      </trkpt>
      <trkpt lat="43.26577" lon="5.76396">
        <ele>449</ele>
        <time>2019-09-25T08:39:58Z</time>
      </trkpt>
      <trkpt lat="43.2658" lon="5.76391">
        <ele>452</ele>
        <time>2019-09-25T08:40:02Z</time>
      </trkpt>
      <trkpt lat="43.26583" lon="5.76383">
        <ele>452</ele>
        <time>2019-09-25T08:40:08Z</time>
      </trkpt>
      <trkpt lat="43.26586" lon="5.76378">
        <ele>453</ele>
        <time>2019-09-25T08:40:12Z</time>
      </trkpt>
      <trkpt lat="43.2659" lon="5.76371">
        <ele>453</ele>
        <time>2019-09-25T08:40:18Z</time>
      </trkpt>
      <trkpt lat="43.26594" lon="5.76365">
        <ele>452</ele>
        <time>2019-09-25T08:40:24Z</time>
      </trkpt>
      <trkpt lat="43.26598" lon="5.76358">
        <ele>452</ele>
        <time>2019-09-25T08:40:30Z</time>
      </trkpt>
      <trkpt lat="43.26602" lon="5.76352">
        <ele>452</ele>
        <time>2019-09-25T08:40:36Z</time>
      </trkpt>
      <trkpt lat="43.26605" lon="5.76347">
        <ele>455</ele>
        <time>2019-09-25T08:40:42Z</time>
      </trkpt>
      <trkpt lat="43.26609" lon="5.7634">
        <ele>454</ele>
        <time>2019-09-25T08:40:48Z</time>
      </trkpt>
      <trkpt lat="43.26612" lon="5.76336">
        <ele>453</ele>
        <time>2019-09-25T08:40:52Z</time>
      </trkpt>
      <trkpt lat="43.26617" lon="5.76329">
        <ele>452</ele>
        <time>2019-09-25T08:40:58Z</time>
      </trkpt>
      <trkpt lat="43.2662" lon="5.76323">
        <ele>455</ele>
        <time>2019-09-25T08:41:02Z</time>
      </trkpt>
      <trkpt lat="43.26622" lon="5.76314">
        <ele>456</ele>
        <time>2019-09-25T08:41:08Z</time>
      </trkpt>
      <trkpt lat="43.26625" lon="5.76305">
        <ele>456</ele>
        <time>2019-09-25T08:41:14Z</time>
      </trkpt>
      <trkpt lat="43.26628" lon="5.76298">
        <ele>455</ele>
        <time>2019-09-25T08:41:20Z</time>
      </trkpt>
      <trkpt lat="43.26631" lon="5.76293">
        <ele>457</ele>
        <time>2019-09-25T08:41:24Z</time>
      </trkpt>
      <trkpt lat="43.26634" lon="5.76288">
        <ele>457</ele>
        <time>2019-09-25T08:41:28Z</time>
      </trkpt>
      <trkpt lat="43.26637" lon="5.76283">
        <ele>457</ele>
        <time>2019-09-25T08:41:32Z</time>
      </trkpt>
      <trkpt lat="43.26641" lon="5.76277">
        <ele>456</ele>
        <time>2019-09-25T08:41:38Z</time>
      </trkpt>
      <trkpt lat="43.26645" lon="5.76273">
        <ele>453</ele>
        <time>2019-09-25T08:41:54Z</time>
      </trkpt>
      <trkpt lat="43.26648" lon="5.76267">
        <ele>453</ele>
        <time>2019-09-25T08:41:58Z</time>
      </trkpt>
      <trkpt lat="43.2665" lon="5.76261">
        <ele>453</ele>
        <time>2019-09-25T08:42:02Z</time>
      </trkpt>
      <trkpt lat="43.26651" lon="5.76254">
        <ele>454</ele>
        <time>2019-09-25T08:42:06Z</time>
      </trkpt>
      <trkpt lat="43.26653" lon="5.76247">
        <ele>453</ele>
        <time>2019-09-25T08:42:12Z</time>
      </trkpt>
      <trkpt lat="43.26655" lon="5.7624">
        <ele>454</ele>
        <time>2019-09-25T08:42:16Z</time>
      </trkpt>
      <trkpt lat="43.26657" lon="5.76234">
        <ele>455</ele>
        <time>2019-09-25T08:42:20Z</time>
      </trkpt>
      <trkpt lat="43.26659" lon="5.76228">
        <ele>455</ele>
        <time>2019-09-25T08:42:24Z</time>
      </trkpt>
      <trkpt lat="43.2666" lon="5.76222">
        <ele>455</ele>
        <time>2019-09-25T08:42:28Z</time>
      </trkpt>
      <trkpt lat="43.26661" lon="5.76216">
        <ele>453</ele>
        <time>2019-09-25T08:42:32Z</time>
      </trkpt>
      <trkpt lat="43.26663" lon="5.76206">
        <ele>453</ele>
        <time>2019-09-25T08:42:38Z</time>
      </trkpt>
      <trkpt lat="43.26663" lon="5.76197">
        <ele>452</ele>
        <time>2019-09-25T08:42:44Z</time>
      </trkpt>
      <trkpt lat="43.26664" lon="5.7619">
        <ele>451</ele>
        <time>2019-09-25T08:42:48Z</time>
      </trkpt>
      <trkpt lat="43.26665" lon="5.76184">
        <ele>453</ele>
        <time>2019-09-25T08:42:52Z</time>
      </trkpt>
      <trkpt lat="43.26665" lon="5.76177">
        <ele>455</ele>
        <time>2019-09-25T08:42:56Z</time>
      </trkpt>
      <trkpt lat="43.26665" lon="5.76169">
        <ele>456</ele>
        <time>2019-09-25T08:43:02Z</time>
      </trkpt>
      <trkpt lat="43.26665" lon="5.76162">
        <ele>455</ele>
        <time>2019-09-25T08:43:06Z</time>
      </trkpt>
      <trkpt lat="43.26665" lon="5.76156">
        <ele>456</ele>
        <time>2019-09-25T08:43:10Z</time>
      </trkpt>
      <trkpt lat="43.26665" lon="5.76149">
        <ele>455</ele>
        <time>2019-09-25T08:43:14Z</time>
      </trkpt>
      <trkpt lat="43.26665" lon="5.76143">
        <ele>455</ele>
        <time>2019-09-25T08:43:18Z</time>
      </trkpt>
      <trkpt lat="43.26665" lon="5.76135">
        <ele>456</ele>
        <time>2019-09-25T08:43:22Z</time>
      </trkpt>
      <trkpt lat="43.26665" lon="5.76128">
        <ele>456</ele>
        <time>2019-09-25T08:43:26Z</time>
      </trkpt>
      <trkpt lat="43.26667" lon="5.76119">
        <ele>454</ele>
        <time>2019-09-25T08:43:32Z</time>
      </trkpt>
      <trkpt lat="43.26669" lon="5.76111">
        <ele>453</ele>
        <time>2019-09-25T08:43:38Z</time>
      </trkpt>
      <trkpt lat="43.26672" lon="5.76105">
        <ele>454</ele>
        <time>2019-09-25T08:43:42Z</time>
      </trkpt>
      <trkpt lat="43.26674" lon="5.76099">
        <ele>453</ele>
        <time>2019-09-25T08:43:46Z</time>
      </trkpt>
      <trkpt lat="43.26677" lon="5.7609">
        <ele>454</ele>
        <time>2019-09-25T08:43:52Z</time>
      </trkpt>
      <trkpt lat="43.26678" lon="5.76084">
        <ele>454</ele>
        <time>2019-09-25T08:43:56Z</time>
      </trkpt>
      <trkpt lat="43.26681" lon="5.76079">
        <ele>456</ele>
        <time>2019-09-25T08:44:00Z</time>
      </trkpt>
      <trkpt lat="43.26683" lon="5.76071">
        <ele>456</ele>
        <time>2019-09-25T08:44:06Z</time>
      </trkpt>
      <trkpt lat="43.26686" lon="5.76064">
        <ele>457</ele>
        <time>2019-09-25T08:44:12Z</time>
      </trkpt>
      <trkpt lat="43.26689" lon="5.76055">
        <ele>458</ele>
        <time>2019-09-25T08:44:18Z</time>
      </trkpt>
      <trkpt lat="43.26689" lon="5.76048">
        <ele>458</ele>
        <time>2019-09-25T08:44:22Z</time>
      </trkpt>
      <trkpt lat="43.26691" lon="5.7604">
        <ele>457</ele>
        <time>2019-09-25T08:44:28Z</time>
      </trkpt>
      <trkpt lat="43.26693" lon="5.76031">
        <ele>456</ele>
        <time>2019-09-25T08:44:34Z</time>
      </trkpt>
      <trkpt lat="43.26694" lon="5.76024">
        <ele>456</ele>
        <time>2019-09-25T08:44:38Z</time>
      </trkpt>
      <trkpt lat="43.26696" lon="5.76017">
        <ele>456</ele>
        <time>2019-09-25T08:44:44Z</time>
      </trkpt>
      <trkpt lat="43.26697" lon="5.76011">
        <ele>456</ele>
        <time>2019-09-25T08:44:48Z</time>
      </trkpt>
      <trkpt lat="43.267" lon="5.76002">
        <ele>458</ele>
        <time>2019-09-25T08:44:54Z</time>
      </trkpt>
      <trkpt lat="43.26702" lon="5.75993">
        <ele>457</ele>
        <time>2019-09-25T08:45:00Z</time>
      </trkpt>
      <trkpt lat="43.26703" lon="5.75987">
        <ele>458</ele>
        <time>2019-09-25T08:45:04Z</time>
      </trkpt>
      <trkpt lat="43.26705" lon="5.75981">
        <ele>459</ele>
        <time>2019-09-25T08:45:08Z</time>
      </trkpt>
      <trkpt lat="43.26707" lon="5.75972">
        <ele>458</ele>
        <time>2019-09-25T08:45:14Z</time>
      </trkpt>
      <trkpt lat="43.26708" lon="5.75966">
        <ele>460</ele>
        <time>2019-09-25T08:45:18Z</time>
      </trkpt>
      <trkpt lat="43.26709" lon="5.75957">
        <ele>460</ele>
        <time>2019-09-25T08:45:24Z</time>
      </trkpt>
      <trkpt lat="43.2671" lon="5.7595">
        <ele>462</ele>
        <time>2019-09-25T08:45:28Z</time>
      </trkpt>
      <trkpt lat="43.26711" lon="5.75941">
        <ele>460</ele>
        <time>2019-09-25T08:45:34Z</time>
      </trkpt>
      <trkpt lat="43.26714" lon="5.75933">
        <ele>461</ele>
        <time>2019-09-25T08:45:40Z</time>
      </trkpt>
      <trkpt lat="43.26719" lon="5.75926">
        <ele>460</ele>
        <time>2019-09-25T08:45:46Z</time>
      </trkpt>
      <trkpt lat="43.26723" lon="5.75921">
        <ele>456</ele>
        <time>2019-09-25T08:45:52Z</time>
      </trkpt>
      <trkpt lat="43.26729" lon="5.75918">
        <ele>458</ele>
        <time>2019-09-25T08:45:58Z</time>
      </trkpt>
      <trkpt lat="43.26735" lon="5.75919">
        <ele>456</ele>
        <time>2019-09-25T08:46:04Z</time>
      </trkpt>
      <trkpt lat="43.2674" lon="5.7592">
        <ele>457</ele>
        <time>2019-09-25T08:46:08Z</time>
      </trkpt>
      <trkpt lat="43.26744" lon="5.75923">
        <ele>456</ele>
        <time>2019-09-25T08:46:12Z</time>
      </trkpt>
      <trkpt lat="43.26749" lon="5.75926">
        <ele>458</ele>
        <time>2019-09-25T08:46:16Z</time>
      </trkpt>
      <trkpt lat="43.26754" lon="5.75928">
        <ele>458</ele>
        <time>2019-09-25T08:46:20Z</time>
      </trkpt>
      <trkpt lat="43.26758" lon="5.7593">
        <ele>457</ele>
        <time>2019-09-25T08:46:24Z</time>
      </trkpt>
      <trkpt lat="43.26763" lon="5.75933">
        <ele>457</ele>
        <time>2019-09-25T08:46:28Z</time>
      </trkpt>
      <trkpt lat="43.26767" lon="5.75937">
        <ele>451</ele>
        <time>2019-09-25T08:46:36Z</time>
      </trkpt>
      <trkpt lat="43.26768" lon="5.75945">
        <ele>450</ele>
        <time>2019-09-25T08:46:44Z</time>
      </trkpt>
      <trkpt lat="43.26767" lon="5.75952">
        <ele>448</ele>
        <time>2019-09-25T08:46:50Z</time>
      </trkpt>
      <trkpt lat="43.26768" lon="5.7596">
        <ele>446</ele>
        <time>2019-09-25T08:46:56Z</time>
      </trkpt>
      <trkpt lat="43.2677" lon="5.75966">
        <ele>447</ele>
        <time>2019-09-25T08:47:00Z</time>
      </trkpt>
      <trkpt lat="43.26772" lon="5.75974">
        <ele>443</ele>
        <time>2019-09-25T08:47:06Z</time>
      </trkpt>
      <trkpt lat="43.26773" lon="5.7598">
        <ele>441</ele>
        <time>2019-09-25T08:47:10Z</time>
      </trkpt>
      <trkpt lat="43.26774" lon="5.7599">
        <ele>441</ele>
        <time>2019-09-25T08:47:16Z</time>
      </trkpt>
      <trkpt lat="43.26776" lon="5.75998">
        <ele>442</ele>
        <time>2019-09-25T08:47:22Z</time>
      </trkpt>
      <trkpt lat="43.2678" lon="5.76006">
        <ele>441</ele>
        <time>2019-09-25T08:47:28Z</time>
      </trkpt>
      <trkpt lat="43.26784" lon="5.7601">
        <ele>442</ele>
        <time>2019-09-25T08:47:32Z</time>
      </trkpt>
      <trkpt lat="43.26789" lon="5.76013">
        <ele>443</ele>
        <time>2019-09-25T08:47:38Z</time>
      </trkpt>
      <trkpt lat="43.26795" lon="5.76013">
        <ele>444</ele>
        <time>2019-09-25T08:47:44Z</time>
      </trkpt>
      <trkpt lat="43.26801" lon="5.7601">
        <ele>445</ele>
        <time>2019-09-25T08:47:50Z</time>
      </trkpt>
      <trkpt lat="43.26806" lon="5.76005">
        <ele>442</ele>
        <time>2019-09-25T08:47:56Z</time>
      </trkpt>
      <trkpt lat="43.26809" lon="5.76001">
        <ele>439</ele>
        <time>2019-09-25T08:48:00Z</time>
      </trkpt>
      <trkpt lat="43.26812" lon="5.75996">
        <ele>440</ele>
        <time>2019-09-25T08:48:04Z</time>
      </trkpt>
      <trkpt lat="43.26816" lon="5.75991">
        <ele>440</ele>
        <time>2019-09-25T08:48:08Z</time>
      </trkpt>
      <trkpt lat="43.26817" lon="5.75984">
        <ele>441</ele>
        <time>2019-09-25T08:48:12Z</time>
      </trkpt>
      <trkpt lat="43.2682" lon="5.75976">
        <ele>439</ele>
        <time>2019-09-25T08:48:18Z</time>
      </trkpt>
      <trkpt lat="43.26821" lon="5.75971">
        <ele>438</ele>
        <time>2019-09-25T08:48:22Z</time>
      </trkpt>
      <trkpt lat="43.26821" lon="5.75962">
        <ele>437</ele>
        <time>2019-09-25T08:48:28Z</time>
      </trkpt>
      <trkpt lat="43.26822" lon="5.75953">
        <ele>437</ele>
        <time>2019-09-25T08:48:34Z</time>
      </trkpt>
      <trkpt lat="43.26822" lon="5.75945">
        <ele>436</ele>
        <time>2019-09-25T08:48:38Z</time>
      </trkpt>
      <trkpt lat="43.26827" lon="5.75943">
        <ele>437</ele>
        <time>2019-09-25T08:48:46Z</time>
      </trkpt>
      <trkpt lat="43.26831" lon="5.75947">
        <ele>438</ele>
        <time>2019-09-25T08:48:52Z</time>
      </trkpt>
      <trkpt lat="43.26832" lon="5.75954">
        <ele>435</ele>
        <time>2019-09-25T08:49:00Z</time>
      </trkpt>
      <trkpt lat="43.26834" lon="5.75962">
        <ele>436</ele>
        <time>2019-09-25T08:49:06Z</time>
      </trkpt>
      <trkpt lat="43.26838" lon="5.75966">
        <ele>435</ele>
        <time>2019-09-25T08:49:10Z</time>
      </trkpt>
      <trkpt lat="43.26844" lon="5.75967">
        <ele>433</ele>
        <time>2019-09-25T08:49:16Z</time>
      </trkpt>
      <trkpt lat="43.26847" lon="5.75962">
        <ele>432</ele>
        <time>2019-09-25T08:49:20Z</time>
      </trkpt>
      <trkpt lat="43.26846" lon="5.75955">
        <ele>431</ele>
        <time>2019-09-25T08:49:24Z</time>
      </trkpt>
      <trkpt lat="43.26845" lon="5.75948">
        <ele>432</ele>
        <time>2019-09-25T08:49:30Z</time>
      </trkpt>
      <trkpt lat="43.26846" lon="5.7594">
        <ele>431</ele>
        <time>2019-09-25T08:49:36Z</time>
      </trkpt>
      <trkpt lat="43.26848" lon="5.75931">
        <ele>430</ele>
        <time>2019-09-25T08:49:42Z</time>
      </trkpt>
      <trkpt lat="43.26847" lon="5.75923">
        <ele>428</ele>
        <time>2019-09-25T08:49:48Z</time>
      </trkpt>
      <trkpt lat="43.26847" lon="5.75915">
        <ele>426</ele>
        <time>2019-09-25T08:49:54Z</time>
      </trkpt>
      <trkpt lat="43.26847" lon="5.75908">
        <ele>423</ele>
        <time>2019-09-25T08:50:00Z</time>
      </trkpt>
      <trkpt lat="43.26848" lon="5.759">
        <ele>423</ele>
        <time>2019-09-25T08:50:06Z</time>
      </trkpt>
      <trkpt lat="43.26847" lon="5.75891">
        <ele>424</ele>
        <time>2019-09-25T08:50:10Z</time>
      </trkpt>
      <trkpt lat="43.26848" lon="5.75884">
        <ele>422</ele>
        <time>2019-09-25T08:50:16Z</time>
      </trkpt>
      <trkpt lat="43.26847" lon="5.75875">
        <ele>420</ele>
        <time>2019-09-25T08:50:24Z</time>
      </trkpt>
      <trkpt lat="43.26847" lon="5.75869">
        <ele>421</ele>
        <time>2019-09-25T08:50:28Z</time>
      </trkpt>
      <trkpt lat="43.26848" lon="5.75862">
        <ele>421</ele>
        <time>2019-09-25T08:50:34Z</time>
      </trkpt>
      <trkpt lat="43.26851" lon="5.75856">
        <ele>422</ele>
        <time>2019-09-25T08:50:42Z</time>
      </trkpt>
      <trkpt lat="43.26857" lon="5.75858">
        <ele>423</ele>
        <time>2019-09-25T08:50:50Z</time>
      </trkpt>
      <trkpt lat="43.26861" lon="5.75862">
        <ele>423</ele>
        <time>2019-09-25T08:50:56Z</time>
      </trkpt>
      <trkpt lat="43.26867" lon="5.75866">
        <ele>418</ele>
        <time>2019-09-25T08:51:04Z</time>
      </trkpt>
      <trkpt lat="43.26871" lon="5.75868">
        <ele>422</ele>
        <time>2019-09-25T08:51:10Z</time>
      </trkpt>
      <trkpt lat="43.26877" lon="5.75871">
        <ele>421</ele>
        <time>2019-09-25T08:51:16Z</time>
      </trkpt>
      <trkpt lat="43.26881" lon="5.75875">
        <ele>423</ele>
        <time>2019-09-25T08:51:22Z</time>
      </trkpt>
      <trkpt lat="43.26884" lon="5.75879">
        <ele>419</ele>
        <time>2019-09-25T08:51:26Z</time>
      </trkpt>
      <trkpt lat="43.26888" lon="5.75886">
        <ele>417</ele>
        <time>2019-09-25T08:51:32Z</time>
      </trkpt>
      <trkpt lat="43.26889" lon="5.75894">
        <ele>419</ele>
        <time>2019-09-25T08:51:38Z</time>
      </trkpt>
      <trkpt lat="43.26892" lon="5.75899">
        <ele>416</ele>
        <time>2019-09-25T08:51:44Z</time>
      </trkpt>
      <trkpt lat="43.26897" lon="5.75906">
        <ele>421</ele>
        <time>2019-09-25T08:51:50Z</time>
      </trkpt>
      <trkpt lat="43.26902" lon="5.7591">
        <ele>423</ele>
        <time>2019-09-25T08:51:56Z</time>
      </trkpt>
      <trkpt lat="43.26907" lon="5.75909">
        <ele>422</ele>
        <time>2019-09-25T08:52:02Z</time>
      </trkpt>
      <trkpt lat="43.26911" lon="5.75906">
        <ele>423</ele>
        <time>2019-09-25T08:52:08Z</time>
      </trkpt>
      <trkpt lat="43.26915" lon="5.75902">
        <ele>423</ele>
        <time>2019-09-25T08:52:12Z</time>
      </trkpt>
      <trkpt lat="43.26921" lon="5.75898">
        <ele>422</ele>
        <time>2019-09-25T08:52:18Z</time>
      </trkpt>
      <trkpt lat="43.26928" lon="5.75896">
        <ele>421</ele>
        <time>2019-09-25T08:52:24Z</time>
      </trkpt>
      <trkpt lat="43.26933" lon="5.75895">
        <ele>420</ele>
        <time>2019-09-25T08:52:30Z</time>
      </trkpt>
      <trkpt lat="43.26938" lon="5.75894">
        <ele>420</ele>
        <time>2019-09-25T08:52:36Z</time>
      </trkpt>
      <trkpt lat="43.26944" lon="5.75893">
        <ele>420</ele>
        <time>2019-09-25T08:52:42Z</time>
      </trkpt>
      <trkpt lat="43.2695" lon="5.75895">
        <ele>418</ele>
        <time>2019-09-25T08:52:48Z</time>
      </trkpt>
      <trkpt lat="43.26954" lon="5.75896">
        <ele>419</ele>
        <time>2019-09-25T08:52:54Z</time>
      </trkpt>
      <trkpt lat="43.26959" lon="5.75897">
        <ele>421</ele>
        <time>2019-09-25T08:52:58Z</time>
      </trkpt>
      <trkpt lat="43.26966" lon="5.75896">
        <ele>423</ele>
        <time>2019-09-25T08:53:04Z</time>
      </trkpt>
      <trkpt lat="43.26971" lon="5.75897">
        <ele>424</ele>
        <time>2019-09-25T08:53:10Z</time>
      </trkpt>
      <trkpt lat="43.26977" lon="5.75899">
        <ele>427</ele>
        <time>2019-09-25T08:53:16Z</time>
      </trkpt>
      <trkpt lat="43.26981" lon="5.75901">
        <ele>428</ele>
        <time>2019-09-25T08:53:20Z</time>
      </trkpt>
      <trkpt lat="43.26986" lon="5.75902">
        <ele>430</ele>
        <time>2019-09-25T08:53:24Z</time>
      </trkpt>
      <trkpt lat="43.26991" lon="5.75903">
        <ele>431</ele>
        <time>2019-09-25T08:53:28Z</time>
      </trkpt>
      <trkpt lat="43.26996" lon="5.75905">
        <ele>432</ele>
        <time>2019-09-25T08:53:32Z</time>
      </trkpt>
      <trkpt lat="43.27002" lon="5.75905">
        <ele>430</ele>
        <time>2019-09-25T08:53:38Z</time>
      </trkpt>
      <trkpt lat="43.27007" lon="5.75907">
        <ele>429</ele>
        <time>2019-09-25T08:53:42Z</time>
      </trkpt>
      <trkpt lat="43.27011" lon="5.75908">
        <ele>431</ele>
        <time>2019-09-25T08:53:46Z</time>
      </trkpt>
      <trkpt lat="43.27016" lon="5.75907">
        <ele>431</ele>
        <time>2019-09-25T08:53:50Z</time>
      </trkpt>
      <trkpt lat="43.27023" lon="5.75906">
        <ele>432</ele>
        <time>2019-09-25T08:53:56Z</time>
      </trkpt>
      <trkpt lat="43.27028" lon="5.75905">
        <ele>434</ele>
        <time>2019-09-25T08:54:00Z</time>
      </trkpt>
      <trkpt lat="43.27033" lon="5.75899">
        <ele>425</ele>
        <time>2019-09-25T08:54:04Z</time>
      </trkpt>
      <trkpt lat="43.27037" lon="5.75896">
        <ele>422</ele>
        <time>2019-09-25T08:54:08Z</time>
      </trkpt>
      <trkpt lat="43.27041" lon="5.75895">
        <ele>423</ele>
        <time>2019-09-25T08:54:12Z</time>
      </trkpt>
      <trkpt lat="43.27046" lon="5.75894">
        <ele>424</ele>
        <time>2019-09-25T08:54:16Z</time>
      </trkpt>
      <trkpt lat="43.27052" lon="5.75892">
        <ele>423</ele>
        <time>2019-09-25T08:54:22Z</time>
      </trkpt>
      <trkpt lat="43.27057" lon="5.75891">
        <ele>423</ele>
        <time>2019-09-25T08:54:26Z</time>
      </trkpt>
      <trkpt lat="43.27063" lon="5.7589">
        <ele>425</ele>
        <time>2019-09-25T08:54:32Z</time>
      </trkpt>
      <trkpt lat="43.27069" lon="5.75889">
        <ele>427</ele>
        <time>2019-09-25T08:54:38Z</time>
      </trkpt>
      <trkpt lat="43.27076" lon="5.75887">
        <ele>424</ele>
        <time>2019-09-25T08:54:44Z</time>
      </trkpt>
      <trkpt lat="43.2708" lon="5.75885">
        <ele>416</ele>
        <time>2019-09-25T08:54:48Z</time>
      </trkpt>
      <trkpt lat="43.27084" lon="5.75885">
        <ele>418</ele>
        <time>2019-09-25T08:54:52Z</time>
      </trkpt>
      <trkpt lat="43.27091" lon="5.75886">
        <ele>417</ele>
        <time>2019-09-25T08:54:58Z</time>
      </trkpt>
      <trkpt lat="43.27097" lon="5.75886">
        <ele>419</ele>
        <time>2019-09-25T08:55:04Z</time>
      </trkpt>
      <trkpt lat="43.27104" lon="5.75886">
        <ele>419</ele>
        <time>2019-09-25T08:55:10Z</time>
      </trkpt>
      <trkpt lat="43.2711" lon="5.75884">
        <ele>419</ele>
        <time>2019-09-25T08:55:16Z</time>
      </trkpt>
      <trkpt lat="43.27115" lon="5.75885">
        <ele>419</ele>
        <time>2019-09-25T08:55:20Z</time>
      </trkpt>
      <trkpt lat="43.27119" lon="5.75887">
        <ele>419</ele>
        <time>2019-09-25T08:55:24Z</time>
      </trkpt>
      <trkpt lat="43.27124" lon="5.75889">
        <ele>417</ele>
        <time>2019-09-25T08:55:28Z</time>
      </trkpt>
      <trkpt lat="43.27129" lon="5.75891">
        <ele>414</ele>
        <time>2019-09-25T08:55:34Z</time>
      </trkpt>
      <trkpt lat="43.27135" lon="5.75894">
        <ele>410</ele>
        <time>2019-09-25T08:55:40Z</time>
      </trkpt>
      <trkpt lat="43.27139" lon="5.75901">
        <ele>411</ele>
        <time>2019-09-25T08:55:46Z</time>
      </trkpt>
      <trkpt lat="43.27141" lon="5.75908">
        <ele>408</ele>
        <time>2019-09-25T08:55:52Z</time>
      </trkpt>
      <trkpt lat="43.27142" lon="5.75916">
        <ele>408</ele>
        <time>2019-09-25T08:55:58Z</time>
      </trkpt>
      <trkpt lat="43.27142" lon="5.75924">
        <ele>403</ele>
        <time>2019-09-25T08:56:04Z</time>
      </trkpt>
      <trkpt lat="43.27141" lon="5.7593">
        <ele>402</ele>
        <time>2019-09-25T08:56:10Z</time>
      </trkpt>
      <trkpt lat="43.27142" lon="5.75937">
        <ele>401</ele>
        <time>2019-09-25T08:56:14Z</time>
      </trkpt>
      <trkpt lat="43.27143" lon="5.75944">
        <ele>399</ele>
        <time>2019-09-25T08:56:18Z</time>
      </trkpt>
      <trkpt lat="43.27144" lon="5.75952">
        <ele>396</ele>
        <time>2019-09-25T08:56:24Z</time>
      </trkpt>
      <trkpt lat="43.27142" lon="5.75961">
        <ele>398</ele>
        <time>2019-09-25T08:56:30Z</time>
      </trkpt>
      <trkpt lat="43.27143" lon="5.7597">
        <ele>400</ele>
        <time>2019-09-25T08:56:36Z</time>
      </trkpt>
      <trkpt lat="43.27144" lon="5.75979">
        <ele>402</ele>
        <time>2019-09-25T08:56:42Z</time>
      </trkpt>
      <trkpt lat="43.27146" lon="5.75986">
        <ele>401</ele>
        <time>2019-09-25T08:56:46Z</time>
      </trkpt>
      <trkpt lat="43.27148" lon="5.75992">
        <ele>399</ele>
        <time>2019-09-25T08:56:50Z</time>
      </trkpt>
      <trkpt lat="43.2715" lon="5.75998">
        <ele>399</ele>
        <time>2019-09-25T08:56:54Z</time>
      </trkpt>
      <trkpt lat="43.27153" lon="5.76007">
        <ele>397</ele>
        <time>2019-09-25T08:57:00Z</time>
      </trkpt>
      <trkpt lat="43.27156" lon="5.76012">
        <ele>398</ele>
        <time>2019-09-25T08:57:04Z</time>
      </trkpt>
      <trkpt lat="43.2716" lon="5.76016">
        <ele>399</ele>
        <time>2019-09-25T08:57:08Z</time>
      </trkpt>
      <trkpt lat="43.27165" lon="5.76019">
        <ele>399</ele>
        <time>2019-09-25T08:57:12Z</time>
      </trkpt>
      <trkpt lat="43.27169" lon="5.76022">
        <ele>399</ele>
        <time>2019-09-25T08:57:16Z</time>
      </trkpt>
      <trkpt lat="43.27175" lon="5.76027">
        <ele>400</ele>
        <time>2019-09-25T08:57:22Z</time>
      </trkpt>
      <trkpt lat="43.27181" lon="5.7603">
        <ele>401</ele>
        <time>2019-09-25T08:57:28Z</time>
      </trkpt>
      <trkpt lat="43.27187" lon="5.76034">
        <ele>400</ele>
        <time>2019-09-25T08:57:34Z</time>
      </trkpt>
      <trkpt lat="43.27192" lon="5.76036">
        <ele>401</ele>
        <time>2019-09-25T08:57:38Z</time>
      </trkpt>
      <trkpt lat="43.27196" lon="5.76036">
        <ele>401</ele>
        <time>2019-09-25T08:57:42Z</time>
      </trkpt>
      <trkpt lat="43.27203" lon="5.76031">
        <ele>402</ele>
        <time>2019-09-25T08:57:48Z</time>
      </trkpt>
      <trkpt lat="43.27208" lon="5.76028">
        <ele>403</ele>
        <time>2019-09-25T08:57:54Z</time>
      </trkpt>
      <trkpt lat="43.27213" lon="5.76025">
        <ele>405</ele>
        <time>2019-09-25T08:58:00Z</time>
      </trkpt>
      <trkpt lat="43.27219" lon="5.76021">
        <ele>404</ele>
        <time>2019-09-25T08:58:06Z</time>
      </trkpt>
      <trkpt lat="43.27223" lon="5.76018">
        <ele>407</ele>
        <time>2019-09-25T08:58:10Z</time>
      </trkpt>
      <trkpt lat="43.27229" lon="5.76014">
        <ele>409</ele>
        <time>2019-09-25T08:58:16Z</time>
      </trkpt>
      <trkpt lat="43.27233" lon="5.7601">
        <ele>408</ele>
        <time>2019-09-25T08:58:20Z</time>
      </trkpt>
      <trkpt lat="43.27237" lon="5.76007">
        <ele>409</ele>
        <time>2019-09-25T08:58:24Z</time>
      </trkpt>
      <trkpt lat="43.27242" lon="5.76004">
        <ele>407</ele>
        <time>2019-09-25T08:58:30Z</time>
      </trkpt>
      <trkpt lat="43.27248" lon="5.76001">
        <ele>408</ele>
        <time>2019-09-25T08:58:36Z</time>
      </trkpt>
      <trkpt lat="43.27254" lon="5.75997">
        <ele>409</ele>
        <time>2019-09-25T08:58:42Z</time>
      </trkpt>
      <trkpt lat="43.27259" lon="5.75994">
        <ele>408</ele>
        <time>2019-09-25T08:58:46Z</time>
      </trkpt>
      <trkpt lat="43.27263" lon="5.75991">
        <ele>406</ele>
        <time>2019-09-25T08:58:50Z</time>
      </trkpt>
      <trkpt lat="43.27269" lon="5.75988">
        <ele>408</ele>
        <time>2019-09-25T08:58:56Z</time>
      </trkpt>
      <trkpt lat="43.27275" lon="5.75983">
        <ele>407</ele>
        <time>2019-09-25T08:59:02Z</time>
      </trkpt>
      <trkpt lat="43.27281" lon="5.7598">
        <ele>408</ele>
        <time>2019-09-25T08:59:08Z</time>
      </trkpt>
      <trkpt lat="43.27286" lon="5.75977">
        <ele>406</ele>
        <time>2019-09-25T08:59:14Z</time>
      </trkpt>
      <trkpt lat="43.27291" lon="5.75972">
        <ele>407</ele>
        <time>2019-09-25T08:59:18Z</time>
      </trkpt>
      <trkpt lat="43.27295" lon="5.75967">
        <ele>407</ele>
        <time>2019-09-25T08:59:22Z</time>
      </trkpt>
      <trkpt lat="43.27299" lon="5.75963">
        <ele>407</ele>
        <time>2019-09-25T08:59:26Z</time>
      </trkpt>
      <trkpt lat="43.27303" lon="5.7596">
        <ele>410</ele>
        <time>2019-09-25T08:59:30Z</time>
      </trkpt>
      <trkpt lat="43.27308" lon="5.75958">
        <ele>412</ele>
        <time>2019-09-25T08:59:34Z</time>
      </trkpt>
      <trkpt lat="43.27313" lon="5.75954">
        <ele>414</ele>
        <time>2019-09-25T08:59:40Z</time>
      </trkpt>
      <trkpt lat="43.27318" lon="5.75952">
        <ele>412</ele>
        <time>2019-09-25T08:59:44Z</time>
      </trkpt>
      <trkpt lat="43.27322" lon="5.75948">
        <ele>410</ele>
        <time>2019-09-25T08:59:48Z</time>
      </trkpt>
      <trkpt lat="43.27326" lon="5.75944">
        <ele>412</ele>
        <time>2019-09-25T08:59:52Z</time>
      </trkpt>
      <trkpt lat="43.27331" lon="5.7594">
        <ele>409</ele>
        <time>2019-09-25T08:59:56Z</time>
      </trkpt>
      <trkpt lat="43.27335" lon="5.75938">
        <ele>409</ele>
        <time>2019-09-25T09:00:00Z</time>
      </trkpt>
      <trkpt lat="43.2734" lon="5.75935">
        <ele>412</ele>
        <time>2019-09-25T09:00:06Z</time>
      </trkpt>
      <trkpt lat="43.27346" lon="5.75934">
        <ele>412</ele>
        <time>2019-09-25T09:00:12Z</time>
      </trkpt>
      <trkpt lat="43.27351" lon="5.75933">
        <ele>411</ele>
        <time>2019-09-25T09:00:16Z</time>
      </trkpt>
      <trkpt lat="43.27356" lon="5.75932">
        <ele>413</ele>
        <time>2019-09-25T09:00:22Z</time>
      </trkpt>
      <trkpt lat="43.27362" lon="5.75932">
        <ele>414</ele>
        <time>2019-09-25T09:00:28Z</time>
      </trkpt>
      <trkpt lat="43.27368" lon="5.7593">
        <ele>410</ele>
        <time>2019-09-25T09:00:34Z</time>
      </trkpt>
      <trkpt lat="43.27374" lon="5.75929">
        <ele>412</ele>
        <time>2019-09-25T09:00:38Z</time>
      </trkpt>
      <trkpt lat="43.27379" lon="5.75928">
        <ele>411</ele>
        <time>2019-09-25T09:00:42Z</time>
      </trkpt>
      <trkpt lat="43.27384" lon="5.75927">
        <ele>412</ele>
        <time>2019-09-25T09:00:46Z</time>
      </trkpt>
      <trkpt lat="43.27388" lon="5.75925">
        <ele>415</ele>
        <time>2019-09-25T09:00:50Z</time>
      </trkpt>
      <trkpt lat="43.27393" lon="5.75924">
        <ele>415</ele>
        <time>2019-09-25T09:00:54Z</time>
      </trkpt>
      <trkpt lat="43.27398" lon="5.75923">
        <ele>414</ele>
        <time>2019-09-25T09:01:00Z</time>
      </trkpt>
      <trkpt lat="43.27404" lon="5.75921">
        <ele>413</ele>
        <time>2019-09-25T09:01:04Z</time>
      </trkpt>
      <trkpt lat="43.2741" lon="5.75921">
        <ele>412</ele>
        <time>2019-09-25T09:01:08Z</time>
      </trkpt>
      <trkpt lat="43.27415" lon="5.75922">
        <ele>410</ele>
        <time>2019-09-25T09:01:14Z</time>
      </trkpt>
      <trkpt lat="43.27421" lon="5.75921">
        <ele>409</ele>
        <time>2019-09-25T09:01:20Z</time>
      </trkpt>
      <trkpt lat="43.27426" lon="5.75924">
        <ele>408</ele>
        <time>2019-09-25T09:01:24Z</time>
      </trkpt>
      <trkpt lat="43.27431" lon="5.75923">
        <ele>408</ele>
        <time>2019-09-25T09:01:28Z</time>
      </trkpt>
      <trkpt lat="43.27435" lon="5.75927">
        <ele>410</ele>
        <time>2019-09-25T09:01:34Z</time>
      </trkpt>
      <trkpt lat="43.27439" lon="5.7593">
        <ele>410</ele>
        <time>2019-09-25T09:01:38Z</time>
      </trkpt>
      <trkpt lat="43.27444" lon="5.75932">
        <ele>410</ele>
        <time>2019-09-25T09:01:44Z</time>
      </trkpt>
      <trkpt lat="43.27449" lon="5.75934">
        <ele>411</ele>
        <time>2019-09-25T09:05:56Z</time>
      </trkpt>
      <trkpt lat="43.27453" lon="5.7594">
        <ele>410</ele>
        <time>2019-09-25T09:06:06Z</time>
      </trkpt>
      <trkpt lat="43.27457" lon="5.75945">
        <ele>409</ele>
        <time>2019-09-25T09:06:12Z</time>
      </trkpt>
      <trkpt lat="43.27461" lon="5.75949">
        <ele>409</ele>
        <time>2019-09-25T09:06:18Z</time>
      </trkpt>
      <trkpt lat="43.27465" lon="5.75954">
        <ele>408</ele>
        <time>2019-09-25T09:06:24Z</time>
      </trkpt>
      <trkpt lat="43.27469" lon="5.7596">
        <ele>410</ele>
        <time>2019-09-25T09:06:30Z</time>
      </trkpt>
      <trkpt lat="43.27472" lon="5.75966">
        <ele>414</ele>
        <time>2019-09-25T09:06:36Z</time>
      </trkpt>
      <trkpt lat="43.27475" lon="5.75972">
        <ele>415</ele>
        <time>2019-09-25T09:06:42Z</time>
      </trkpt>
      <trkpt lat="43.27478" lon="5.75977">
        <ele>412</ele>
        <time>2019-09-25T09:06:48Z</time>
      </trkpt>
      <trkpt lat="43.2748" lon="5.75985">
        <ele>412</ele>
        <time>2019-09-25T09:06:54Z</time>
      </trkpt>
      <trkpt lat="43.27483" lon="5.75991">
        <ele>414</ele>
        <time>2019-09-25T09:06:58Z</time>
      </trkpt>
      <trkpt lat="43.27486" lon="5.75996">
        <ele>413</ele>
        <time>2019-09-25T09:07:04Z</time>
      </trkpt>
      <trkpt lat="43.27488" lon="5.76002">
        <ele>413</ele>
        <time>2019-09-25T09:07:10Z</time>
      </trkpt>
      <trkpt lat="43.2749" lon="5.76009">
        <ele>410</ele>
        <time>2019-09-25T09:07:18Z</time>
      </trkpt>
      <trkpt lat="43.2749" lon="5.76016">
        <ele>409</ele>
        <time>2019-09-25T09:07:24Z</time>
      </trkpt>
      <trkpt lat="43.27491" lon="5.76023">
        <ele>409</ele>
        <time>2019-09-25T09:07:30Z</time>
      </trkpt>
      <trkpt lat="43.27493" lon="5.76028">
        <ele>408</ele>
        <time>2019-09-25T09:07:36Z</time>
      </trkpt>
      <trkpt lat="43.27496" lon="5.76034">
        <ele>410</ele>
        <time>2019-09-25T09:07:40Z</time>
      </trkpt>
      <trkpt lat="43.27498" lon="5.7604">
        <ele>410</ele>
        <time>2019-09-25T09:07:44Z</time>
      </trkpt>
      <trkpt lat="43.27501" lon="5.76046">
        <ele>413</ele>
        <time>2019-09-25T09:07:48Z</time>
      </trkpt>
      <trkpt lat="43.27503" lon="5.76052">
        <ele>415</ele>
        <time>2019-09-25T09:07:52Z</time>
      </trkpt>
      <trkpt lat="43.27505" lon="5.76059">
        <ele>417</ele>
        <time>2019-09-25T09:07:58Z</time>
      </trkpt>
      <trkpt lat="43.27506" lon="5.76066">
        <ele>415</ele>
        <time>2019-09-25T09:08:04Z</time>
      </trkpt>
      <trkpt lat="43.27507" lon="5.76073">
        <ele>416</ele>
        <time>2019-09-25T09:08:10Z</time>
      </trkpt>
      <trkpt lat="43.27508" lon="5.7608">
        <ele>414</ele>
        <time>2019-09-25T09:08:16Z</time>
      </trkpt>
      <trkpt lat="43.2751" lon="5.76088">
        <ele>413</ele>
        <time>2019-09-25T09:08:22Z</time>
      </trkpt>
      <trkpt lat="43.2751" lon="5.76096">
        <ele>411</ele>
        <time>2019-09-25T09:08:30Z</time>
      </trkpt>
      <trkpt lat="43.2751" lon="5.76104">
        <ele>413</ele>
        <time>2019-09-25T09:08:36Z</time>
      </trkpt>
      <trkpt lat="43.27509" lon="5.76112">
        <ele>413</ele>
        <time>2019-09-25T09:08:42Z</time>
      </trkpt>
      <trkpt lat="43.27509" lon="5.7612">
        <ele>412</ele>
        <time>2019-09-25T09:08:48Z</time>
      </trkpt>
      <trkpt lat="43.27508" lon="5.76126">
        <ele>414</ele>
        <time>2019-09-25T09:08:52Z</time>
      </trkpt>
      <trkpt lat="43.27507" lon="5.76132">
        <ele>415</ele>
        <time>2019-09-25T09:08:56Z</time>
      </trkpt>
      <trkpt lat="43.27507" lon="5.76139">
        <ele>416</ele>
        <time>2019-09-25T09:09:00Z</time>
      </trkpt>
      <trkpt lat="43.27506" lon="5.76145">
        <ele>414</ele>
        <time>2019-09-25T09:09:04Z</time>
      </trkpt>
      <trkpt lat="43.27505" lon="5.76153">
        <ele>415</ele>
        <time>2019-09-25T09:09:10Z</time>
      </trkpt>
      <trkpt lat="43.27504" lon="5.76161">
        <ele>415</ele>
        <time>2019-09-25T09:09:16Z</time>
      </trkpt>
      <trkpt lat="43.27503" lon="5.76169">
        <ele>417</ele>
        <time>2019-09-25T09:09:22Z</time>
      </trkpt>
      <trkpt lat="43.27503" lon="5.76176">
        <ele>417</ele>
        <time>2019-09-25T09:09:26Z</time>
      </trkpt>
      <trkpt lat="43.27501" lon="5.76184">
        <ele>415</ele>
        <time>2019-09-25T09:09:30Z</time>
      </trkpt>
      <trkpt lat="43.27501" lon="5.76191">
        <ele>416</ele>
        <time>2019-09-25T09:09:34Z</time>
      </trkpt>
      <trkpt lat="43.27501" lon="5.76197">
        <ele>416</ele>
        <time>2019-09-25T09:09:38Z</time>
      </trkpt>
      <trkpt lat="43.27501" lon="5.76205">
        <ele>415</ele>
        <time>2019-09-25T09:09:44Z</time>
      </trkpt>
      <trkpt lat="43.27498" lon="5.7621">
        <ele>414</ele>
        <time>2019-09-25T09:09:50Z</time>
      </trkpt>
      <trkpt lat="43.27495" lon="5.76215">
        <ele>414</ele>
        <time>2019-09-25T09:09:56Z</time>
      </trkpt>
      <trkpt lat="43.2749" lon="5.7622">
        <ele>425</ele>
        <time>2019-09-25T09:10:02Z</time>
      </trkpt>
      <trkpt lat="43.27488" lon="5.76227">
        <ele>424</ele>
        <time>2019-09-25T09:10:08Z</time>
      </trkpt>
      <trkpt lat="43.27487" lon="5.76236">
        <ele>422</ele>
        <time>2019-09-25T09:10:14Z</time>
      </trkpt>
      <trkpt lat="43.27489" lon="5.76244">
        <ele>421</ele>
        <time>2019-09-25T09:10:20Z</time>
      </trkpt>
      <trkpt lat="43.2749" lon="5.7625">
        <ele>420</ele>
        <time>2019-09-25T09:10:24Z</time>
      </trkpt>
      <trkpt lat="43.2749" lon="5.76259">
        <ele>418</ele>
        <time>2019-09-25T09:10:30Z</time>
      </trkpt>
      <trkpt lat="43.27491" lon="5.76266">
        <ele>420</ele>
        <time>2019-09-25T09:10:36Z</time>
      </trkpt>
      <trkpt lat="43.27492" lon="5.76275">
        <ele>420</ele>
        <time>2019-09-25T09:10:42Z</time>
      </trkpt>
      <trkpt lat="43.27493" lon="5.76283">
        <ele>422</ele>
        <time>2019-09-25T09:10:48Z</time>
      </trkpt>
      <trkpt lat="43.27493" lon="5.76292">
        <ele>421</ele>
        <time>2019-09-25T09:10:54Z</time>
      </trkpt>
      <trkpt lat="43.27494" lon="5.76299">
        <ele>422</ele>
        <time>2019-09-25T09:11:00Z</time>
      </trkpt>
      <trkpt lat="43.27495" lon="5.76307">
        <ele>423</ele>
        <time>2019-09-25T09:11:06Z</time>
      </trkpt>
      <trkpt lat="43.27496" lon="5.76317">
        <ele>424</ele>
        <time>2019-09-25T09:11:12Z</time>
      </trkpt>
      <trkpt lat="43.27497" lon="5.76324">
        <ele>423</ele>
        <time>2019-09-25T09:11:16Z</time>
      </trkpt>
      <trkpt lat="43.27499" lon="5.7633">
        <ele>423</ele>
        <time>2019-09-25T09:11:20Z</time>
      </trkpt>
      <trkpt lat="43.27501" lon="5.76338">
        <ele>421</ele>
        <time>2019-09-25T09:11:26Z</time>
      </trkpt>
      <trkpt lat="43.27505" lon="5.76345">
        <ele>417</ele>
        <time>2019-09-25T09:11:32Z</time>
      </trkpt>
      <trkpt lat="43.27506" lon="5.76353">
        <ele>417</ele>
        <time>2019-09-25T09:11:36Z</time>
      </trkpt>
      <trkpt lat="43.27508" lon="5.76358">
        <ele>416</ele>
        <time>2019-09-25T09:11:40Z</time>
      </trkpt>
      <trkpt lat="43.27511" lon="5.76363">
        <ele>417</ele>
        <time>2019-09-25T09:11:44Z</time>
      </trkpt>
      <trkpt lat="43.27514" lon="5.76371">
        <ele>416</ele>
        <time>2019-09-25T09:11:50Z</time>
      </trkpt>
      <trkpt lat="43.27517" lon="5.76377">
        <ele>419</ele>
        <time>2019-09-25T09:11:54Z</time>
      </trkpt>
      <trkpt lat="43.27521" lon="5.76384">
        <ele>420</ele>
        <time>2019-09-25T09:12:00Z</time>
      </trkpt>
      <trkpt lat="43.27525" lon="5.76392">
        <ele>420</ele>
        <time>2019-09-25T09:12:06Z</time>
      </trkpt>
      <trkpt lat="43.27529" lon="5.764">
        <ele>421</ele>
        <time>2019-09-25T09:12:12Z</time>
      </trkpt>
      <trkpt lat="43.27533" lon="5.76405">
        <ele>422</ele>
        <time>2019-09-25T09:12:16Z</time>
      </trkpt>
      <trkpt lat="43.27536" lon="5.76409">
        <ele>422</ele>
        <time>2019-09-25T09:12:20Z</time>
      </trkpt>
      <trkpt lat="43.27541" lon="5.76415">
        <ele>422</ele>
        <time>2019-09-25T09:12:26Z</time>
      </trkpt>
      <trkpt lat="43.27544" lon="5.7642">
        <ele>422</ele>
        <time>2019-09-25T09:12:30Z</time>
      </trkpt>
      <trkpt lat="43.27547" lon="5.76425">
        <ele>424</ele>
        <time>2019-09-25T09:12:34Z</time>
      </trkpt>
      <trkpt lat="43.2755" lon="5.7643">
        <ele>424</ele>
        <time>2019-09-25T09:12:38Z</time>
      </trkpt>
      <trkpt lat="43.27554" lon="5.76434">
        <ele>426</ele>
        <time>2019-09-25T09:12:44Z</time>
      </trkpt>
      <trkpt lat="43.27559" lon="5.76439">
        <ele>424</ele>
        <time>2019-09-25T09:12:50Z</time>
      </trkpt>
      <trkpt lat="43.27562" lon="5.76444">
        <ele>421</ele>
        <time>2019-09-25T09:12:56Z</time>
      </trkpt>
      <trkpt lat="43.27566" lon="5.7645">
        <ele>422</ele>
        <time>2019-09-25T09:13:02Z</time>
      </trkpt>
      <trkpt lat="43.27569" lon="5.76455">
        <ele>423</ele>
        <time>2019-09-25T09:13:06Z</time>
      </trkpt>
      <trkpt lat="43.27575" lon="5.7646">
        <ele>422</ele>
        <time>2019-09-25T09:13:12Z</time>
      </trkpt>
      <trkpt lat="43.27578" lon="5.76464">
        <ele>422</ele>
        <time>2019-09-25T09:13:16Z</time>
      </trkpt>
      <trkpt lat="43.27581" lon="5.76468">
        <ele>421</ele>
        <time>2019-09-25T09:13:20Z</time>
      </trkpt>
      <trkpt lat="43.27586" lon="5.76474">
        <ele>421</ele>
        <time>2019-09-25T09:13:26Z</time>
      </trkpt>
      <trkpt lat="43.27589" lon="5.76479">
        <ele>423</ele>
        <time>2019-09-25T09:13:32Z</time>
      </trkpt>
      <trkpt lat="43.27594" lon="5.76486">
        <ele>425</ele>
        <time>2019-09-25T09:13:38Z</time>
      </trkpt>
      <trkpt lat="43.27599" lon="5.76491">
        <ele>426</ele>
        <time>2019-09-25T09:13:44Z</time>
      </trkpt>
      <trkpt lat="43.27605" lon="5.76495">
        <ele>427</ele>
        <time>2019-09-25T09:13:50Z</time>
      </trkpt>
      <trkpt lat="43.27609" lon="5.765">
        <ele>424</ele>
        <time>2019-09-25T09:13:54Z</time>
      </trkpt>
      <trkpt lat="43.27613" lon="5.76505">
        <ele>426</ele>
        <time>2019-09-25T09:14:00Z</time>
      </trkpt>
      <trkpt lat="43.27617" lon="5.7651">
        <ele>427</ele>
        <time>2019-09-25T09:14:06Z</time>
      </trkpt>
      <trkpt lat="43.27621" lon="5.76514">
        <ele>426</ele>
        <time>2019-09-25T09:14:10Z</time>
      </trkpt>
      <trkpt lat="43.27627" lon="5.76516">
        <ele>427</ele>
        <time>2019-09-25T09:14:16Z</time>
      </trkpt>
      <trkpt lat="43.27631" lon="5.76519">
        <ele>428</ele>
        <time>2019-09-25T09:14:20Z</time>
      </trkpt>
      <trkpt lat="43.27638" lon="5.76524">
        <ele>430</ele>
        <time>2019-09-25T09:14:26Z</time>
      </trkpt>
      <trkpt lat="43.27643" lon="5.76529">
        <ele>429</ele>
        <time>2019-09-25T09:14:32Z</time>
      </trkpt>
      <trkpt lat="43.27646" lon="5.76534">
        <ele>429</ele>
        <time>2019-09-25T09:14:36Z</time>
      </trkpt>
      <trkpt lat="43.27651" lon="5.76537">
        <ele>429</ele>
        <time>2019-09-25T09:14:42Z</time>
      </trkpt>
      <trkpt lat="43.27656" lon="5.76536">
        <ele>430</ele>
        <time>2019-09-25T09:14:48Z</time>
      </trkpt>
      <trkpt lat="43.27661" lon="5.76534">
        <ele>431</ele>
        <time>2019-09-25T09:14:54Z</time>
      </trkpt>
      <trkpt lat="43.27666" lon="5.76531">
        <ele>431</ele>
        <time>2019-09-25T09:15:00Z</time>
      </trkpt>
      <trkpt lat="43.2767" lon="5.76527">
        <ele>436</ele>
        <time>2019-09-25T09:15:06Z</time>
      </trkpt>
      <trkpt lat="43.27673" lon="5.76523">
        <ele>435</ele>
        <time>2019-09-25T09:15:12Z</time>
      </trkpt>
      <trkpt lat="43.27678" lon="5.76522">
        <ele>436</ele>
        <time>2019-09-25T09:15:46Z</time>
      </trkpt>
      <trkpt lat="43.27672" lon="5.76525">
        <ele>439</ele>
        <time>2019-09-25T09:17:36Z</time>
      </trkpt>
      <trkpt lat="43.27667" lon="5.76527">
        <ele>437</ele>
        <time>2019-09-25T09:17:42Z</time>
      </trkpt>
      <trkpt lat="43.27662" lon="5.76528">
        <ele>434</ele>
        <time>2019-09-25T09:17:48Z</time>
      </trkpt>
      <trkpt lat="43.27657" lon="5.7653">
        <ele>432</ele>
        <time>2019-09-25T09:17:58Z</time>
      </trkpt>
      <trkpt lat="43.27654" lon="5.76536">
        <ele>432</ele>
        <time>2019-09-25T09:18:06Z</time>
      </trkpt>
      <trkpt lat="43.27654" lon="5.76544">
        <ele>435</ele>
        <time>2019-09-25T09:18:12Z</time>
      </trkpt>
      <trkpt lat="43.27654" lon="5.76551">
        <ele>435</ele>
        <time>2019-09-25T09:18:16Z</time>
      </trkpt>
      <trkpt lat="43.27655" lon="5.76557">
        <ele>436</ele>
        <time>2019-09-25T09:18:22Z</time>
      </trkpt>
      <trkpt lat="43.27656" lon="5.76565">
        <ele>434</ele>
        <time>2019-09-25T09:18:28Z</time>
      </trkpt>
      <trkpt lat="43.27658" lon="5.76572">
        <ele>434</ele>
        <time>2019-09-25T09:18:34Z</time>
      </trkpt>
      <trkpt lat="43.27659" lon="5.76578">
        <ele>431</ele>
        <time>2019-09-25T09:18:40Z</time>
      </trkpt>
      <trkpt lat="43.27659" lon="5.76584">
        <ele>432</ele>
        <time>2019-09-25T09:18:46Z</time>
      </trkpt>
      <trkpt lat="43.27658" lon="5.76591">
        <ele>434</ele>
        <time>2019-09-25T09:18:54Z</time>
      </trkpt>
      <trkpt lat="43.27658" lon="5.766">
        <ele>432</ele>
        <time>2019-09-25T09:19:00Z</time>
      </trkpt>
      <trkpt lat="43.27658" lon="5.76607">
        <ele>431</ele>
        <time>2019-09-25T09:19:04Z</time>
      </trkpt>
      <trkpt lat="43.27655" lon="5.76612">
        <ele>434</ele>
        <time>2019-09-25T09:19:10Z</time>
      </trkpt>
      <trkpt lat="43.2765" lon="5.76616">
        <ele>435</ele>
        <time>2019-09-25T09:19:16Z</time>
      </trkpt>
      <trkpt lat="43.27647" lon="5.76622">
        <ele>435</ele>
        <time>2019-09-25T09:19:22Z</time>
      </trkpt>
      <trkpt lat="43.27644" lon="5.76628">
        <ele>441</ele>
        <time>2019-09-25T09:19:30Z</time>
      </trkpt>
      <trkpt lat="43.27641" lon="5.76633">
        <ele>444</ele>
        <time>2019-09-25T09:19:38Z</time>
      </trkpt>
      <trkpt lat="43.27637" lon="5.76639">
        <ele>443</ele>
        <time>2019-09-25T09:19:46Z</time>
      </trkpt>
      <trkpt lat="43.27632" lon="5.76642">
        <ele>445</ele>
        <time>2019-09-25T09:19:54Z</time>
      </trkpt>
      <trkpt lat="43.27629" lon="5.76648">
        <ele>446</ele>
        <time>2019-09-25T09:20:00Z</time>
      </trkpt>
      <trkpt lat="43.27627" lon="5.76656">
        <ele>446</ele>
        <time>2019-09-25T09:20:08Z</time>
      </trkpt>
      <trkpt lat="43.27624" lon="5.76662">
        <ele>446</ele>
        <time>2019-09-25T09:20:14Z</time>
      </trkpt>
      <trkpt lat="43.27622" lon="5.76668">
        <ele>448</ele>
        <time>2019-09-25T09:20:22Z</time>
      </trkpt>
      <trkpt lat="43.27619" lon="5.76675">
        <ele>449</ele>
        <time>2019-09-25T09:20:28Z</time>
      </trkpt>
      <trkpt lat="43.27618" lon="5.76681">
        <ele>448</ele>
        <time>2019-09-25T09:20:34Z</time>
      </trkpt>
      <trkpt lat="43.27618" lon="5.76688">
        <ele>449</ele>
        <time>2019-09-25T09:20:40Z</time>
      </trkpt>
      <trkpt lat="43.27619" lon="5.76695">
        <ele>450</ele>
        <time>2019-09-25T09:20:46Z</time>
      </trkpt>
      <trkpt lat="43.2762" lon="5.76702">
        <ele>449</ele>
        <time>2019-09-25T09:20:52Z</time>
      </trkpt>
      <trkpt lat="43.27621" lon="5.76709">
        <ele>452</ele>
        <time>2019-09-25T09:20:58Z</time>
      </trkpt>
      <trkpt lat="43.27623" lon="5.76715">
        <ele>455</ele>
        <time>2019-09-25T09:21:04Z</time>
      </trkpt>
      <trkpt lat="43.27625" lon="5.76721">
        <ele>455</ele>
        <time>2019-09-25T09:21:10Z</time>
      </trkpt>
      <trkpt lat="43.27628" lon="5.76726">
        <ele>455</ele>
        <time>2019-09-25T09:21:16Z</time>
      </trkpt>
      <trkpt lat="43.27628" lon="5.76734">
        <ele>458</ele>
        <time>2019-09-25T09:21:24Z</time>
      </trkpt>
      <trkpt lat="43.27629" lon="5.76741">
        <ele>460</ele>
        <time>2019-09-25T09:21:30Z</time>
      </trkpt>
      <trkpt lat="43.27629" lon="5.7675">
        <ele>460</ele>
        <time>2019-09-25T09:21:38Z</time>
      </trkpt>
      <trkpt lat="43.27631" lon="5.76757">
        <ele>459</ele>
        <time>2019-09-25T09:21:44Z</time>
      </trkpt>
      <trkpt lat="43.27633" lon="5.76764">
        <ele>460</ele>
        <time>2019-09-25T09:21:50Z</time>
      </trkpt>
      <trkpt lat="43.27634" lon="5.7677">
        <ele>461</ele>
        <time>2019-09-25T09:21:56Z</time>
      </trkpt>
      <trkpt lat="43.27636" lon="5.76777">
        <ele>460</ele>
        <time>2019-09-25T09:22:02Z</time>
      </trkpt>
      <trkpt lat="43.27637" lon="5.76783">
        <ele>460</ele>
        <time>2019-09-25T09:22:08Z</time>
      </trkpt>
      <trkpt lat="43.27639" lon="5.7679">
        <ele>462</ele>
        <time>2019-09-25T09:22:14Z</time>
      </trkpt>
      <trkpt lat="43.2764" lon="5.76797">
        <ele>463</ele>
        <time>2019-09-25T09:22:20Z</time>
      </trkpt>
      <trkpt lat="43.27641" lon="5.76803">
        <ele>461</ele>
        <time>2019-09-25T09:22:28Z</time>
      </trkpt>
      <trkpt lat="43.27644" lon="5.76811">
        <ele>462</ele>
        <time>2019-09-25T09:22:34Z</time>
      </trkpt>
      <trkpt lat="43.27646" lon="5.76818">
        <ele>458</ele>
        <time>2019-09-25T09:22:40Z</time>
      </trkpt>
      <trkpt lat="43.27648" lon="5.76824">
        <ele>457</ele>
        <time>2019-09-25T09:22:46Z</time>
      </trkpt>
      <trkpt lat="43.27651" lon="5.76831">
        <ele>455</ele>
        <time>2019-09-25T09:22:52Z</time>
      </trkpt>
      <trkpt lat="43.27653" lon="5.76839">
        <ele>454</ele>
        <time>2019-09-25T09:22:58Z</time>
      </trkpt>
      <trkpt lat="43.27656" lon="5.76845">
        <ele>454</ele>
        <time>2019-09-25T09:23:04Z</time>
      </trkpt>
      <trkpt lat="43.27661" lon="5.7685">
        <ele>456</ele>
        <time>2019-09-25T09:23:10Z</time>
      </trkpt>
      <trkpt lat="43.27665" lon="5.76856">
        <ele>458</ele>
        <time>2019-09-25T09:23:16Z</time>
      </trkpt>
      <trkpt lat="43.27668" lon="5.76861">
        <ele>460</ele>
        <time>2019-09-25T09:23:20Z</time>
      </trkpt>
      <trkpt lat="43.2767" lon="5.76867">
        <ele>460</ele>
        <time>2019-09-25T09:23:24Z</time>
      </trkpt>
      <trkpt lat="43.27673" lon="5.76873">
        <ele>458</ele>
        <time>2019-09-25T09:23:30Z</time>
      </trkpt>
      <trkpt lat="43.27675" lon="5.76881">
        <ele>458</ele>
        <time>2019-09-25T09:23:36Z</time>
      </trkpt>
      <trkpt lat="43.27676" lon="5.76889">
        <ele>461</ele>
        <time>2019-09-25T09:23:42Z</time>
      </trkpt>
      <trkpt lat="43.2768" lon="5.76894">
        <ele>463</ele>
        <time>2019-09-25T09:23:48Z</time>
      </trkpt>
      <trkpt lat="43.27684" lon="5.769">
        <ele>462</ele>
        <time>2019-09-25T09:23:54Z</time>
      </trkpt>
      <trkpt lat="43.27686" lon="5.76905">
        <ele>462</ele>
        <time>2019-09-25T09:24:00Z</time>
      </trkpt>
      <trkpt lat="43.2769" lon="5.76912">
        <ele>464</ele>
        <time>2019-09-25T09:24:06Z</time>
      </trkpt>
      <trkpt lat="43.27692" lon="5.76917">
        <ele>464</ele>
        <time>2019-09-25T09:24:10Z</time>
      </trkpt>
      <trkpt lat="43.27694" lon="5.76924">
        <ele>464</ele>
        <time>2019-09-25T09:24:16Z</time>
      </trkpt>
      <trkpt lat="43.27698" lon="5.76929">
        <ele>464</ele>
        <time>2019-09-25T09:24:22Z</time>
      </trkpt>
      <trkpt lat="43.27702" lon="5.76935">
        <ele>465</ele>
        <time>2019-09-25T09:24:28Z</time>
      </trkpt>
      <trkpt lat="43.27706" lon="5.76941">
        <ele>466</ele>
        <time>2019-09-25T09:24:34Z</time>
      </trkpt>
      <trkpt lat="43.2771" lon="5.76946">
        <ele>466</ele>
        <time>2019-09-25T09:24:40Z</time>
      </trkpt>
      <trkpt lat="43.27713" lon="5.76951">
        <ele>466</ele>
        <time>2019-09-25T09:24:46Z</time>
      </trkpt>
      <trkpt lat="43.27714" lon="5.76958">
        <ele>469</ele>
        <time>2019-09-25T09:24:52Z</time>
      </trkpt>
      <trkpt lat="43.27717" lon="5.76966">
        <ele>469</ele>
        <time>2019-09-25T09:24:58Z</time>
      </trkpt>
      <trkpt lat="43.27719" lon="5.76974">
        <ele>472</ele>
        <time>2019-09-25T09:25:04Z</time>
      </trkpt>
      <trkpt lat="43.27723" lon="5.76979">
        <ele>469</ele>
        <time>2019-09-25T09:25:10Z</time>
      </trkpt>
      <trkpt lat="43.27725" lon="5.76986">
        <ele>469</ele>
        <time>2019-09-25T09:25:16Z</time>
      </trkpt>
      <trkpt lat="43.27728" lon="5.76993">
        <ele>469</ele>
        <time>2019-09-25T09:25:22Z</time>
      </trkpt>
      <trkpt lat="43.2773" lon="5.77001">
        <ele>466</ele>
        <time>2019-09-25T09:25:28Z</time>
      </trkpt>
      <trkpt lat="43.27731" lon="5.77007">
        <ele>468</ele>
        <time>2019-09-25T09:25:34Z</time>
      </trkpt>
      <trkpt lat="43.2773" lon="5.77013">
        <ele>471</ele>
        <time>2019-09-25T09:25:54Z</time>
      </trkpt>
      <trkpt lat="43.27731" lon="5.77019">
        <ele>471</ele>
        <time>2019-09-25T09:26:02Z</time>
      </trkpt>
      <trkpt lat="43.27734" lon="5.77026">
        <ele>471</ele>
        <time>2019-09-25T09:29:28Z</time>
      </trkpt>
      <trkpt lat="43.27736" lon="5.77031">
        <ele>472</ele>
        <time>2019-09-25T09:29:32Z</time>
      </trkpt>
      <trkpt lat="43.27739" lon="5.77036">
        <ele>472</ele>
        <time>2019-09-25T09:29:36Z</time>
      </trkpt>
      <trkpt lat="43.27742" lon="5.77044">
        <ele>473</ele>
        <time>2019-09-25T09:29:42Z</time>
      </trkpt>
      <trkpt lat="43.27745" lon="5.77049">
        <ele>475</ele>
        <time>2019-09-25T09:29:48Z</time>
      </trkpt>
      <trkpt lat="43.27748" lon="5.77057">
        <ele>476</ele>
        <time>2019-09-25T09:29:54Z</time>
      </trkpt>
      <trkpt lat="43.2775" lon="5.77063">
        <ele>476</ele>
        <time>2019-09-25T09:29:58Z</time>
      </trkpt>
      <trkpt lat="43.27753" lon="5.77067">
        <ele>478</ele>
        <time>2019-09-25T09:30:02Z</time>
      </trkpt>
      <trkpt lat="43.27758" lon="5.77072">
        <ele>476</ele>
        <time>2019-09-25T09:30:08Z</time>
      </trkpt>
      <trkpt lat="43.27762" lon="5.77079">
        <ele>476</ele>
        <time>2019-09-25T09:30:14Z</time>
      </trkpt>
      <trkpt lat="43.27764" lon="5.77084">
        <ele>476</ele>
        <time>2019-09-25T09:30:18Z</time>
      </trkpt>
      <trkpt lat="43.27768" lon="5.77088">
        <ele>475</ele>
        <time>2019-09-25T09:30:24Z</time>
      </trkpt>
      <trkpt lat="43.27772" lon="5.77093">
        <ele>475</ele>
        <time>2019-09-25T09:30:30Z</time>
      </trkpt>
      <trkpt lat="43.27776" lon="5.77099">
        <ele>476</ele>
        <time>2019-09-25T09:30:36Z</time>
      </trkpt>
      <trkpt lat="43.27781" lon="5.77105">
        <ele>476</ele>
        <time>2019-09-25T09:30:42Z</time>
      </trkpt>
      <trkpt lat="43.27786" lon="5.7711">
        <ele>476</ele>
        <time>2019-09-25T09:30:48Z</time>
      </trkpt>
      <trkpt lat="43.27791" lon="5.77113">
        <ele>477</ele>
        <time>2019-09-25T09:30:54Z</time>
      </trkpt>
      <trkpt lat="43.27796" lon="5.77117">
        <ele>479</ele>
        <time>2019-09-25T09:31:00Z</time>
      </trkpt>
      <trkpt lat="43.27801" lon="5.77121">
        <ele>478</ele>
        <time>2019-09-25T09:31:06Z</time>
      </trkpt>
      <trkpt lat="43.27806" lon="5.77126">
        <ele>478</ele>
        <time>2019-09-25T09:31:12Z</time>
      </trkpt>
      <trkpt lat="43.2781" lon="5.77131">
        <ele>479</ele>
        <time>2019-09-25T09:31:18Z</time>
      </trkpt>
      <trkpt lat="43.27813" lon="5.77136">
        <ele>478</ele>
        <time>2019-09-25T09:31:22Z</time>
      </trkpt>
      <trkpt lat="43.27817" lon="5.77143">
        <ele>478</ele>
        <time>2019-09-25T09:31:28Z</time>
      </trkpt>
      <trkpt lat="43.27821" lon="5.77148">
        <ele>478</ele>
        <time>2019-09-25T09:31:32Z</time>
      </trkpt>
      <trkpt lat="43.27824" lon="5.77156">
        <ele>478</ele>
        <time>2019-09-25T09:31:38Z</time>
      </trkpt>
      <trkpt lat="43.27827" lon="5.77162">
        <ele>480</ele>
        <time>2019-09-25T09:31:42Z</time>
      </trkpt>
      <trkpt lat="43.2783" lon="5.77168">
        <ele>479</ele>
        <time>2019-09-25T09:31:46Z</time>
      </trkpt>
      <trkpt lat="43.27834" lon="5.77174">
        <ele>480</ele>
        <time>2019-09-25T09:31:50Z</time>
      </trkpt>
      <trkpt lat="43.27837" lon="5.77179">
        <ele>482</ele>
        <time>2019-09-25T09:31:54Z</time>
      </trkpt>
      <trkpt lat="43.27841" lon="5.77183">
        <ele>482</ele>
        <time>2019-09-25T09:31:58Z</time>
      </trkpt>
      <trkpt lat="43.27843" lon="5.77189">
        <ele>481</ele>
        <time>2019-09-25T09:32:02Z</time>
      </trkpt>
      <trkpt lat="43.27845" lon="5.77195">
        <ele>479</ele>
        <time>2019-09-25T09:32:06Z</time>
      </trkpt>
      <trkpt lat="43.27847" lon="5.77201">
        <ele>479</ele>
        <time>2019-09-25T09:32:10Z</time>
      </trkpt>
      <trkpt lat="43.2785" lon="5.77206">
        <ele>478</ele>
        <time>2019-09-25T09:32:14Z</time>
      </trkpt>
      <trkpt lat="43.27854" lon="5.7721">
        <ele>479</ele>
        <time>2019-09-25T09:32:18Z</time>
      </trkpt>
      <trkpt lat="43.27857" lon="5.77215">
        <ele>480</ele>
        <time>2019-09-25T09:32:22Z</time>
      </trkpt>
      <trkpt lat="43.27862" lon="5.77221">
        <ele>478</ele>
        <time>2019-09-25T09:32:28Z</time>
      </trkpt>
      <trkpt lat="43.27866" lon="5.77225">
        <ele>478</ele>
        <time>2019-09-25T09:32:32Z</time>
      </trkpt>
      <trkpt lat="43.2787" lon="5.77233">
        <ele>478</ele>
        <time>2019-09-25T09:32:38Z</time>
      </trkpt>
      <trkpt lat="43.27874" lon="5.77238">
        <ele>477</ele>
        <time>2019-09-25T09:32:44Z</time>
      </trkpt>
      <trkpt lat="43.27878" lon="5.77244">
        <ele>477</ele>
        <time>2019-09-25T09:32:48Z</time>
      </trkpt>
      <trkpt lat="43.27881" lon="5.77249">
        <ele>478</ele>
        <time>2019-09-25T09:32:52Z</time>
      </trkpt>
      <trkpt lat="43.27886" lon="5.77253">
        <ele>478</ele>
        <time>2019-09-25T09:32:58Z</time>
      </trkpt>
      <trkpt lat="43.2789" lon="5.7726">
        <ele>478</ele>
        <time>2019-09-25T09:33:04Z</time>
      </trkpt>
      <trkpt lat="43.27894" lon="5.77267">
        <ele>478</ele>
        <time>2019-09-25T09:33:10Z</time>
      </trkpt>
      <trkpt lat="43.27898" lon="5.77274">
        <ele>476</ele>
        <time>2019-09-25T09:33:16Z</time>
      </trkpt>
      <trkpt lat="43.27902" lon="5.77277">
        <ele>478</ele>
        <time>2019-09-25T09:33:20Z</time>
      </trkpt>
      <trkpt lat="43.27907" lon="5.77282">
        <ele>479</ele>
        <time>2019-09-25T09:33:26Z</time>
      </trkpt>
      <trkpt lat="43.2791" lon="5.77288">
        <ele>479</ele>
        <time>2019-09-25T09:33:30Z</time>
      </trkpt>
      <trkpt lat="43.27913" lon="5.77293">
        <ele>479</ele>
        <time>2019-09-25T09:33:34Z</time>
      </trkpt>
      <trkpt lat="43.27917" lon="5.773">
        <ele>480</ele>
        <time>2019-09-25T09:33:40Z</time>
      </trkpt>
      <trkpt lat="43.27922" lon="5.77306">
        <ele>480</ele>
        <time>2019-09-25T09:33:46Z</time>
      </trkpt>
      <trkpt lat="43.27926" lon="5.77311">
        <ele>480</ele>
        <time>2019-09-25T09:33:52Z</time>
      </trkpt>
      <trkpt lat="43.2793" lon="5.77316">
        <ele>480</ele>
        <time>2019-09-25T09:33:56Z</time>
      </trkpt>
      <trkpt lat="43.27936" lon="5.7732">
        <ele>482</ele>
        <time>2019-09-25T09:34:02Z</time>
      </trkpt>
      <trkpt lat="43.2794" lon="5.77324">
        <ele>482</ele>
        <time>2019-09-25T09:34:06Z</time>
      </trkpt>
      <trkpt lat="43.27945" lon="5.77328">
        <ele>483</ele>
        <time>2019-09-25T09:34:12Z</time>
      </trkpt>
      <trkpt lat="43.27948" lon="5.77333">
        <ele>483</ele>
        <time>2019-09-25T09:34:16Z</time>
      </trkpt>
      <trkpt lat="43.27954" lon="5.77338">
        <ele>482</ele>
        <time>2019-09-25T09:34:22Z</time>
      </trkpt>
      <trkpt lat="43.2796" lon="5.77343">
        <ele>482</ele>
        <time>2019-09-25T09:34:28Z</time>
      </trkpt>
      <trkpt lat="43.27964" lon="5.77346">
        <ele>482</ele>
        <time>2019-09-25T09:34:32Z</time>
      </trkpt>
      <trkpt lat="43.27967" lon="5.7735">
        <ele>483</ele>
        <time>2019-09-25T09:34:36Z</time>
      </trkpt>
      <trkpt lat="43.27971" lon="5.77355">
        <ele>483</ele>
        <time>2019-09-25T09:34:40Z</time>
      </trkpt>
      <trkpt lat="43.27975" lon="5.77359">
        <ele>484</ele>
        <time>2019-09-25T09:34:44Z</time>
      </trkpt>
      <trkpt lat="43.2798" lon="5.77366">
        <ele>484</ele>
        <time>2019-09-25T09:34:50Z</time>
      </trkpt>
      <trkpt lat="43.27984" lon="5.77372">
        <ele>485</ele>
        <time>2019-09-25T09:34:56Z</time>
      </trkpt>
      <trkpt lat="43.27988" lon="5.77375">
        <ele>485</ele>
        <time>2019-09-25T09:35:00Z</time>
      </trkpt>
      <trkpt lat="43.27992" lon="5.7738">
        <ele>485</ele>
        <time>2019-09-25T09:35:06Z</time>
      </trkpt>
      <trkpt lat="43.27995" lon="5.77385">
        <ele>484</ele>
        <time>2019-09-25T09:35:10Z</time>
      </trkpt>
      <trkpt lat="43.28" lon="5.77391">
        <ele>484</ele>
        <time>2019-09-25T09:35:16Z</time>
      </trkpt>
      <trkpt lat="43.28005" lon="5.77396">
        <ele>484</ele>
        <time>2019-09-25T09:35:22Z</time>
      </trkpt>
      <trkpt lat="43.2801" lon="5.77402">
        <ele>483</ele>
        <time>2019-09-25T09:35:28Z</time>
      </trkpt>
      <trkpt lat="43.28015" lon="5.77406">
        <ele>484</ele>
        <time>2019-09-25T09:35:34Z</time>
      </trkpt>
      <trkpt lat="43.28021" lon="5.77411">
        <ele>484</ele>
        <time>2019-09-25T09:35:40Z</time>
      </trkpt>
      <trkpt lat="43.28026" lon="5.77416">
        <ele>484</ele>
        <time>2019-09-25T09:35:46Z</time>
      </trkpt>
      <trkpt lat="43.28032" lon="5.77417">
        <ele>484</ele>
        <time>2019-09-25T09:35:52Z</time>
      </trkpt>
      <trkpt lat="43.28038" lon="5.77417">
        <ele>486</ele>
        <time>2019-09-25T09:35:58Z</time>
      </trkpt>
      <trkpt lat="43.28044" lon="5.77417">
        <ele>487</ele>
        <time>2019-09-25T09:36:04Z</time>
      </trkpt>
      <trkpt lat="43.2805" lon="5.77417">
        <ele>488</ele>
        <time>2019-09-25T09:36:10Z</time>
      </trkpt>
      <trkpt lat="43.28055" lon="5.77417">
        <ele>489</ele>
        <time>2019-09-25T09:36:14Z</time>
      </trkpt>
      <trkpt lat="43.28061" lon="5.77417">
        <ele>489</ele>
        <time>2019-09-25T09:36:20Z</time>
      </trkpt>
      <trkpt lat="43.28065" lon="5.77416">
        <ele>490</ele>
        <time>2019-09-25T09:36:24Z</time>
      </trkpt>
      <trkpt lat="43.28071" lon="5.77417">
        <ele>491</ele>
        <time>2019-09-25T09:36:30Z</time>
      </trkpt>
      <trkpt lat="43.28077" lon="5.77417">
        <ele>492</ele>
        <time>2019-09-25T09:36:36Z</time>
      </trkpt>
      <trkpt lat="43.28083" lon="5.77418">
        <ele>493</ele>
        <time>2019-09-25T09:36:42Z</time>
      </trkpt>
      <trkpt lat="43.28089" lon="5.7742">
        <ele>494</ele>
        <time>2019-09-25T09:36:48Z</time>
      </trkpt>
      <trkpt lat="43.28095" lon="5.77421">
        <ele>495</ele>
        <time>2019-09-25T09:36:54Z</time>
      </trkpt>
      <trkpt lat="43.28101" lon="5.77424">
        <ele>495</ele>
        <time>2019-09-25T09:37:00Z</time>
      </trkpt>
      <trkpt lat="43.28106" lon="5.77427">
        <ele>496</ele>
        <time>2019-09-25T09:37:06Z</time>
      </trkpt>
      <trkpt lat="43.28112" lon="5.7743">
        <ele>496</ele>
        <time>2019-09-25T09:37:12Z</time>
      </trkpt>
      <trkpt lat="43.28118" lon="5.77432">
        <ele>499</ele>
        <time>2019-09-25T09:37:18Z</time>
      </trkpt>
      <trkpt lat="43.28122" lon="5.77434">
        <ele>499</ele>
        <time>2019-09-25T09:37:22Z</time>
      </trkpt>
      <trkpt lat="43.28128" lon="5.77436">
        <ele>499</ele>
        <time>2019-09-25T09:37:28Z</time>
      </trkpt>
      <trkpt lat="43.28134" lon="5.77437">
        <ele>499</ele>
        <time>2019-09-25T09:37:34Z</time>
      </trkpt>
      <trkpt lat="43.28138" lon="5.7744">
        <ele>502</ele>
        <time>2019-09-25T09:39:06Z</time>
      </trkpt>
      <trkpt lat="43.28142" lon="5.77443">
        <ele>502</ele>
        <time>2019-09-25T09:39:16Z</time>
      </trkpt>
      <trkpt lat="43.28147" lon="5.7744">
        <ele>499</ele>
        <time>2019-09-25T09:40:06Z</time>
      </trkpt>
      <trkpt lat="43.28151" lon="5.77443">
        <ele>498</ele>
        <time>2019-09-25T09:40:12Z</time>
      </trkpt>
      <trkpt lat="43.28155" lon="5.77446">
        <ele>499</ele>
        <time>2019-09-25T09:40:18Z</time>
      </trkpt>
      <trkpt lat="43.2816" lon="5.77448">
        <ele>500</ele>
        <time>2019-09-25T09:40:28Z</time>
      </trkpt>
      <trkpt lat="43.28164" lon="5.77452">
        <ele>499</ele>
        <time>2019-09-25T09:40:36Z</time>
      </trkpt>
      <trkpt lat="43.28168" lon="5.77455">
        <ele>500</ele>
        <time>2019-09-25T09:40:42Z</time>
      </trkpt>
      <trkpt lat="43.28173" lon="5.77456">
        <ele>500</ele>
        <time>2019-09-25T09:40:54Z</time>
      </trkpt>
      <trkpt lat="43.28178" lon="5.77459">
        <ele>501</ele>
        <time>2019-09-25T09:41:00Z</time>
      </trkpt>
      <trkpt lat="43.28182" lon="5.77463">
        <ele>501</ele>
        <time>2019-09-25T09:41:06Z</time>
      </trkpt>
      <trkpt lat="43.28187" lon="5.77467">
        <ele>502</ele>
        <time>2019-09-25T09:41:12Z</time>
      </trkpt>
      <trkpt lat="43.28191" lon="5.77468">
        <ele>503</ele>
        <time>2019-09-25T09:41:18Z</time>
      </trkpt>
      <trkpt lat="43.28196" lon="5.7747">
        <ele>504</ele>
        <time>2019-09-25T09:41:24Z</time>
      </trkpt>
      <trkpt lat="43.28201" lon="5.77473">
        <ele>504</ele>
        <time>2019-09-25T09:41:30Z</time>
      </trkpt>
      <trkpt lat="43.28206" lon="5.77475">
        <ele>504</ele>
        <time>2019-09-25T09:41:36Z</time>
      </trkpt>
      <trkpt lat="43.28211" lon="5.77478">
        <ele>504</ele>
        <time>2019-09-25T09:41:42Z</time>
      </trkpt>
      <trkpt lat="43.28217" lon="5.77482">
        <ele>506</ele>
        <time>2019-09-25T09:41:48Z</time>
      </trkpt>
      <trkpt lat="43.28222" lon="5.77486">
        <ele>507</ele>
        <time>2019-09-25T09:41:54Z</time>
      </trkpt>
      <trkpt lat="43.28227" lon="5.77489">
        <ele>506</ele>
        <time>2019-09-25T09:42:00Z</time>
      </trkpt>
      <trkpt lat="43.28232" lon="5.77491">
        <ele>506</ele>
        <time>2019-09-25T09:42:06Z</time>
      </trkpt>
      <trkpt lat="43.28237" lon="5.77493">
        <ele>505</ele>
        <time>2019-09-25T09:42:12Z</time>
      </trkpt>
      <trkpt lat="43.28242" lon="5.77495">
        <ele>506</ele>
        <time>2019-09-25T09:42:18Z</time>
      </trkpt>
      <trkpt lat="43.28247" lon="5.77498">
        <ele>506</ele>
        <time>2019-09-25T09:42:24Z</time>
      </trkpt>
      <trkpt lat="43.28253" lon="5.77501">
        <ele>507</ele>
        <time>2019-09-25T09:42:30Z</time>
      </trkpt>
      <trkpt lat="43.28258" lon="5.77505">
        <ele>509</ele>
        <time>2019-09-25T09:42:36Z</time>
      </trkpt>
      <trkpt lat="43.28262" lon="5.77509">
        <ele>510</ele>
        <time>2019-09-25T09:42:42Z</time>
      </trkpt>
      <trkpt lat="43.28267" lon="5.77512">
        <ele>510</ele>
        <time>2019-09-25T09:42:48Z</time>
      </trkpt>
      <trkpt lat="43.28273" lon="5.77514">
        <ele>510</ele>
        <time>2019-09-25T09:42:54Z</time>
      </trkpt>
      <trkpt lat="43.2828" lon="5.77515">
        <ele>510</ele>
        <time>2019-09-25T09:43:00Z</time>
      </trkpt>
      <trkpt lat="43.28286" lon="5.77513">
        <ele>510</ele>
        <time>2019-09-25T09:43:06Z</time>
      </trkpt>
      <trkpt lat="43.28291" lon="5.77512">
        <ele>510</ele>
        <time>2019-09-25T09:43:12Z</time>
      </trkpt>
      <trkpt lat="43.28296" lon="5.77512">
        <ele>512</ele>
        <time>2019-09-25T09:43:18Z</time>
      </trkpt>
      <trkpt lat="43.28301" lon="5.77512">
        <ele>512</ele>
        <time>2019-09-25T09:43:24Z</time>
      </trkpt>
      <trkpt lat="43.28306" lon="5.77512">
        <ele>512</ele>
        <time>2019-09-25T09:43:30Z</time>
      </trkpt>
      <trkpt lat="43.28311" lon="5.77513">
        <ele>513</ele>
        <time>2019-09-25T09:43:36Z</time>
      </trkpt>
      <trkpt lat="43.28317" lon="5.77514">
        <ele>515</ele>
        <time>2019-09-25T09:43:42Z</time>
      </trkpt>
      <trkpt lat="43.28322" lon="5.77515">
        <ele>514</ele>
        <time>2019-09-25T09:43:48Z</time>
      </trkpt>
      <trkpt lat="43.28327" lon="5.77517">
        <ele>516</ele>
        <time>2019-09-25T09:43:54Z</time>
      </trkpt>
      <trkpt lat="43.28333" lon="5.77518">
        <ele>515</ele>
        <time>2019-09-25T09:44:00Z</time>
      </trkpt>
      <trkpt lat="43.28337" lon="5.77521">
        <ele>516</ele>
        <time>2019-09-25T09:44:06Z</time>
      </trkpt>
      <trkpt lat="43.28342" lon="5.77524">
        <ele>517</ele>
        <time>2019-09-25T09:44:12Z</time>
      </trkpt>
      <trkpt lat="43.28346" lon="5.77527">
        <ele>518</ele>
        <time>2019-09-25T09:44:18Z</time>
      </trkpt>
      <trkpt lat="43.28351" lon="5.77529">
        <ele>519</ele>
        <time>2019-09-25T09:44:24Z</time>
      </trkpt>
      <trkpt lat="43.28356" lon="5.77531">
        <ele>520</ele>
        <time>2019-09-25T09:44:30Z</time>
      </trkpt>
      <trkpt lat="43.28361" lon="5.77531">
        <ele>520</ele>
        <time>2019-09-25T09:44:36Z</time>
      </trkpt>
      <trkpt lat="43.28366" lon="5.77532">
        <ele>520</ele>
        <time>2019-09-25T09:44:42Z</time>
      </trkpt>
      <trkpt lat="43.28371" lon="5.77531">
        <ele>521</ele>
        <time>2019-09-25T09:44:48Z</time>
      </trkpt>
      <trkpt lat="43.28377" lon="5.77531">
        <ele>523</ele>
        <time>2019-09-25T09:44:54Z</time>
      </trkpt>
      <trkpt lat="43.28383" lon="5.7753">
        <ele>523</ele>
        <time>2019-09-25T09:45:00Z</time>
      </trkpt>
      <trkpt lat="43.28389" lon="5.77529">
        <ele>524</ele>
        <time>2019-09-25T09:45:06Z</time>
      </trkpt>
      <trkpt lat="43.28394" lon="5.77529">
        <ele>524</ele>
        <time>2019-09-25T09:45:10Z</time>
      </trkpt>
      <trkpt lat="43.28399" lon="5.77529">
        <ele>524</ele>
        <time>2019-09-25T09:45:14Z</time>
      </trkpt>
      <trkpt lat="43.28406" lon="5.7753">
        <ele>525</ele>
        <time>2019-09-25T09:45:20Z</time>
      </trkpt>
      <trkpt lat="43.2841" lon="5.77531">
        <ele>525</ele>
        <time>2019-09-25T09:45:24Z</time>
      </trkpt>
      <trkpt lat="43.28415" lon="5.77532">
        <ele>525</ele>
        <time>2019-09-25T09:45:28Z</time>
      </trkpt>
      <trkpt lat="43.28421" lon="5.77534">
        <ele>525</ele>
        <time>2019-09-25T09:45:34Z</time>
      </trkpt>
      <trkpt lat="43.28427" lon="5.77537">
        <ele>526</ele>
        <time>2019-09-25T09:45:40Z</time>
      </trkpt>
      <trkpt lat="43.28432" lon="5.77541">
        <ele>526</ele>
        <time>2019-09-25T09:45:46Z</time>
      </trkpt>
      <trkpt lat="43.28438" lon="5.77545">
        <ele>527</ele>
        <time>2019-09-25T09:45:52Z</time>
      </trkpt>
      <trkpt lat="43.28443" lon="5.7755">
        <ele>528</ele>
        <time>2019-09-25T09:45:58Z</time>
      </trkpt>
      <trkpt lat="43.28448" lon="5.77555">
        <ele>529</ele>
        <time>2019-09-25T09:46:04Z</time>
      </trkpt>
      <trkpt lat="43.28451" lon="5.77559">
        <ele>528</ele>
        <time>2019-09-25T09:46:08Z</time>
      </trkpt>
      <trkpt lat="43.28456" lon="5.77564">
        <ele>529</ele>
        <time>2019-09-25T09:46:14Z</time>
      </trkpt>
      <trkpt lat="43.28461" lon="5.7757">
        <ele>529</ele>
        <time>2019-09-25T09:46:20Z</time>
      </trkpt>
      <trkpt lat="43.28465" lon="5.77575">
        <ele>530</ele>
        <time>2019-09-25T09:46:26Z</time>
      </trkpt>
      <trkpt lat="43.2847" lon="5.77579">
        <ele>532</ele>
        <time>2019-09-25T09:46:32Z</time>
      </trkpt>
      <trkpt lat="43.28475" lon="5.77581">
        <ele>533</ele>
        <time>2019-09-25T09:46:38Z</time>
      </trkpt>
      <trkpt lat="43.28479" lon="5.77583">
        <ele>533</ele>
        <time>2019-09-25T09:46:44Z</time>
      </trkpt>
      <trkpt lat="43.28484" lon="5.77584">
        <ele>534</ele>
        <time>2019-09-25T09:46:50Z</time>
      </trkpt>
      <trkpt lat="43.28489" lon="5.77583">
        <ele>535</ele>
        <time>2019-09-25T09:46:56Z</time>
      </trkpt>
      <trkpt lat="43.28494" lon="5.77583">
        <ele>536</ele>
        <time>2019-09-25T09:47:02Z</time>
      </trkpt>
      <trkpt lat="43.28499" lon="5.7758">
        <ele>538</ele>
        <time>2019-09-25T09:47:08Z</time>
      </trkpt>
      <trkpt lat="43.28503" lon="5.77575">
        <ele>539</ele>
        <time>2019-09-25T09:47:14Z</time>
      </trkpt>
      <trkpt lat="43.28508" lon="5.77572">
        <ele>540</ele>
        <time>2019-09-25T09:47:20Z</time>
      </trkpt>
      <trkpt lat="43.28513" lon="5.7757">
        <ele>540</ele>
        <time>2019-09-25T09:47:26Z</time>
      </trkpt>
      <trkpt lat="43.28518" lon="5.77569">
        <ele>540</ele>
        <time>2019-09-25T09:47:32Z</time>
      </trkpt>
      <trkpt lat="43.28522" lon="5.77566">
        <ele>540</ele>
        <time>2019-09-25T09:47:36Z</time>
      </trkpt>
      <trkpt lat="43.28528" lon="5.77564">
        <ele>541</ele>
        <time>2019-09-25T09:47:42Z</time>
      </trkpt>
      <trkpt lat="43.28535" lon="5.77563">
        <ele>543</ele>
        <time>2019-09-25T09:47:48Z</time>
      </trkpt>
      <trkpt lat="43.28539" lon="5.77563">
        <ele>544</ele>
        <time>2019-09-25T09:47:52Z</time>
      </trkpt>
      <trkpt lat="43.28545" lon="5.77563">
        <ele>545</ele>
        <time>2019-09-25T09:47:58Z</time>
      </trkpt>
      <trkpt lat="43.28551" lon="5.77564">
        <ele>544</ele>
        <time>2019-09-25T09:48:04Z</time>
      </trkpt>
      <trkpt lat="43.28556" lon="5.77563">
        <ele>544</ele>
        <time>2019-09-25T09:48:08Z</time>
      </trkpt>
      <trkpt lat="43.28561" lon="5.77562">
        <ele>545</ele>
        <time>2019-09-25T09:48:14Z</time>
      </trkpt>
      <trkpt lat="43.28565" lon="5.7756">
        <ele>545</ele>
        <time>2019-09-25T09:48:20Z</time>
      </trkpt>
      <trkpt lat="43.28571" lon="5.77561">
        <ele>545</ele>
        <time>2019-09-25T09:48:26Z</time>
      </trkpt>
      <trkpt lat="43.28577" lon="5.77563">
        <ele>546</ele>
        <time>2019-09-25T09:48:32Z</time>
      </trkpt>
      <trkpt lat="43.28582" lon="5.77564">
        <ele>547</ele>
        <time>2019-09-25T09:48:38Z</time>
      </trkpt>
      <trkpt lat="43.28588" lon="5.77564">
        <ele>549</ele>
        <time>2019-09-25T09:48:44Z</time>
      </trkpt>
      <trkpt lat="43.28593" lon="5.77564">
        <ele>549</ele>
        <time>2019-09-25T09:48:50Z</time>
      </trkpt>
      <trkpt lat="43.28599" lon="5.77563">
        <ele>551</ele>
        <time>2019-09-25T09:48:56Z</time>
      </trkpt>
      <trkpt lat="43.28605" lon="5.77561">
        <ele>552</ele>
        <time>2019-09-25T09:49:02Z</time>
      </trkpt>
      <trkpt lat="43.28611" lon="5.77559">
        <ele>552</ele>
        <time>2019-09-25T09:49:08Z</time>
      </trkpt>
      <trkpt lat="43.28617" lon="5.77557">
        <ele>553</ele>
        <time>2019-09-25T09:49:14Z</time>
      </trkpt>
      <trkpt lat="43.28622" lon="5.77553">
        <ele>552</ele>
        <time>2019-09-25T09:49:20Z</time>
      </trkpt>
      <trkpt lat="43.28627" lon="5.7755">
        <ele>551</ele>
        <time>2019-09-25T09:49:26Z</time>
      </trkpt>
      <trkpt lat="43.28633" lon="5.77547">
        <ele>551</ele>
        <time>2019-09-25T09:49:32Z</time>
      </trkpt>
      <trkpt lat="43.28639" lon="5.77542">
        <ele>551</ele>
        <time>2019-09-25T09:49:38Z</time>
      </trkpt>
      <trkpt lat="43.28643" lon="5.77539">
        <ele>551</ele>
        <time>2019-09-25T09:49:42Z</time>
      </trkpt>
      <trkpt lat="43.28649" lon="5.77535">
        <ele>549</ele>
        <time>2019-09-25T09:49:48Z</time>
      </trkpt>
      <trkpt lat="43.28653" lon="5.77531">
        <ele>549</ele>
        <time>2019-09-25T09:49:52Z</time>
      </trkpt>
      <trkpt lat="43.28656" lon="5.77527">
        <ele>550</ele>
        <time>2019-09-25T09:49:56Z</time>
      </trkpt>
      <trkpt lat="43.28661" lon="5.77522">
        <ele>552</ele>
        <time>2019-09-25T09:50:02Z</time>
      </trkpt>
      <trkpt lat="43.28666" lon="5.77518">
        <ele>552</ele>
        <time>2019-09-25T09:50:08Z</time>
      </trkpt>
      <trkpt lat="43.28671" lon="5.77512">
        <ele>553</ele>
        <time>2019-09-25T09:50:14Z</time>
      </trkpt>
      <trkpt lat="43.28675" lon="5.77508">
        <ele>554</ele>
        <time>2019-09-25T09:50:18Z</time>
      </trkpt>
      <trkpt lat="43.2868" lon="5.77503">
        <ele>555</ele>
        <time>2019-09-25T09:50:24Z</time>
      </trkpt>
      <trkpt lat="43.28685" lon="5.77497">
        <ele>557</ele>
        <time>2019-09-25T09:50:30Z</time>
      </trkpt>
      <trkpt lat="43.28689" lon="5.77492">
        <ele>558</ele>
        <time>2019-09-25T09:50:36Z</time>
      </trkpt>
      <trkpt lat="43.28693" lon="5.77487">
        <ele>559</ele>
        <time>2019-09-25T09:50:42Z</time>
      </trkpt>
      <trkpt lat="43.28699" lon="5.77483">
        <ele>560</ele>
        <time>2019-09-25T09:50:48Z</time>
      </trkpt>
      <trkpt lat="43.28704" lon="5.77479">
        <ele>558</ele>
        <time>2019-09-25T09:50:54Z</time>
      </trkpt>
      <trkpt lat="43.28708" lon="5.77475">
        <ele>558</ele>
        <time>2019-09-25T09:50:58Z</time>
      </trkpt>
      <trkpt lat="43.28714" lon="5.7747">
        <ele>559</ele>
        <time>2019-09-25T09:51:04Z</time>
      </trkpt>
      <trkpt lat="43.28717" lon="5.77466">
        <ele>559</ele>
        <time>2019-09-25T09:51:08Z</time>
      </trkpt>
      <trkpt lat="43.28721" lon="5.77462">
        <ele>559</ele>
        <time>2019-09-25T09:51:12Z</time>
      </trkpt>
      <trkpt lat="43.28725" lon="5.77458">
        <ele>559</ele>
        <time>2019-09-25T09:51:16Z</time>
      </trkpt>
      <trkpt lat="43.28728" lon="5.77454">
        <ele>561</ele>
        <time>2019-09-25T09:51:20Z</time>
      </trkpt>
      <trkpt lat="43.28731" lon="5.77448">
        <ele>560</ele>
        <time>2019-09-25T09:51:24Z</time>
      </trkpt>
      <trkpt lat="43.28733" lon="5.77443">
        <ele>560</ele>
        <time>2019-09-25T09:51:28Z</time>
      </trkpt>
      <trkpt lat="43.28734" lon="5.77436">
        <ele>561</ele>
        <time>2019-09-25T09:51:32Z</time>
      </trkpt>
      <trkpt lat="43.28737" lon="5.77429">
        <ele>561</ele>
        <time>2019-09-25T09:51:38Z</time>
      </trkpt>
      <trkpt lat="43.28738" lon="5.77421">
        <ele>561</ele>
        <time>2019-09-25T09:51:44Z</time>
      </trkpt>
      <trkpt lat="43.28739" lon="5.77415">
        <ele>560</ele>
        <time>2019-09-25T09:51:48Z</time>
      </trkpt>
      <trkpt lat="43.2874" lon="5.77408">
        <ele>560</ele>
        <time>2019-09-25T09:51:52Z</time>
      </trkpt>
      <trkpt lat="43.2874" lon="5.77402">
        <ele>559</ele>
        <time>2019-09-25T09:51:56Z</time>
      </trkpt>
      <trkpt lat="43.2874" lon="5.77395">
        <ele>559</ele>
        <time>2019-09-25T09:52:00Z</time>
      </trkpt>
      <trkpt lat="43.28742" lon="5.77387">
        <ele>559</ele>
        <time>2019-09-25T09:52:06Z</time>
      </trkpt>
      <trkpt lat="43.28743" lon="5.77381">
        <ele>559</ele>
        <time>2019-09-25T09:52:10Z</time>
      </trkpt>
      <trkpt lat="43.28745" lon="5.77375">
        <ele>559</ele>
        <time>2019-09-25T09:52:14Z</time>
      </trkpt>
      <trkpt lat="43.28748" lon="5.77369">
        <ele>558</ele>
        <time>2019-09-25T09:52:20Z</time>
      </trkpt>
      <trkpt lat="43.28753" lon="5.77365">
        <ele>560</ele>
        <time>2019-09-25T09:52:28Z</time>
      </trkpt>
      <trkpt lat="43.28757" lon="5.77362">
        <ele>559</ele>
        <time>2019-09-25T09:52:32Z</time>
      </trkpt>
      <trkpt lat="43.28762" lon="5.77358">
        <ele>559</ele>
        <time>2019-09-25T09:52:36Z</time>
      </trkpt>
      <trkpt lat="43.28767" lon="5.77353">
        <ele>557</ele>
        <time>2019-09-25T09:52:42Z</time>
      </trkpt>
      <trkpt lat="43.28771" lon="5.77349">
        <ele>559</ele>
        <time>2019-09-25T09:52:46Z</time>
      </trkpt>
      <trkpt lat="43.28775" lon="5.77345">
        <ele>558</ele>
        <time>2019-09-25T09:52:50Z</time>
      </trkpt>
      <trkpt lat="43.28779" lon="5.77342">
        <ele>557</ele>
        <time>2019-09-25T09:52:54Z</time>
      </trkpt>
      <trkpt lat="43.28784" lon="5.77337">
        <ele>558</ele>
        <time>2019-09-25T09:53:00Z</time>
      </trkpt>
      <trkpt lat="43.28788" lon="5.77333">
        <ele>559</ele>
        <time>2019-09-25T09:53:06Z</time>
      </trkpt>
      <trkpt lat="43.28795" lon="5.7733">
        <ele>559</ele>
        <time>2019-09-25T09:53:12Z</time>
      </trkpt>
      <trkpt lat="43.28801" lon="5.77328">
        <ele>561</ele>
        <time>2019-09-25T09:53:18Z</time>
      </trkpt>
      <trkpt lat="43.28807" lon="5.77325">
        <ele>561</ele>
        <time>2019-09-25T09:53:24Z</time>
      </trkpt>
      <trkpt lat="43.28811" lon="5.77321">
        <ele>561</ele>
        <time>2019-09-25T09:53:28Z</time>
      </trkpt>
      <trkpt lat="43.28814" lon="5.77317">
        <ele>561</ele>
        <time>2019-09-25T09:53:32Z</time>
      </trkpt>
      <trkpt lat="43.28818" lon="5.77312">
        <ele>562</ele>
        <time>2019-09-25T09:53:36Z</time>
      </trkpt>
      <trkpt lat="43.28821" lon="5.77307">
        <ele>563</ele>
        <time>2019-09-25T09:53:40Z</time>
      </trkpt>
      <trkpt lat="43.28828" lon="5.77304">
        <ele>561</ele>
        <time>2019-09-25T09:53:46Z</time>
      </trkpt>
      <trkpt lat="43.28833" lon="5.77305">
        <ele>560</ele>
        <time>2019-09-25T09:54:02Z</time>
      </trkpt>
      <trkpt lat="43.28834" lon="5.7731">
        <ele>556</ele>
        <time>2019-09-25T09:55:20Z</time>
      </trkpt>
      <trkpt lat="43.28831" lon="5.77305">
        <ele>558</ele>
        <time>2019-09-25T10:00:26Z</time>
      </trkpt>
      <trkpt lat="43.28836" lon="5.77302">
        <ele>564</ele>
        <time>2019-09-25T10:06:38Z</time>
      </trkpt>
      <trkpt lat="43.28834" lon="5.77294">
        <ele>563</ele>
        <time>2019-09-25T10:06:44Z</time>
      </trkpt>
      <trkpt lat="43.28832" lon="5.77285">
        <ele>563</ele>
        <time>2019-09-25T10:06:50Z</time>
      </trkpt>
      <trkpt lat="43.28831" lon="5.77277">
        <ele>562</ele>
        <time>2019-09-25T10:06:56Z</time>
      </trkpt>
      <trkpt lat="43.28829" lon="5.77269">
        <ele>561</ele>
        <time>2019-09-25T10:07:02Z</time>
      </trkpt>
      <trkpt lat="43.28828" lon="5.77261">
        <ele>560</ele>
        <time>2019-09-25T10:07:08Z</time>
      </trkpt>
      <trkpt lat="43.28828" lon="5.77253">
        <ele>560</ele>
        <time>2019-09-25T10:07:14Z</time>
      </trkpt>
      <trkpt lat="43.28829" lon="5.77245">
        <ele>561</ele>
        <time>2019-09-25T10:07:20Z</time>
      </trkpt>
      <trkpt lat="43.28833" lon="5.77238">
        <ele>562</ele>
        <time>2019-09-25T10:07:26Z</time>
      </trkpt>
      <trkpt lat="43.28834" lon="5.77232">
        <ele>561</ele>
        <time>2019-09-25T10:07:32Z</time>
      </trkpt>
      <trkpt lat="43.28831" lon="5.77227">
        <ele>560</ele>
        <time>2019-09-25T10:08:00Z</time>
      </trkpt>
      <trkpt lat="43.2883" lon="5.7722">
        <ele>560</ele>
        <time>2019-09-25T10:08:20Z</time>
      </trkpt>
      <trkpt lat="43.28832" lon="5.77211">
        <ele>562</ele>
        <time>2019-09-25T10:08:26Z</time>
      </trkpt>
      <trkpt lat="43.28837" lon="5.77205">
        <ele>560</ele>
        <time>2019-09-25T10:08:32Z</time>
      </trkpt>
      <trkpt lat="43.28841" lon="5.772">
        <ele>560</ele>
        <time>2019-09-25T10:08:38Z</time>
      </trkpt>
      <trkpt lat="43.28842" lon="5.77193">
        <ele>559</ele>
        <time>2019-09-25T10:08:44Z</time>
      </trkpt>
      <trkpt lat="43.28842" lon="5.77187">
        <ele>558</ele>
        <time>2019-09-25T10:08:48Z</time>
      </trkpt>
      <trkpt lat="43.28842" lon="5.7718">
        <ele>559</ele>
        <time>2019-09-25T10:08:52Z</time>
      </trkpt>
      <trkpt lat="43.28844" lon="5.77172">
        <ele>557</ele>
        <time>2019-09-25T10:08:58Z</time>
      </trkpt>
      <trkpt lat="43.28847" lon="5.77165">
        <ele>555</ele>
        <time>2019-09-25T10:09:04Z</time>
      </trkpt>
      <trkpt lat="43.28849" lon="5.77158">
        <ele>556</ele>
        <time>2019-09-25T10:09:12Z</time>
      </trkpt>
      <trkpt lat="43.28853" lon="5.77152">
        <ele>554</ele>
        <time>2019-09-25T10:09:16Z</time>
      </trkpt>
      <trkpt lat="43.28856" lon="5.77147">
        <ele>553</ele>
        <time>2019-09-25T10:09:20Z</time>
      </trkpt>
      <trkpt lat="43.28857" lon="5.77138">
        <ele>553</ele>
        <time>2019-09-25T10:09:26Z</time>
      </trkpt>
      <trkpt lat="43.28859" lon="5.77129">
        <ele>551</ele>
        <time>2019-09-25T10:09:32Z</time>
      </trkpt>
      <trkpt lat="43.28862" lon="5.77122">
        <ele>550</ele>
        <time>2019-09-25T10:09:38Z</time>
      </trkpt>
      <trkpt lat="43.28865" lon="5.77115">
        <ele>549</ele>
        <time>2019-09-25T10:09:44Z</time>
      </trkpt>
      <trkpt lat="43.28867" lon="5.77107">
        <ele>550</ele>
        <time>2019-09-25T10:09:50Z</time>
      </trkpt>
      <trkpt lat="43.28866" lon="5.77099">
        <ele>547</ele>
        <time>2019-09-25T10:09:56Z</time>
      </trkpt>
      <trkpt lat="43.28865" lon="5.77093">
        <ele>547</ele>
        <time>2019-09-25T10:10:00Z</time>
      </trkpt>
      <trkpt lat="43.28862" lon="5.77087">
        <ele>547</ele>
        <time>2019-09-25T10:10:04Z</time>
      </trkpt>
      <trkpt lat="43.28861" lon="5.77081">
        <ele>547</ele>
        <time>2019-09-25T10:10:08Z</time>
      </trkpt>
      <trkpt lat="43.28859" lon="5.77075">
        <ele>547</ele>
        <time>2019-09-25T10:10:14Z</time>
      </trkpt>
      <trkpt lat="43.28858" lon="5.77068">
        <ele>545</ele>
        <time>2019-09-25T10:10:20Z</time>
      </trkpt>
      <trkpt lat="43.28857" lon="5.7706">
        <ele>545</ele>
        <time>2019-09-25T10:10:26Z</time>
      </trkpt>
      <trkpt lat="43.28857" lon="5.77052">
        <ele>544</ele>
        <time>2019-09-25T10:10:32Z</time>
      </trkpt>
      <trkpt lat="43.28855" lon="5.77046">
        <ele>543</ele>
        <time>2019-09-25T10:10:36Z</time>
      </trkpt>
      <trkpt lat="43.28852" lon="5.77039">
        <ele>541</ele>
        <time>2019-09-25T10:10:42Z</time>
      </trkpt>
      <trkpt lat="43.28849" lon="5.77033">
        <ele>542</ele>
        <time>2019-09-25T10:10:46Z</time>
      </trkpt>
      <trkpt lat="43.28848" lon="5.77027">
        <ele>541</ele>
        <time>2019-09-25T10:10:50Z</time>
      </trkpt>
      <trkpt lat="43.28845" lon="5.77018">
        <ele>542</ele>
        <time>2019-09-25T10:10:56Z</time>
      </trkpt>
      <trkpt lat="43.28842" lon="5.77011">
        <ele>541</ele>
        <time>2019-09-25T10:11:02Z</time>
      </trkpt>
      <trkpt lat="43.28838" lon="5.77004">
        <ele>541</ele>
        <time>2019-09-25T10:11:08Z</time>
      </trkpt>
      <trkpt lat="43.28833" lon="5.77">
        <ele>540</ele>
        <time>2019-09-25T10:11:12Z</time>
      </trkpt>
      <trkpt lat="43.2883" lon="5.76995">
        <ele>542</ele>
        <time>2019-09-25T10:11:22Z</time>
      </trkpt>
      <trkpt lat="43.2883" lon="5.76987">
        <ele>542</ele>
        <time>2019-09-25T10:11:28Z</time>
      </trkpt>
      <trkpt lat="43.2883" lon="5.7698">
        <ele>543</ele>
        <time>2019-09-25T10:11:34Z</time>
      </trkpt>
      <trkpt lat="43.2883" lon="5.76972">
        <ele>543</ele>
        <time>2019-09-25T10:11:40Z</time>
      </trkpt>
      <trkpt lat="43.28831" lon="5.76965">
        <ele>541</ele>
        <time>2019-09-25T10:11:46Z</time>
      </trkpt>
      <trkpt lat="43.28829" lon="5.76959">
        <ele>541</ele>
        <time>2019-09-25T10:12:06Z</time>
      </trkpt>
      <trkpt lat="43.28829" lon="5.76953">
        <ele>543</ele>
        <time>2019-09-25T10:12:36Z</time>
      </trkpt>
      <trkpt lat="43.2883" lon="5.76946">
        <ele>542</ele>
        <time>2019-09-25T10:12:42Z</time>
      </trkpt>
      <trkpt lat="43.28828" lon="5.76939">
        <ele>542</ele>
        <time>2019-09-25T10:12:48Z</time>
      </trkpt>
      <trkpt lat="43.28826" lon="5.76933">
        <ele>543</ele>
        <time>2019-09-25T10:12:54Z</time>
      </trkpt>
      <trkpt lat="43.28823" lon="5.76926">
        <ele>545</ele>
        <time>2019-09-25T10:13:00Z</time>
      </trkpt>
      <trkpt lat="43.28823" lon="5.7692">
        <ele>546</ele>
        <time>2019-09-25T10:13:06Z</time>
      </trkpt>
      <trkpt lat="43.2882" lon="5.76915">
        <ele>546</ele>
        <time>2019-09-25T10:13:50Z</time>
      </trkpt>
      <trkpt lat="43.28815" lon="5.76911">
        <ele>548</ele>
        <time>2019-09-25T10:14:10Z</time>
      </trkpt>
      <trkpt lat="43.28811" lon="5.7691">
        <ele>548</ele>
        <time>2019-09-25T10:14:16Z</time>
      </trkpt>
      <trkpt lat="43.28807" lon="5.76905">
        <ele>547</ele>
        <time>2019-09-25T10:14:46Z</time>
      </trkpt>
      <trkpt lat="43.2881" lon="5.769">
        <ele>545</ele>
        <time>2019-09-25T10:15:22Z</time>
      </trkpt>
      <trkpt lat="43.28809" lon="5.76892">
        <ele>546</ele>
        <time>2019-09-25T10:15:28Z</time>
      </trkpt>
      <trkpt lat="43.28804" lon="5.76885">
        <ele>546</ele>
        <time>2019-09-25T10:15:34Z</time>
      </trkpt>
      <trkpt lat="43.28808" lon="5.76891">
        <ele>545</ele>
        <time>2019-09-25T10:15:50Z</time>
      </trkpt>
      <trkpt lat="43.28809" lon="5.769">
        <ele>547</ele>
        <time>2019-09-25T10:15:56Z</time>
      </trkpt>
      <trkpt lat="43.2881" lon="5.76906">
        <ele>544</ele>
        <time>2019-09-25T10:16:08Z</time>
      </trkpt>
      <trkpt lat="43.28813" lon="5.76912">
        <ele>544</ele>
        <time>2019-09-25T10:16:14Z</time>
      </trkpt>
      <trkpt lat="43.28817" lon="5.76918">
        <ele>544</ele>
        <time>2019-09-25T10:16:20Z</time>
      </trkpt>
      <trkpt lat="43.28822" lon="5.76923">
        <ele>543</ele>
        <time>2019-09-25T10:16:26Z</time>
      </trkpt>
      <trkpt lat="43.28824" lon="5.76928">
        <ele>544</ele>
        <time>2019-09-25T10:16:32Z</time>
      </trkpt>
      <trkpt lat="43.28827" lon="5.76935">
        <ele>544</ele>
        <time>2019-09-25T10:16:40Z</time>
      </trkpt>
      <trkpt lat="43.28829" lon="5.76942">
        <ele>543</ele>
        <time>2019-09-25T10:16:46Z</time>
      </trkpt>
      <trkpt lat="43.28829" lon="5.76949">
        <ele>542</ele>
        <time>2019-09-25T10:16:52Z</time>
      </trkpt>
      <trkpt lat="43.2883" lon="5.76955">
        <ele>541</ele>
        <time>2019-09-25T10:16:58Z</time>
      </trkpt>
      <trkpt lat="43.28829" lon="5.76963">
        <ele>541</ele>
        <time>2019-09-25T10:17:06Z</time>
      </trkpt>
      <trkpt lat="43.28827" lon="5.76969">
        <ele>543</ele>
        <time>2019-09-25T10:17:12Z</time>
      </trkpt>
      <trkpt lat="43.28827" lon="5.76975">
        <ele>544</ele>
        <time>2019-09-25T10:17:18Z</time>
      </trkpt>
      <trkpt lat="43.28828" lon="5.76981">
        <ele>546</ele>
        <time>2019-09-25T10:17:24Z</time>
      </trkpt>
      <trkpt lat="43.28829" lon="5.76988">
        <ele>545</ele>
        <time>2019-09-25T10:17:30Z</time>
      </trkpt>
      <trkpt lat="43.2883" lon="5.76996">
        <ele>545</ele>
        <time>2019-09-25T10:17:36Z</time>
      </trkpt>
      <trkpt lat="43.28834" lon="5.77002">
        <ele>545</ele>
        <time>2019-09-25T10:17:42Z</time>
      </trkpt>
      <trkpt lat="43.28838" lon="5.77007">
        <ele>545</ele>
        <time>2019-09-25T10:17:46Z</time>
      </trkpt>
      <trkpt lat="43.28841" lon="5.77012">
        <ele>545</ele>
        <time>2019-09-25T10:17:52Z</time>
      </trkpt>
      <trkpt lat="43.28843" lon="5.77018">
        <ele>546</ele>
        <time>2019-09-25T10:17:58Z</time>
      </trkpt>
      <trkpt lat="43.28846" lon="5.77024">
        <ele>545</ele>
        <time>2019-09-25T10:18:02Z</time>
      </trkpt>
      <trkpt lat="43.28849" lon="5.7703">
        <ele>546</ele>
        <time>2019-09-25T10:18:08Z</time>
      </trkpt>
      <trkpt lat="43.28851" lon="5.77038">
        <ele>546</ele>
        <time>2019-09-25T10:18:14Z</time>
      </trkpt>
      <trkpt lat="43.28852" lon="5.77046">
        <ele>547</ele>
        <time>2019-09-25T10:18:20Z</time>
      </trkpt>
      <trkpt lat="43.28853" lon="5.77055">
        <ele>547</ele>
        <time>2019-09-25T10:18:26Z</time>
      </trkpt>
      <trkpt lat="43.28854" lon="5.77063">
        <ele>548</ele>
        <time>2019-09-25T10:18:32Z</time>
      </trkpt>
      <trkpt lat="43.28857" lon="5.77069">
        <ele>547</ele>
        <time>2019-09-25T10:18:38Z</time>
      </trkpt>
      <trkpt lat="43.28858" lon="5.77075">
        <ele>547</ele>
        <time>2019-09-25T10:18:42Z</time>
      </trkpt>
      <trkpt lat="43.28861" lon="5.77083">
        <ele>549</ele>
        <time>2019-09-25T10:18:48Z</time>
      </trkpt>
      <trkpt lat="43.28863" lon="5.7709">
        <ele>548</ele>
        <time>2019-09-25T10:18:54Z</time>
      </trkpt>
      <trkpt lat="43.28865" lon="5.77097">
        <ele>547</ele>
        <time>2019-09-25T10:19:00Z</time>
      </trkpt>
      <trkpt lat="43.28866" lon="5.77104">
        <ele>548</ele>
        <time>2019-09-25T10:19:06Z</time>
      </trkpt>
      <trkpt lat="43.28865" lon="5.77112">
        <ele>545</ele>
        <time>2019-09-25T10:19:12Z</time>
      </trkpt>
      <trkpt lat="43.28863" lon="5.77118">
        <ele>544</ele>
        <time>2019-09-25T10:19:18Z</time>
      </trkpt>
      <trkpt lat="43.2886" lon="5.77124">
        <ele>544</ele>
        <time>2019-09-25T10:19:24Z</time>
      </trkpt>
      <trkpt lat="43.28856" lon="5.77132">
        <ele>545</ele>
        <time>2019-09-25T10:19:32Z</time>
      </trkpt>
      <trkpt lat="43.28853" lon="5.7714">
        <ele>547</ele>
        <time>2019-09-25T10:19:38Z</time>
      </trkpt>
      <trkpt lat="43.28849" lon="5.77147">
        <ele>550</ele>
        <time>2019-09-25T10:19:44Z</time>
      </trkpt>
      <trkpt lat="43.28845" lon="5.77152">
        <ele>553</ele>
        <time>2019-09-25T10:19:50Z</time>
      </trkpt>
      <trkpt lat="43.28844" lon="5.7716">
        <ele>553</ele>
        <time>2019-09-25T10:19:56Z</time>
      </trkpt>
      <trkpt lat="43.28841" lon="5.77167">
        <ele>555</ele>
        <time>2019-09-25T10:20:02Z</time>
      </trkpt>
      <trkpt lat="43.28841" lon="5.77176">
        <ele>554</ele>
        <time>2019-09-25T10:20:08Z</time>
      </trkpt>
      <trkpt lat="43.2884" lon="5.77184">
        <ele>555</ele>
        <time>2019-09-25T10:20:14Z</time>
      </trkpt>
      <trkpt lat="43.2884" lon="5.77193">
        <ele>553</ele>
        <time>2019-09-25T10:20:20Z</time>
      </trkpt>
      <trkpt lat="43.28837" lon="5.77199">
        <ele>554</ele>
        <time>2019-09-25T10:20:26Z</time>
      </trkpt>
      <trkpt lat="43.28834" lon="5.77205">
        <ele>553</ele>
        <time>2019-09-25T10:20:31Z</time>
      </trkpt>
      <trkpt lat="43.28831" lon="5.77211">
        <ele>553</ele>
        <time>2019-09-25T10:20:35Z</time>
      </trkpt>
      <trkpt lat="43.2883" lon="5.77216">
        <ele>555</ele>
        <time>2019-09-25T10:20:41Z</time>
      </trkpt>
      <trkpt lat="43.28827" lon="5.77224">
        <ele>554</ele>
        <time>2019-09-25T10:20:51Z</time>
      </trkpt>
      <trkpt lat="43.28827" lon="5.77233">
        <ele>554</ele>
        <time>2019-09-25T10:20:57Z</time>
      </trkpt>
      <trkpt lat="43.28825" lon="5.7724">
        <ele>554</ele>
        <time>2019-09-25T10:21:01Z</time>
      </trkpt>
      <trkpt lat="43.28824" lon="5.77247">
        <ele>554</ele>
        <time>2019-09-25T10:21:05Z</time>
      </trkpt>
      <trkpt lat="43.28824" lon="5.77254">
        <ele>554</ele>
        <time>2019-09-25T10:21:09Z</time>
      </trkpt>
      <trkpt lat="43.28825" lon="5.7726">
        <ele>555</ele>
        <time>2019-09-25T10:21:13Z</time>
      </trkpt>
      <trkpt lat="43.28826" lon="5.77267">
        <ele>554</ele>
        <time>2019-09-25T10:21:17Z</time>
      </trkpt>
      <trkpt lat="43.28827" lon="5.77274">
        <ele>554</ele>
        <time>2019-09-25T10:21:21Z</time>
      </trkpt>
      <trkpt lat="43.28829" lon="5.77282">
        <ele>556</ele>
        <time>2019-09-25T10:21:27Z</time>
      </trkpt>
      <trkpt lat="43.2883" lon="5.7729">
        <ele>558</ele>
        <time>2019-09-25T10:21:33Z</time>
      </trkpt>
      <trkpt lat="43.28834" lon="5.77298">
        <ele>557</ele>
        <time>2019-09-25T10:21:39Z</time>
      </trkpt>
      <trkpt lat="43.2884" lon="5.77299">
        <ele>557</ele>
        <time>2019-09-25T10:21:43Z</time>
      </trkpt>
      <trkpt lat="43.28846" lon="5.77299">
        <ele>555</ele>
        <time>2019-09-25T10:21:49Z</time>
      </trkpt>
      <trkpt lat="43.28852" lon="5.77303">
        <ele>556</ele>
        <time>2019-09-25T10:21:55Z</time>
      </trkpt>
      <trkpt lat="43.28856" lon="5.77306">
        <ele>555</ele>
        <time>2019-09-25T10:21:59Z</time>
      </trkpt>
      <trkpt lat="43.28861" lon="5.77309">
        <ele>557</ele>
        <time>2019-09-25T10:22:05Z</time>
      </trkpt>
      <trkpt lat="43.28866" lon="5.77314">
        <ele>558</ele>
        <time>2019-09-25T10:22:11Z</time>
      </trkpt>
      <trkpt lat="43.28869" lon="5.7732">
        <ele>558</ele>
        <time>2019-09-25T10:22:17Z</time>
      </trkpt>
      <trkpt lat="43.28873" lon="5.77327">
        <ele>560</ele>
        <time>2019-09-25T10:22:23Z</time>
      </trkpt>
      <trkpt lat="43.28876" lon="5.77333">
        <ele>561</ele>
        <time>2019-09-25T10:22:29Z</time>
      </trkpt>
      <trkpt lat="43.2888" lon="5.77339">
        <ele>558</ele>
        <time>2019-09-25T10:22:35Z</time>
      </trkpt>
      <trkpt lat="43.28884" lon="5.77344">
        <ele>559</ele>
        <time>2019-09-25T10:22:39Z</time>
      </trkpt>
      <trkpt lat="43.28888" lon="5.7735">
        <ele>557</ele>
        <time>2019-09-25T10:22:43Z</time>
      </trkpt>
      <trkpt lat="43.28892" lon="5.77354">
        <ele>557</ele>
        <time>2019-09-25T10:22:47Z</time>
      </trkpt>
      <trkpt lat="43.28897" lon="5.77359">
        <ele>557</ele>
        <time>2019-09-25T10:22:53Z</time>
      </trkpt>
      <trkpt lat="43.28901" lon="5.77362">
        <ele>558</ele>
        <time>2019-09-25T10:22:59Z</time>
      </trkpt>
      <trkpt lat="43.28906" lon="5.77364">
        <ele>561</ele>
        <time>2019-09-25T10:23:05Z</time>
      </trkpt>
      <trkpt lat="43.28911" lon="5.77369">
        <ele>561</ele>
        <time>2019-09-25T10:23:11Z</time>
      </trkpt>
      <trkpt lat="43.28914" lon="5.77376">
        <ele>563</ele>
        <time>2019-09-25T10:23:17Z</time>
      </trkpt>
      <trkpt lat="43.28918" lon="5.77383">
        <ele>563</ele>
        <time>2019-09-25T10:23:23Z</time>
      </trkpt>
      <trkpt lat="43.28921" lon="5.77388">
        <ele>565</ele>
        <time>2019-09-25T10:23:29Z</time>
      </trkpt>
      <trkpt lat="43.28924" lon="5.77396">
        <ele>568</ele>
        <time>2019-09-25T10:23:37Z</time>
      </trkpt>
      <trkpt lat="43.28927" lon="5.77403">
        <ele>570</ele>
        <time>2019-09-25T10:23:43Z</time>
      </trkpt>
      <trkpt lat="43.2893" lon="5.7741">
        <ele>571</ele>
        <time>2019-09-25T10:23:49Z</time>
      </trkpt>
      <trkpt lat="43.28933" lon="5.77417">
        <ele>569</ele>
        <time>2019-09-25T10:23:53Z</time>
      </trkpt>
      <trkpt lat="43.28936" lon="5.77422">
        <ele>568</ele>
        <time>2019-09-25T10:23:57Z</time>
      </trkpt>
      <trkpt lat="43.28938" lon="5.7743">
        <ele>569</ele>
        <time>2019-09-25T10:24:03Z</time>
      </trkpt>
      <trkpt lat="43.28941" lon="5.77438">
        <ele>569</ele>
        <time>2019-09-25T10:24:09Z</time>
      </trkpt>
      <trkpt lat="43.28944" lon="5.77445">
        <ele>569</ele>
        <time>2019-09-25T10:24:15Z</time>
      </trkpt>
      <trkpt lat="43.28946" lon="5.77451">
        <ele>569</ele>
        <time>2019-09-25T10:24:19Z</time>
      </trkpt>
      <trkpt lat="43.28948" lon="5.77456">
        <ele>568</ele>
        <time>2019-09-25T10:24:23Z</time>
      </trkpt>
      <trkpt lat="43.28951" lon="5.77463">
        <ele>567</ele>
        <time>2019-09-25T10:24:27Z</time>
      </trkpt>
      <trkpt lat="43.28955" lon="5.7747">
        <ele>566</ele>
        <time>2019-09-25T10:24:33Z</time>
      </trkpt>
      <trkpt lat="43.28959" lon="5.77475">
        <ele>565</ele>
        <time>2019-09-25T10:24:37Z</time>
      </trkpt>
      <trkpt lat="43.28963" lon="5.77478">
        <ele>565</ele>
        <time>2019-09-25T10:24:41Z</time>
      </trkpt>
      <trkpt lat="43.28968" lon="5.77481">
        <ele>564</ele>
        <time>2019-09-25T10:24:47Z</time>
      </trkpt>
      <trkpt lat="43.28974" lon="5.77484">
        <ele>564</ele>
        <time>2019-09-25T10:24:53Z</time>
      </trkpt>
      <trkpt lat="43.28981" lon="5.77486">
        <ele>563</ele>
        <time>2019-09-25T10:24:59Z</time>
      </trkpt>
      <trkpt lat="43.28985" lon="5.77488">
        <ele>564</ele>
        <time>2019-09-25T10:25:03Z</time>
      </trkpt>
      <trkpt lat="43.2899" lon="5.7749">
        <ele>564</ele>
        <time>2019-09-25T10:25:07Z</time>
      </trkpt>
      <trkpt lat="43.28994" lon="5.77491">
        <ele>564</ele>
        <time>2019-09-25T10:25:11Z</time>
      </trkpt>
      <trkpt lat="43.28999" lon="5.77492">
        <ele>563</ele>
        <time>2019-09-25T10:25:15Z</time>
      </trkpt>
      <trkpt lat="43.29004" lon="5.77492">
        <ele>562</ele>
        <time>2019-09-25T10:25:19Z</time>
      </trkpt>
      <trkpt lat="43.2901" lon="5.77492">
        <ele>563</ele>
        <time>2019-09-25T10:25:25Z</time>
      </trkpt>
      <trkpt lat="43.29016" lon="5.77493">
        <ele>563</ele>
        <time>2019-09-25T10:25:31Z</time>
      </trkpt>
      <trkpt lat="43.29022" lon="5.77495">
        <ele>563</ele>
        <time>2019-09-25T10:25:37Z</time>
      </trkpt>
      <trkpt lat="43.29027" lon="5.77494">
        <ele>562</ele>
        <time>2019-09-25T10:25:41Z</time>
      </trkpt>
      <trkpt lat="43.29033" lon="5.77494">
        <ele>562</ele>
        <time>2019-09-25T10:25:47Z</time>
      </trkpt>
      <trkpt lat="43.29039" lon="5.77494">
        <ele>562</ele>
        <time>2019-09-25T10:25:53Z</time>
      </trkpt>
      <trkpt lat="43.29045" lon="5.77497">
        <ele>563</ele>
        <time>2019-09-25T10:25:59Z</time>
      </trkpt>
      <trkpt lat="43.29049" lon="5.77501">
        <ele>565</ele>
        <time>2019-09-25T10:26:05Z</time>
      </trkpt>
      <trkpt lat="43.29054" lon="5.77505">
        <ele>567</ele>
        <time>2019-09-25T10:26:13Z</time>
      </trkpt>
      <trkpt lat="43.29059" lon="5.77506">
        <ele>567</ele>
        <time>2019-09-25T10:26:19Z</time>
      </trkpt>
      <trkpt lat="43.29064" lon="5.77508">
        <ele>568</ele>
        <time>2019-09-25T10:26:25Z</time>
      </trkpt>
      <trkpt lat="43.29071" lon="5.7751">
        <ele>568</ele>
        <time>2019-09-25T10:26:31Z</time>
      </trkpt>
      <trkpt lat="43.29077" lon="5.77511">
        <ele>569</ele>
        <time>2019-09-25T10:26:37Z</time>
      </trkpt>
      <trkpt lat="43.29082" lon="5.77512">
        <ele>569</ele>
        <time>2019-09-25T10:26:43Z</time>
      </trkpt>
      <trkpt lat="43.29089" lon="5.77512">
        <ele>569</ele>
        <time>2019-09-25T10:26:49Z</time>
      </trkpt>
      <trkpt lat="43.29095" lon="5.77513">
        <ele>569</ele>
        <time>2019-09-25T10:26:55Z</time>
      </trkpt>
      <trkpt lat="43.29101" lon="5.77516">
        <ele>570</ele>
        <time>2019-09-25T10:27:01Z</time>
      </trkpt>
      <trkpt lat="43.29108" lon="5.77516">
        <ele>570</ele>
        <time>2019-09-25T10:27:07Z</time>
      </trkpt>
      <trkpt lat="43.29114" lon="5.77516">
        <ele>570</ele>
        <time>2019-09-25T10:27:13Z</time>
      </trkpt>
      <trkpt lat="43.2912" lon="5.77518">
        <ele>570</ele>
        <time>2019-09-25T10:27:19Z</time>
      </trkpt>
      <trkpt lat="43.29126" lon="5.7752">
        <ele>570</ele>
        <time>2019-09-25T10:27:25Z</time>
      </trkpt>
      <trkpt lat="43.29131" lon="5.77523">
        <ele>570</ele>
        <time>2019-09-25T10:27:29Z</time>
      </trkpt>
      <trkpt lat="43.29136" lon="5.77526">
        <ele>571</ele>
        <time>2019-09-25T10:27:35Z</time>
      </trkpt>
      <trkpt lat="43.29142" lon="5.77529">
        <ele>572</ele>
        <time>2019-09-25T10:27:41Z</time>
      </trkpt>
      <trkpt lat="43.29149" lon="5.77531">
        <ele>572</ele>
        <time>2019-09-25T10:27:47Z</time>
      </trkpt>
      <trkpt lat="43.29153" lon="5.7753">
        <ele>572</ele>
        <time>2019-09-25T10:27:51Z</time>
      </trkpt>
      <trkpt lat="43.29159" lon="5.77533">
        <ele>573</ele>
        <time>2019-09-25T10:27:57Z</time>
      </trkpt>
      <trkpt lat="43.29164" lon="5.77534">
        <ele>572</ele>
        <time>2019-09-25T10:28:03Z</time>
      </trkpt>
      <trkpt lat="43.2917" lon="5.77535">
        <ele>571</ele>
        <time>2019-09-25T10:28:09Z</time>
      </trkpt>
      <trkpt lat="43.29175" lon="5.77538">
        <ele>572</ele>
        <time>2019-09-25T10:28:15Z</time>
      </trkpt>
      <trkpt lat="43.2918" lon="5.7754">
        <ele>572</ele>
        <time>2019-09-25T10:28:21Z</time>
      </trkpt>
      <trkpt lat="43.29184" lon="5.77542">
        <ele>573</ele>
        <time>2019-09-25T10:28:25Z</time>
      </trkpt>
      <trkpt lat="43.2919" lon="5.77542">
        <ele>572</ele>
        <time>2019-09-25T10:28:31Z</time>
      </trkpt>
      <trkpt lat="43.29194" lon="5.77542">
        <ele>573</ele>
        <time>2019-09-25T10:28:37Z</time>
      </trkpt>
      <trkpt lat="43.292" lon="5.77544">
        <ele>572</ele>
        <time>2019-09-25T10:28:43Z</time>
      </trkpt>
      <trkpt lat="43.29205" lon="5.77546">
        <ele>572</ele>
        <time>2019-09-25T10:28:49Z</time>
      </trkpt>
      <trkpt lat="43.29211" lon="5.77547">
        <ele>574</ele>
        <time>2019-09-25T10:28:57Z</time>
      </trkpt>
      <trkpt lat="43.29217" lon="5.77548">
        <ele>575</ele>
        <time>2019-09-25T10:29:03Z</time>
      </trkpt>
      <trkpt lat="43.29223" lon="5.77549">
        <ele>574</ele>
        <time>2019-09-25T10:29:09Z</time>
      </trkpt>
      <trkpt lat="43.29229" lon="5.77551">
        <ele>575</ele>
        <time>2019-09-25T10:29:15Z</time>
      </trkpt>
      <trkpt lat="43.29233" lon="5.77553">
        <ele>576</ele>
        <time>2019-09-25T10:29:21Z</time>
      </trkpt>
      <trkpt lat="43.29239" lon="5.77552">
        <ele>577</ele>
        <time>2019-09-25T10:29:27Z</time>
      </trkpt>
      <trkpt lat="43.29245" lon="5.7755">
        <ele>579</ele>
        <time>2019-09-25T10:29:35Z</time>
      </trkpt>
      <trkpt lat="43.2925" lon="5.77548">
        <ele>581</ele>
        <time>2019-09-25T10:29:43Z</time>
      </trkpt>
      <trkpt lat="43.29256" lon="5.77545">
        <ele>581</ele>
        <time>2019-09-25T10:29:49Z</time>
      </trkpt>
      <trkpt lat="43.29261" lon="5.77543">
        <ele>582</ele>
        <time>2019-09-25T10:29:55Z</time>
      </trkpt>
      <trkpt lat="43.29266" lon="5.77542">
        <ele>583</ele>
        <time>2019-09-25T10:30:01Z</time>
      </trkpt>
      <trkpt lat="43.29272" lon="5.7754">
        <ele>584</ele>
        <time>2019-09-25T10:30:09Z</time>
      </trkpt>
      <trkpt lat="43.29278" lon="5.77538">
        <ele>584</ele>
        <time>2019-09-25T10:30:15Z</time>
      </trkpt>
      <trkpt lat="43.29283" lon="5.77535">
        <ele>584</ele>
        <time>2019-09-25T10:30:21Z</time>
      </trkpt>
      <trkpt lat="43.29287" lon="5.77532">
        <ele>584</ele>
        <time>2019-09-25T10:30:25Z</time>
      </trkpt>
      <trkpt lat="43.29291" lon="5.77528">
        <ele>586</ele>
        <time>2019-09-25T10:30:31Z</time>
      </trkpt>
      <trkpt lat="43.29295" lon="5.77526">
        <ele>586</ele>
        <time>2019-09-25T10:30:35Z</time>
      </trkpt>
      <trkpt lat="43.293" lon="5.77521">
        <ele>586</ele>
        <time>2019-09-25T10:30:39Z</time>
      </trkpt>
      <trkpt lat="43.29304" lon="5.77516">
        <ele>586</ele>
        <time>2019-09-25T10:30:45Z</time>
      </trkpt>
      <trkpt lat="43.29309" lon="5.77513">
        <ele>586</ele>
        <time>2019-09-25T10:30:49Z</time>
      </trkpt>
      <trkpt lat="43.29312" lon="5.77509">
        <ele>586</ele>
        <time>2019-09-25T10:30:53Z</time>
      </trkpt>
      <trkpt lat="43.29317" lon="5.77504">
        <ele>587</ele>
        <time>2019-09-25T10:30:59Z</time>
      </trkpt>
      <trkpt lat="43.29322" lon="5.77499">
        <ele>587</ele>
        <time>2019-09-25T10:31:05Z</time>
      </trkpt>
      <trkpt lat="43.29325" lon="5.77495">
        <ele>587</ele>
        <time>2019-09-25T10:31:09Z</time>
      </trkpt>
      <trkpt lat="43.29328" lon="5.7749">
        <ele>587</ele>
        <time>2019-09-25T10:31:13Z</time>
      </trkpt>
      <trkpt lat="43.29332" lon="5.77484">
        <ele>587</ele>
        <time>2019-09-25T10:31:19Z</time>
      </trkpt>
      <trkpt lat="43.29335" lon="5.77478">
        <ele>587</ele>
        <time>2019-09-25T10:31:25Z</time>
      </trkpt>
      <trkpt lat="43.29338" lon="5.77473">
        <ele>588</ele>
        <time>2019-09-25T10:31:29Z</time>
      </trkpt>
      <trkpt lat="43.29342" lon="5.77469">
        <ele>590</ele>
        <time>2019-09-25T10:31:35Z</time>
      </trkpt>
      <trkpt lat="43.29345" lon="5.77464">
        <ele>592</ele>
        <time>2019-09-25T10:31:41Z</time>
      </trkpt>
      <trkpt lat="43.29349" lon="5.77459">
        <ele>593</ele>
        <time>2019-09-25T10:31:47Z</time>
      </trkpt>
      <trkpt lat="43.29353" lon="5.77452">
        <ele>593</ele>
        <time>2019-09-25T10:31:53Z</time>
      </trkpt>
      <trkpt lat="43.29358" lon="5.77447">
        <ele>593</ele>
        <time>2019-09-25T10:31:59Z</time>
      </trkpt>
      <trkpt lat="43.29363" lon="5.77441">
        <ele>592</ele>
        <time>2019-09-25T10:32:05Z</time>
      </trkpt>
      <trkpt lat="43.29367" lon="5.77435">
        <ele>591</ele>
        <time>2019-09-25T10:32:11Z</time>
      </trkpt>
      <trkpt lat="43.29371" lon="5.77428">
        <ele>591</ele>
        <time>2019-09-25T10:32:17Z</time>
      </trkpt>
      <trkpt lat="43.29376" lon="5.77423">
        <ele>591</ele>
        <time>2019-09-25T10:32:25Z</time>
      </trkpt>
      <trkpt lat="43.29381" lon="5.77419">
        <ele>591</ele>
        <time>2019-09-25T10:32:31Z</time>
      </trkpt>
      <trkpt lat="43.29386" lon="5.77416">
        <ele>592</ele>
        <time>2019-09-25T10:32:37Z</time>
      </trkpt>
      <trkpt lat="43.29392" lon="5.77412">
        <ele>592</ele>
        <time>2019-09-25T10:32:43Z</time>
      </trkpt>
      <trkpt lat="43.29397" lon="5.77407">
        <ele>593</ele>
        <time>2019-09-25T10:32:49Z</time>
      </trkpt>
      <trkpt lat="43.29401" lon="5.77404">
        <ele>593</ele>
        <time>2019-09-25T10:32:55Z</time>
      </trkpt>
      <trkpt lat="43.29407" lon="5.77401">
        <ele>594</ele>
        <time>2019-09-25T10:33:01Z</time>
      </trkpt>
      <trkpt lat="43.29412" lon="5.77398">
        <ele>594</ele>
        <time>2019-09-25T10:33:07Z</time>
      </trkpt>
      <trkpt lat="43.29418" lon="5.77394">
        <ele>594</ele>
        <time>2019-09-25T10:33:13Z</time>
      </trkpt>
      <trkpt lat="43.29422" lon="5.77391">
        <ele>594</ele>
        <time>2019-09-25T10:33:17Z</time>
      </trkpt>
      <trkpt lat="43.29426" lon="5.77388">
        <ele>593</ele>
        <time>2019-09-25T10:33:21Z</time>
      </trkpt>
      <trkpt lat="43.29432" lon="5.77383">
        <ele>593</ele>
        <time>2019-09-25T10:33:27Z</time>
      </trkpt>
      <trkpt lat="43.29436" lon="5.77379">
        <ele>592</ele>
        <time>2019-09-25T10:33:31Z</time>
      </trkpt>
      <trkpt lat="43.2944" lon="5.77375">
        <ele>591</ele>
        <time>2019-09-25T10:33:35Z</time>
      </trkpt>
      <trkpt lat="43.29445" lon="5.7737">
        <ele>590</ele>
        <time>2019-09-25T10:33:41Z</time>
      </trkpt>
      <trkpt lat="43.29451" lon="5.77366">
        <ele>590</ele>
        <time>2019-09-25T10:33:47Z</time>
      </trkpt>
      <trkpt lat="43.29456" lon="5.77361">
        <ele>591</ele>
        <time>2019-09-25T10:33:53Z</time>
      </trkpt>
      <trkpt lat="43.29461" lon="5.77357">
        <ele>590</ele>
        <time>2019-09-25T10:33:59Z</time>
      </trkpt>
      <trkpt lat="43.29466" lon="5.77352">
        <ele>591</ele>
        <time>2019-09-25T10:34:05Z</time>
      </trkpt>
      <trkpt lat="43.29472" lon="5.77349">
        <ele>592</ele>
        <time>2019-09-25T10:34:11Z</time>
      </trkpt>
      <trkpt lat="43.29476" lon="5.77347">
        <ele>592</ele>
        <time>2019-09-25T10:34:15Z</time>
      </trkpt>
      <trkpt lat="43.29481" lon="5.77343">
        <ele>592</ele>
        <time>2019-09-25T10:34:21Z</time>
      </trkpt>
      <trkpt lat="43.29487" lon="5.77338">
        <ele>592</ele>
        <time>2019-09-25T10:34:27Z</time>
      </trkpt>
      <trkpt lat="43.29492" lon="5.77335">
        <ele>594</ele>
        <time>2019-09-25T10:34:33Z</time>
      </trkpt>
      <trkpt lat="43.29498" lon="5.77331">
        <ele>594</ele>
        <time>2019-09-25T10:34:39Z</time>
      </trkpt>
      <trkpt lat="43.29503" lon="5.77328">
        <ele>594</ele>
        <time>2019-09-25T10:34:45Z</time>
      </trkpt>
      <trkpt lat="43.29508" lon="5.77325">
        <ele>593</ele>
        <time>2019-09-25T10:34:49Z</time>
      </trkpt>
      <trkpt lat="43.29514" lon="5.77323">
        <ele>594</ele>
        <time>2019-09-25T10:34:55Z</time>
      </trkpt>
      <trkpt lat="43.29519" lon="5.77322">
        <ele>595</ele>
        <time>2019-09-25T10:35:01Z</time>
      </trkpt>
      <trkpt lat="43.29524" lon="5.7732">
        <ele>594</ele>
        <time>2019-09-25T10:35:05Z</time>
      </trkpt>
      <trkpt lat="43.2953" lon="5.77319">
        <ele>595</ele>
        <time>2019-09-25T10:35:09Z</time>
      </trkpt>
      <trkpt lat="43.29535" lon="5.77318">
        <ele>596</ele>
        <time>2019-09-25T10:35:15Z</time>
      </trkpt>
      <trkpt lat="43.2954" lon="5.77315">
        <ele>597</ele>
        <time>2019-09-25T10:35:21Z</time>
      </trkpt>
      <trkpt lat="43.29546" lon="5.77312">
        <ele>598</ele>
        <time>2019-09-25T10:35:27Z</time>
      </trkpt>
      <trkpt lat="43.29552" lon="5.77309">
        <ele>598</ele>
        <time>2019-09-25T10:35:31Z</time>
      </trkpt>
      <trkpt lat="43.29557" lon="5.77307">
        <ele>597</ele>
        <time>2019-09-25T10:35:37Z</time>
      </trkpt>
      <trkpt lat="43.29562" lon="5.77305">
        <ele>596</ele>
        <time>2019-09-25T10:35:43Z</time>
      </trkpt>
      <trkpt lat="43.29568" lon="5.77303">
        <ele>597</ele>
        <time>2019-09-25T10:35:49Z</time>
      </trkpt>
      <trkpt lat="43.29574" lon="5.77303">
        <ele>599</ele>
        <time>2019-09-25T10:35:57Z</time>
      </trkpt>
      <trkpt lat="43.29579" lon="5.773">
        <ele>598</ele>
        <time>2019-09-25T10:36:01Z</time>
      </trkpt>
      <trkpt lat="43.29583" lon="5.77297">
        <ele>599</ele>
        <time>2019-09-25T10:36:05Z</time>
      </trkpt>
      <trkpt lat="43.29589" lon="5.77295">
        <ele>599</ele>
        <time>2019-09-25T10:36:11Z</time>
      </trkpt>
      <trkpt lat="43.29594" lon="5.77292">
        <ele>599</ele>
        <time>2019-09-25T10:36:15Z</time>
      </trkpt>
      <trkpt lat="43.29599" lon="5.77289">
        <ele>600</ele>
        <time>2019-09-25T10:36:21Z</time>
      </trkpt>
      <trkpt lat="43.29605" lon="5.77286">
        <ele>599</ele>
        <time>2019-09-25T10:36:27Z</time>
      </trkpt>
      <trkpt lat="43.2961" lon="5.77283">
        <ele>600</ele>
        <time>2019-09-25T10:36:33Z</time>
      </trkpt>
      <trkpt lat="43.29615" lon="5.7728">
        <ele>600</ele>
        <time>2019-09-25T10:36:39Z</time>
      </trkpt>
      <trkpt lat="43.29621" lon="5.77279">
        <ele>600</ele>
        <time>2019-09-25T10:36:45Z</time>
      </trkpt>
      <trkpt lat="43.29626" lon="5.77278">
        <ele>602</ele>
        <time>2019-09-25T10:36:51Z</time>
      </trkpt>
      <trkpt lat="43.29632" lon="5.77276">
        <ele>603</ele>
        <time>2019-09-25T10:36:57Z</time>
      </trkpt>
      <trkpt lat="43.29637" lon="5.77273">
        <ele>604</ele>
        <time>2019-09-25T10:37:03Z</time>
      </trkpt>
      <trkpt lat="43.29643" lon="5.77272">
        <ele>603</ele>
        <time>2019-09-25T10:37:09Z</time>
      </trkpt>
      <trkpt lat="43.29648" lon="5.77271">
        <ele>604</ele>
        <time>2019-09-25T10:37:13Z</time>
      </trkpt>
      <trkpt lat="43.29654" lon="5.77268">
        <ele>605</ele>
        <time>2019-09-25T10:37:19Z</time>
      </trkpt>
      <trkpt lat="43.29659" lon="5.77266">
        <ele>605</ele>
        <time>2019-09-25T10:37:23Z</time>
      </trkpt>
      <trkpt lat="43.29664" lon="5.77262">
        <ele>606</ele>
        <time>2019-09-25T10:37:29Z</time>
      </trkpt>
      <trkpt lat="43.29668" lon="5.77258">
        <ele>604</ele>
        <time>2019-09-25T10:37:33Z</time>
      </trkpt>
      <trkpt lat="43.29673" lon="5.77254">
        <ele>605</ele>
        <time>2019-09-25T10:37:39Z</time>
      </trkpt>
      <trkpt lat="43.29679" lon="5.77251">
        <ele>605</ele>
        <time>2019-09-25T10:37:45Z</time>
      </trkpt>
      <trkpt lat="43.29684" lon="5.77247">
        <ele>605</ele>
        <time>2019-09-25T10:37:51Z</time>
      </trkpt>
      <trkpt lat="43.29689" lon="5.77245">
        <ele>605</ele>
        <time>2019-09-25T10:37:59Z</time>
      </trkpt>
      <trkpt lat="43.29695" lon="5.77243">
        <ele>607</ele>
        <time>2019-09-25T10:38:05Z</time>
      </trkpt>
      <trkpt lat="43.29699" lon="5.77241">
        <ele>606</ele>
        <time>2019-09-25T10:38:09Z</time>
      </trkpt>
      <trkpt lat="43.29704" lon="5.77237">
        <ele>606</ele>
        <time>2019-09-25T10:38:13Z</time>
      </trkpt>
      <trkpt lat="43.29707" lon="5.77233">
        <ele>607</ele>
        <time>2019-09-25T10:38:17Z</time>
      </trkpt>
      <trkpt lat="43.29712" lon="5.7723">
        <ele>607</ele>
        <time>2019-09-25T10:38:21Z</time>
      </trkpt>
      <trkpt lat="43.29717" lon="5.77226">
        <ele>608</ele>
        <time>2019-09-25T10:38:27Z</time>
      </trkpt>
      <trkpt lat="43.29721" lon="5.77221">
        <ele>606</ele>
        <time>2019-09-25T10:38:31Z</time>
      </trkpt>
      <trkpt lat="43.29725" lon="5.77216">
        <ele>607</ele>
        <time>2019-09-25T10:38:37Z</time>
      </trkpt>
      <trkpt lat="43.29731" lon="5.77214">
        <ele>608</ele>
        <time>2019-09-25T10:38:43Z</time>
      </trkpt>
      <trkpt lat="43.29736" lon="5.7721">
        <ele>606</ele>
        <time>2019-09-25T10:38:47Z</time>
      </trkpt>
      <trkpt lat="43.29742" lon="5.77205">
        <ele>607</ele>
        <time>2019-09-25T10:38:53Z</time>
      </trkpt>
      <trkpt lat="43.29747" lon="5.77201">
        <ele>608</ele>
        <time>2019-09-25T10:38:59Z</time>
      </trkpt>
      <trkpt lat="43.29752" lon="5.77197">
        <ele>608</ele>
        <time>2019-09-25T10:39:05Z</time>
      </trkpt>
      <trkpt lat="43.29757" lon="5.77193">
        <ele>606</ele>
        <time>2019-09-25T10:39:11Z</time>
      </trkpt>
      <trkpt lat="43.29762" lon="5.7719">
        <ele>606</ele>
        <time>2019-09-25T10:39:15Z</time>
      </trkpt>
      <trkpt lat="43.29767" lon="5.77187">
        <ele>604</ele>
        <time>2019-09-25T10:39:21Z</time>
      </trkpt>
      <trkpt lat="43.29773" lon="5.77184">
        <ele>603</ele>
        <time>2019-09-25T10:39:27Z</time>
      </trkpt>
      <trkpt lat="43.29779" lon="5.77183">
        <ele>602</ele>
        <time>2019-09-25T10:39:33Z</time>
      </trkpt>
      <trkpt lat="43.29785" lon="5.77183">
        <ele>602</ele>
        <time>2019-09-25T10:39:39Z</time>
      </trkpt>
      <trkpt lat="43.29791" lon="5.77184">
        <ele>602</ele>
        <time>2019-09-25T10:39:45Z</time>
      </trkpt>
      <trkpt lat="43.29797" lon="5.77184">
        <ele>602</ele>
        <time>2019-09-25T10:39:51Z</time>
      </trkpt>
      <trkpt lat="43.29802" lon="5.77185">
        <ele>602</ele>
        <time>2019-09-25T10:39:57Z</time>
      </trkpt>
      <trkpt lat="43.29807" lon="5.77187">
        <ele>602</ele>
        <time>2019-09-25T10:40:03Z</time>
      </trkpt>
      <trkpt lat="43.29812" lon="5.7719">
        <ele>602</ele>
        <time>2019-09-25T10:40:09Z</time>
      </trkpt>
      <trkpt lat="43.29818" lon="5.77191">
        <ele>602</ele>
        <time>2019-09-25T10:40:15Z</time>
      </trkpt>
      <trkpt lat="43.29824" lon="5.77193">
        <ele>602</ele>
        <time>2019-09-25T10:40:21Z</time>
      </trkpt>
      <trkpt lat="43.29828" lon="5.77196">
        <ele>603</ele>
        <time>2019-09-25T10:40:27Z</time>
      </trkpt>
      <trkpt lat="43.29834" lon="5.77199">
        <ele>603</ele>
        <time>2019-09-25T10:40:33Z</time>
      </trkpt>
      <trkpt lat="43.2984" lon="5.77202">
        <ele>604</ele>
        <time>2019-09-25T10:40:39Z</time>
      </trkpt>
      <trkpt lat="43.29845" lon="5.77205">
        <ele>604</ele>
        <time>2019-09-25T10:40:45Z</time>
      </trkpt>
      <trkpt lat="43.2985" lon="5.77207">
        <ele>605</ele>
        <time>2019-09-25T10:40:49Z</time>
      </trkpt>
      <trkpt lat="43.29854" lon="5.77209">
        <ele>605</ele>
        <time>2019-09-25T10:40:53Z</time>
      </trkpt>
      <trkpt lat="43.29859" lon="5.77212">
        <ele>605</ele>
        <time>2019-09-25T10:40:57Z</time>
      </trkpt>
      <trkpt lat="43.29864" lon="5.77215">
        <ele>605</ele>
        <time>2019-09-25T10:41:03Z</time>
      </trkpt>
      <trkpt lat="43.29869" lon="5.77219">
        <ele>606</ele>
        <time>2019-09-25T10:41:09Z</time>
      </trkpt>
      <trkpt lat="43.29875" lon="5.77223">
        <ele>607</ele>
        <time>2019-09-25T10:41:15Z</time>
      </trkpt>
      <trkpt lat="43.2988" lon="5.77228">
        <ele>607</ele>
        <time>2019-09-25T10:41:21Z</time>
      </trkpt>
      <trkpt lat="43.29885" lon="5.77234">
        <ele>608</ele>
        <time>2019-09-25T10:41:27Z</time>
      </trkpt>
      <trkpt lat="43.29888" lon="5.77238">
        <ele>609</ele>
        <time>2019-09-25T10:41:31Z</time>
      </trkpt>
      <trkpt lat="43.29892" lon="5.77242">
        <ele>609</ele>
        <time>2019-09-25T10:41:35Z</time>
      </trkpt>
      <trkpt lat="43.29897" lon="5.77248">
        <ele>610</ele>
        <time>2019-09-25T10:41:41Z</time>
      </trkpt>
      <trkpt lat="43.29902" lon="5.77254">
        <ele>610</ele>
        <time>2019-09-25T10:41:47Z</time>
      </trkpt>
      <trkpt lat="43.29906" lon="5.77258">
        <ele>610</ele>
        <time>2019-09-25T10:41:51Z</time>
      </trkpt>
      <trkpt lat="43.29911" lon="5.77264">
        <ele>610</ele>
        <time>2019-09-25T10:41:57Z</time>
      </trkpt>
      <trkpt lat="43.29915" lon="5.77269">
        <ele>612</ele>
        <time>2019-09-25T10:42:03Z</time>
      </trkpt>
      <trkpt lat="43.29919" lon="5.77274">
        <ele>613</ele>
        <time>2019-09-25T10:42:09Z</time>
      </trkpt>
      <trkpt lat="43.29923" lon="5.77281">
        <ele>614</ele>
        <time>2019-09-25T10:42:15Z</time>
      </trkpt>
      <trkpt lat="43.29927" lon="5.77287">
        <ele>615</ele>
        <time>2019-09-25T10:42:21Z</time>
      </trkpt>
      <trkpt lat="43.29931" lon="5.77293">
        <ele>615</ele>
        <time>2019-09-25T10:42:27Z</time>
      </trkpt>
      <trkpt lat="43.29936" lon="5.773">
        <ele>615</ele>
        <time>2019-09-25T10:42:33Z</time>
      </trkpt>
      <trkpt lat="43.2994" lon="5.77304">
        <ele>615</ele>
        <time>2019-09-25T10:42:37Z</time>
      </trkpt>
      <trkpt lat="43.29944" lon="5.77309">
        <ele>615</ele>
        <time>2019-09-25T10:42:41Z</time>
      </trkpt>
      <trkpt lat="43.29949" lon="5.77313">
        <ele>615</ele>
        <time>2019-09-25T10:42:47Z</time>
      </trkpt>
      <trkpt lat="43.29955" lon="5.77317">
        <ele>615</ele>
        <time>2019-09-25T10:42:53Z</time>
      </trkpt>
      <trkpt lat="43.29959" lon="5.7732">
        <ele>615</ele>
        <time>2019-09-25T10:42:57Z</time>
      </trkpt>
      <trkpt lat="43.29964" lon="5.77324">
        <ele>615</ele>
        <time>2019-09-25T10:43:03Z</time>
      </trkpt>
      <trkpt lat="43.2997" lon="5.77328">
        <ele>616</ele>
        <time>2019-09-25T10:43:09Z</time>
      </trkpt>
      <trkpt lat="43.29975" lon="5.77333">
        <ele>617</ele>
        <time>2019-09-25T10:43:15Z</time>
      </trkpt>
      <trkpt lat="43.29981" lon="5.77335">
        <ele>617</ele>
        <time>2019-09-25T10:43:21Z</time>
      </trkpt>
      <trkpt lat="43.29987" lon="5.77337">
        <ele>618</ele>
        <time>2019-09-25T10:43:27Z</time>
      </trkpt>
      <trkpt lat="43.29993" lon="5.7734">
        <ele>616</ele>
        <time>2019-09-25T10:43:33Z</time>
      </trkpt>
      <trkpt lat="43.29999" lon="5.77343">
        <ele>614</ele>
        <time>2019-09-25T10:43:39Z</time>
      </trkpt>
      <trkpt lat="43.30005" lon="5.77346">
        <ele>615</ele>
        <time>2019-09-25T10:43:45Z</time>
      </trkpt>
      <trkpt lat="43.3001" lon="5.77348">
        <ele>615</ele>
        <time>2019-09-25T10:43:49Z</time>
      </trkpt>
      <trkpt lat="43.30015" lon="5.77351">
        <ele>616</ele>
        <time>2019-09-25T10:43:55Z</time>
      </trkpt>
      <trkpt lat="43.3002" lon="5.77354">
        <ele>616</ele>
        <time>2019-09-25T10:44:01Z</time>
      </trkpt>
      <trkpt lat="43.30026" lon="5.77358">
        <ele>616</ele>
        <time>2019-09-25T10:44:07Z</time>
      </trkpt>
      <trkpt lat="43.3003" lon="5.7736">
        <ele>616</ele>
        <time>2019-09-25T10:44:11Z</time>
      </trkpt>
      <trkpt lat="43.30034" lon="5.77363">
        <ele>616</ele>
        <time>2019-09-25T10:44:15Z</time>
      </trkpt>
      <trkpt lat="43.3004" lon="5.77367">
        <ele>616</ele>
        <time>2019-09-25T10:44:21Z</time>
      </trkpt>
      <trkpt lat="43.30046" lon="5.7737">
        <ele>616</ele>
        <time>2019-09-25T10:44:27Z</time>
      </trkpt>
      <trkpt lat="43.30052" lon="5.7737">
        <ele>616</ele>
        <time>2019-09-25T10:44:33Z</time>
      </trkpt>
      <trkpt lat="43.30058" lon="5.77374">
        <ele>615</ele>
        <time>2019-09-25T10:44:39Z</time>
      </trkpt>
      <trkpt lat="43.30062" lon="5.77379">
        <ele>615</ele>
        <time>2019-09-25T10:44:45Z</time>
      </trkpt>
      <trkpt lat="43.30067" lon="5.77381">
        <ele>616</ele>
        <time>2019-09-25T10:45:13Z</time>
      </trkpt>
      <trkpt lat="43.30066" lon="5.7739">
        <ele>617</ele>
        <time>2019-09-25T10:45:25Z</time>
      </trkpt>
      <trkpt lat="43.30066" lon="5.77396">
        <ele>617</ele>
        <time>2019-09-25T10:45:31Z</time>
      </trkpt>
      <trkpt lat="43.30067" lon="5.77404">
        <ele>617</ele>
        <time>2019-09-25T10:45:37Z</time>
      </trkpt>
      <trkpt lat="43.30067" lon="5.77411">
        <ele>618</ele>
        <time>2019-09-25T10:45:43Z</time>
      </trkpt>
      <trkpt lat="43.30067" lon="5.77419">
        <ele>617</ele>
        <time>2019-09-25T10:45:49Z</time>
      </trkpt>
      <trkpt lat="43.30068" lon="5.77426">
        <ele>618</ele>
        <time>2019-09-25T10:45:55Z</time>
      </trkpt>
      <trkpt lat="43.30069" lon="5.77434">
        <ele>617</ele>
        <time>2019-09-25T10:46:01Z</time>
      </trkpt>
      <trkpt lat="43.3007" lon="5.77441">
        <ele>616</ele>
        <time>2019-09-25T10:46:07Z</time>
      </trkpt>
      <trkpt lat="43.3007" lon="5.77449">
        <ele>616</ele>
        <time>2019-09-25T10:46:13Z</time>
      </trkpt>
      <trkpt lat="43.30071" lon="5.77457">
        <ele>616</ele>
        <time>2019-09-25T10:46:19Z</time>
      </trkpt>
      <trkpt lat="43.3007" lon="5.77466">
        <ele>618</ele>
        <time>2019-09-25T10:46:27Z</time>
      </trkpt>
      <trkpt lat="43.30071" lon="5.77472">
        <ele>620</ele>
        <time>2019-09-25T10:46:33Z</time>
      </trkpt>
      <trkpt lat="43.30071" lon="5.77481">
        <ele>617</ele>
        <time>2019-09-25T10:46:39Z</time>
      </trkpt>
      <trkpt lat="43.30073" lon="5.77487">
        <ele>616</ele>
        <time>2019-09-25T10:46:43Z</time>
      </trkpt>
      <trkpt lat="43.30075" lon="5.77493">
        <ele>616</ele>
        <time>2019-09-25T10:46:51Z</time>
      </trkpt>
      <trkpt lat="43.30077" lon="5.77502">
        <ele>613</ele>
        <time>2019-09-25T10:47:01Z</time>
      </trkpt>
      <trkpt lat="43.30079" lon="5.77509">
        <ele>610</ele>
        <time>2019-09-25T10:47:05Z</time>
      </trkpt>
      <trkpt lat="43.3008" lon="5.77515">
        <ele>608</ele>
        <time>2019-09-25T10:47:11Z</time>
      </trkpt>
      <trkpt lat="43.30078" lon="5.77524">
        <ele>609</ele>
        <time>2019-09-25T10:47:19Z</time>
      </trkpt>
      <trkpt lat="43.30074" lon="5.77529">
        <ele>613</ele>
        <time>2019-09-25T10:47:25Z</time>
      </trkpt>
      <trkpt lat="43.30074" lon="5.77537">
        <ele>613</ele>
        <time>2019-09-25T10:47:31Z</time>
      </trkpt>
      <trkpt lat="43.30075" lon="5.77544">
        <ele>612</ele>
        <time>2019-09-25T10:47:37Z</time>
      </trkpt>
      <trkpt lat="43.30076" lon="5.77552">
        <ele>613</ele>
        <time>2019-09-25T10:47:43Z</time>
      </trkpt>
      <trkpt lat="43.30078" lon="5.77559">
        <ele>614</ele>
        <time>2019-09-25T10:47:49Z</time>
      </trkpt>
      <trkpt lat="43.30078" lon="5.77567">
        <ele>617</ele>
        <time>2019-09-25T10:47:57Z</time>
      </trkpt>
      <trkpt lat="43.30074" lon="5.77572">
        <ele>618</ele>
        <time>2019-09-25T10:48:05Z</time>
      </trkpt>
      <trkpt lat="43.30073" lon="5.77579">
        <ele>619</ele>
        <time>2019-09-25T10:48:11Z</time>
      </trkpt>
      <trkpt lat="43.30073" lon="5.77586">
        <ele>620</ele>
        <time>2019-09-25T10:48:19Z</time>
      </trkpt>
      <trkpt lat="43.30073" lon="5.77593">
        <ele>622</ele>
        <time>2019-09-25T10:48:27Z</time>
      </trkpt>
      <trkpt lat="43.30073" lon="5.776">
        <ele>621</ele>
        <time>2019-09-25T10:48:33Z</time>
      </trkpt>
      <trkpt lat="43.30073" lon="5.77608">
        <ele>622</ele>
        <time>2019-09-25T10:48:41Z</time>
      </trkpt>
      <trkpt lat="43.30073" lon="5.77614">
        <ele>620</ele>
        <time>2019-09-25T10:48:47Z</time>
      </trkpt>
      <trkpt lat="43.30072" lon="5.77621">
        <ele>619</ele>
        <time>2019-09-25T10:48:53Z</time>
      </trkpt>
      <trkpt lat="43.3007" lon="5.77626">
        <ele>620</ele>
        <time>2019-09-25T10:49:01Z</time>
      </trkpt>
      <trkpt lat="43.30067" lon="5.77633">
        <ele>620</ele>
        <time>2019-09-25T10:49:07Z</time>
      </trkpt>
      <trkpt lat="43.30066" lon="5.7764">
        <ele>622</ele>
        <time>2019-09-25T10:49:13Z</time>
      </trkpt>
      <trkpt lat="43.30064" lon="5.77646">
        <ele>626</ele>
        <time>2019-09-25T10:49:21Z</time>
      </trkpt>
      <trkpt lat="43.30063" lon="5.77652">
        <ele>627</ele>
        <time>2019-09-25T10:49:29Z</time>
      </trkpt>
      <trkpt lat="43.3006" lon="5.77659">
        <ele>630</ele>
        <time>2019-09-25T10:49:37Z</time>
      </trkpt>
      <trkpt lat="43.30056" lon="5.77665">
        <ele>633</ele>
        <time>2019-09-25T10:49:45Z</time>
      </trkpt>
      <trkpt lat="43.30053" lon="5.77671">
        <ele>631</ele>
        <time>2019-09-25T10:49:49Z</time>
      </trkpt>
      <trkpt lat="43.30052" lon="5.7768">
        <ele>629</ele>
        <time>2019-09-25T10:49:55Z</time>
      </trkpt>
      <trkpt lat="43.30051" lon="5.77686">
        <ele>627</ele>
        <time>2019-09-25T10:50:01Z</time>
      </trkpt>
      <trkpt lat="43.30052" lon="5.77694">
        <ele>626</ele>
        <time>2019-09-25T10:50:07Z</time>
      </trkpt>
      <trkpt lat="43.30052" lon="5.77701">
        <ele>624</ele>
        <time>2019-09-25T10:50:13Z</time>
      </trkpt>
      <trkpt lat="43.30054" lon="5.77708">
        <ele>625</ele>
        <time>2019-09-25T10:50:19Z</time>
      </trkpt>
      <trkpt lat="43.30053" lon="5.77714">
        <ele>622</ele>
        <time>2019-09-25T10:50:23Z</time>
      </trkpt>
      <trkpt lat="43.30054" lon="5.77721">
        <ele>623</ele>
        <time>2019-09-25T10:50:29Z</time>
      </trkpt>
      <trkpt lat="43.30051" lon="5.77729">
        <ele>627</ele>
        <time>2019-09-25T10:50:37Z</time>
      </trkpt>
      <trkpt lat="43.30049" lon="5.77735">
        <ele>626</ele>
        <time>2019-09-25T10:50:43Z</time>
      </trkpt>
      <trkpt lat="43.30046" lon="5.77741">
        <ele>627</ele>
        <time>2019-09-25T10:50:51Z</time>
      </trkpt>
      <trkpt lat="43.30043" lon="5.77747">
        <ele>628</ele>
        <time>2019-09-25T10:50:57Z</time>
      </trkpt>
      <trkpt lat="43.30042" lon="5.77754">
        <ele>628</ele>
        <time>2019-09-25T10:51:03Z</time>
      </trkpt>
      <trkpt lat="43.30039" lon="5.77762">
        <ele>630</ele>
        <time>2019-09-25T10:51:09Z</time>
      </trkpt>
      <trkpt lat="43.30037" lon="5.77768">
        <ele>630</ele>
        <time>2019-09-25T10:51:17Z</time>
      </trkpt>
      <trkpt lat="43.30035" lon="5.77774">
        <ele>632</ele>
        <time>2019-09-25T10:51:23Z</time>
      </trkpt>
      <trkpt lat="43.30034" lon="5.77782">
        <ele>632</ele>
        <time>2019-09-25T10:51:29Z</time>
      </trkpt>
      <trkpt lat="43.30033" lon="5.77789">
        <ele>633</ele>
        <time>2019-09-25T10:51:35Z</time>
      </trkpt>
      <trkpt lat="43.30033" lon="5.77797">
        <ele>632</ele>
        <time>2019-09-25T10:51:41Z</time>
      </trkpt>
      <trkpt lat="43.30034" lon="5.77805">
        <ele>629</ele>
        <time>2019-09-25T10:51:47Z</time>
      </trkpt>
      <trkpt lat="43.30035" lon="5.77812">
        <ele>627</ele>
        <time>2019-09-25T10:51:53Z</time>
      </trkpt>
      <trkpt lat="43.30036" lon="5.77819">
        <ele>627</ele>
        <time>2019-09-25T10:51:59Z</time>
      </trkpt>
      <trkpt lat="43.30037" lon="5.77828">
        <ele>629</ele>
        <time>2019-09-25T10:52:05Z</time>
      </trkpt>
      <trkpt lat="43.30038" lon="5.77835">
        <ele>633</ele>
        <time>2019-09-25T10:52:11Z</time>
      </trkpt>
      <trkpt lat="43.30037" lon="5.77843">
        <ele>632</ele>
        <time>2019-09-25T10:52:17Z</time>
      </trkpt>
      <trkpt lat="43.30037" lon="5.77849">
        <ele>631</ele>
        <time>2019-09-25T10:52:23Z</time>
      </trkpt>
      <trkpt lat="43.30038" lon="5.77856">
        <ele>632</ele>
        <time>2019-09-25T10:52:31Z</time>
      </trkpt>
      <trkpt lat="43.30037" lon="5.77864">
        <ele>630</ele>
        <time>2019-09-25T10:52:37Z</time>
      </trkpt>
      <trkpt lat="43.30036" lon="5.77872">
        <ele>629</ele>
        <time>2019-09-25T10:52:43Z</time>
      </trkpt>
      <trkpt lat="43.30037" lon="5.77881">
        <ele>627</ele>
        <time>2019-09-25T10:53:07Z</time>
      </trkpt>
      <trkpt lat="43.30038" lon="5.77887">
        <ele>628</ele>
        <time>2019-09-25T10:53:11Z</time>
      </trkpt>
      <trkpt lat="43.30041" lon="5.77893">
        <ele>629</ele>
        <time>2019-09-25T10:53:19Z</time>
      </trkpt>
      <trkpt lat="43.30043" lon="5.779">
        <ele>630</ele>
        <time>2019-09-25T10:53:23Z</time>
      </trkpt>
      <trkpt lat="43.30043" lon="5.77907">
        <ele>631</ele>
        <time>2019-09-25T10:53:37Z</time>
      </trkpt>
      <trkpt lat="43.30043" lon="5.77914">
        <ele>631</ele>
        <time>2019-09-25T10:53:43Z</time>
      </trkpt>
      <trkpt lat="43.30044" lon="5.7792">
        <ele>632</ele>
        <time>2019-09-25T10:53:49Z</time>
      </trkpt>
      <trkpt lat="43.30044" lon="5.77927">
        <ele>633</ele>
        <time>2019-09-25T10:53:55Z</time>
      </trkpt>
      <trkpt lat="43.30043" lon="5.77933">
        <ele>632</ele>
        <time>2019-09-25T10:54:01Z</time>
      </trkpt>
      <trkpt lat="43.30043" lon="5.77941">
        <ele>632</ele>
        <time>2019-09-25T10:54:07Z</time>
      </trkpt>
      <trkpt lat="43.30044" lon="5.77948">
        <ele>632</ele>
        <time>2019-09-25T10:54:13Z</time>
      </trkpt>
      <trkpt lat="43.30045" lon="5.77955">
        <ele>634</ele>
        <time>2019-09-25T10:54:19Z</time>
      </trkpt>
      <trkpt lat="43.30046" lon="5.77962">
        <ele>634</ele>
        <time>2019-09-25T10:54:25Z</time>
      </trkpt>
      <trkpt lat="43.30046" lon="5.77968">
        <ele>634</ele>
        <time>2019-09-25T10:54:31Z</time>
      </trkpt>
      <trkpt lat="43.30048" lon="5.77976">
        <ele>635</ele>
        <time>2019-09-25T10:54:37Z</time>
      </trkpt>
      <trkpt lat="43.30048" lon="5.77984">
        <ele>633</ele>
        <time>2019-09-25T10:54:45Z</time>
      </trkpt>
      <trkpt lat="43.30049" lon="5.7799">
        <ele>633</ele>
        <time>2019-09-25T10:54:49Z</time>
      </trkpt>
      <trkpt lat="43.3005" lon="5.77996">
        <ele>632</ele>
        <time>2019-09-25T10:54:53Z</time>
      </trkpt>
      <trkpt lat="43.3005" lon="5.78004">
        <ele>633</ele>
        <time>2019-09-25T10:54:59Z</time>
      </trkpt>
      <trkpt lat="43.30049" lon="5.78011">
        <ele>634</ele>
        <time>2019-09-25T10:55:07Z</time>
      </trkpt>
      <trkpt lat="43.30049" lon="5.78018">
        <ele>635</ele>
        <time>2019-09-25T10:55:15Z</time>
      </trkpt>
      <trkpt lat="43.3005" lon="5.78024">
        <ele>635</ele>
        <time>2019-09-25T10:55:21Z</time>
      </trkpt>
      <trkpt lat="43.30052" lon="5.7803">
        <ele>635</ele>
        <time>2019-09-25T10:55:27Z</time>
      </trkpt>
      <trkpt lat="43.30055" lon="5.78037">
        <ele>634</ele>
        <time>2019-09-25T10:55:33Z</time>
      </trkpt>
      <trkpt lat="43.30055" lon="5.78044">
        <ele>633</ele>
        <time>2019-09-25T10:55:39Z</time>
      </trkpt>
      <trkpt lat="43.30056" lon="5.78051">
        <ele>634</ele>
        <time>2019-09-25T10:55:45Z</time>
      </trkpt>
      <trkpt lat="43.30056" lon="5.78058">
        <ele>634</ele>
        <time>2019-09-25T10:55:51Z</time>
      </trkpt>
      <trkpt lat="43.30058" lon="5.78066">
        <ele>635</ele>
        <time>2019-09-25T10:55:59Z</time>
      </trkpt>
      <trkpt lat="43.30061" lon="5.78071">
        <ele>634</ele>
        <time>2019-09-25T10:56:07Z</time>
      </trkpt>
      <trkpt lat="43.30063" lon="5.78079">
        <ele>632</ele>
        <time>2019-09-25T10:56:13Z</time>
      </trkpt>
      <trkpt lat="43.30064" lon="5.78086">
        <ele>632</ele>
        <time>2019-09-25T10:56:19Z</time>
      </trkpt>
      <trkpt lat="43.30067" lon="5.78094">
        <ele>634</ele>
        <time>2019-09-25T10:56:25Z</time>
      </trkpt>
      <trkpt lat="43.30069" lon="5.78102">
        <ele>636</ele>
        <time>2019-09-25T10:56:31Z</time>
      </trkpt>
      <trkpt lat="43.30072" lon="5.7811">
        <ele>635</ele>
        <time>2019-09-25T10:56:37Z</time>
      </trkpt>
      <trkpt lat="43.30074" lon="5.78117">
        <ele>634</ele>
        <time>2019-09-25T10:56:43Z</time>
      </trkpt>
      <trkpt lat="43.30077" lon="5.78124">
        <ele>635</ele>
        <time>2019-09-25T10:56:49Z</time>
      </trkpt>
      <trkpt lat="43.3008" lon="5.78129">
        <ele>635</ele>
        <time>2019-09-25T10:56:53Z</time>
      </trkpt>
      <trkpt lat="43.30081" lon="5.78135">
        <ele>638</ele>
        <time>2019-09-25T10:56:57Z</time>
      </trkpt>
      <trkpt lat="43.30081" lon="5.78143">
        <ele>641</ele>
        <time>2019-09-25T10:57:03Z</time>
      </trkpt>
      <trkpt lat="43.30083" lon="5.78149">
        <ele>641</ele>
        <time>2019-09-25T10:57:09Z</time>
      </trkpt>
      <trkpt lat="43.30083" lon="5.78156">
        <ele>637</ele>
        <time>2019-09-25T10:57:15Z</time>
      </trkpt>
      <trkpt lat="43.30081" lon="5.78162">
        <ele>636</ele>
        <time>2019-09-25T10:57:21Z</time>
      </trkpt>
      <trkpt lat="43.3008" lon="5.78171">
        <ele>635</ele>
        <time>2019-09-25T10:57:27Z</time>
      </trkpt>
      <trkpt lat="43.30079" lon="5.7818">
        <ele>638</ele>
        <time>2019-09-25T10:57:35Z</time>
      </trkpt>
      <trkpt lat="43.30077" lon="5.78186">
        <ele>638</ele>
        <time>2019-09-25T10:57:39Z</time>
      </trkpt>
      <trkpt lat="43.30075" lon="5.78192">
        <ele>639</ele>
        <time>2019-09-25T10:57:43Z</time>
      </trkpt>
      <trkpt lat="43.30073" lon="5.78199">
        <ele>638</ele>
        <time>2019-09-25T10:57:49Z</time>
      </trkpt>
      <trkpt lat="43.3007" lon="5.78206">
        <ele>637</ele>
        <time>2019-09-25T10:57:57Z</time>
      </trkpt>
      <trkpt lat="43.30069" lon="5.78212">
        <ele>636</ele>
        <time>2019-09-25T10:58:03Z</time>
      </trkpt>
      <trkpt lat="43.30067" lon="5.78219">
        <ele>634</ele>
        <time>2019-09-25T10:58:09Z</time>
      </trkpt>
      <trkpt lat="43.30065" lon="5.78226">
        <ele>636</ele>
        <time>2019-09-25T10:58:15Z</time>
      </trkpt>
      <trkpt lat="43.30062" lon="5.78234">
        <ele>638</ele>
        <time>2019-09-25T10:58:21Z</time>
      </trkpt>
      <trkpt lat="43.30061" lon="5.78241">
        <ele>636</ele>
        <time>2019-09-25T10:58:27Z</time>
      </trkpt>
      <trkpt lat="43.30059" lon="5.78249">
        <ele>637</ele>
        <time>2019-09-25T10:58:33Z</time>
      </trkpt>
      <trkpt lat="43.30057" lon="5.78258">
        <ele>638</ele>
        <time>2019-09-25T10:58:39Z</time>
      </trkpt>
      <trkpt lat="43.30055" lon="5.78266">
        <ele>637</ele>
        <time>2019-09-25T10:58:45Z</time>
      </trkpt>
      <trkpt lat="43.30054" lon="5.78272">
        <ele>637</ele>
        <time>2019-09-25T10:58:49Z</time>
      </trkpt>
      <trkpt lat="43.30053" lon="5.78281">
        <ele>636</ele>
        <time>2019-09-25T10:58:55Z</time>
      </trkpt>
      <trkpt lat="43.30051" lon="5.78287">
        <ele>636</ele>
        <time>2019-09-25T10:59:01Z</time>
      </trkpt>
      <trkpt lat="43.30048" lon="5.78293">
        <ele>636</ele>
        <time>2019-09-25T10:59:07Z</time>
      </trkpt>
      <trkpt lat="43.30046" lon="5.783">
        <ele>637</ele>
        <time>2019-09-25T10:59:13Z</time>
      </trkpt>
      <trkpt lat="43.30045" lon="5.78307">
        <ele>636</ele>
        <time>2019-09-25T10:59:19Z</time>
      </trkpt>
      <trkpt lat="43.30042" lon="5.78313">
        <ele>636</ele>
        <time>2019-09-25T10:59:25Z</time>
      </trkpt>
      <trkpt lat="43.30038" lon="5.78319">
        <ele>636</ele>
        <time>2019-09-25T10:59:31Z</time>
      </trkpt>
      <trkpt lat="43.30036" lon="5.78326">
        <ele>635</ele>
        <time>2019-09-25T10:59:37Z</time>
      </trkpt>
      <trkpt lat="43.30035" lon="5.78333">
        <ele>635</ele>
        <time>2019-09-25T10:59:43Z</time>
      </trkpt>
      <trkpt lat="43.30032" lon="5.78338">
        <ele>637</ele>
        <time>2019-09-25T10:59:51Z</time>
      </trkpt>
      <trkpt lat="43.30029" lon="5.78346">
        <ele>638</ele>
        <time>2019-09-25T10:59:57Z</time>
      </trkpt>
      <trkpt lat="43.30026" lon="5.78353">
        <ele>638</ele>
        <time>2019-09-25T11:00:03Z</time>
      </trkpt>
      <trkpt lat="43.30023" lon="5.7836">
        <ele>638</ele>
        <time>2019-09-25T11:00:11Z</time>
      </trkpt>
      <trkpt lat="43.3002" lon="5.78364">
        <ele>635</ele>
        <time>2019-09-25T11:00:19Z</time>
      </trkpt>
      <trkpt lat="43.30017" lon="5.78369">
        <ele>634</ele>
        <time>2019-09-25T11:00:25Z</time>
      </trkpt>
      <trkpt lat="43.30013" lon="5.78374">
        <ele>635</ele>
        <time>2019-09-25T11:00:31Z</time>
      </trkpt>
      <trkpt lat="43.30009" lon="5.78379">
        <ele>633</ele>
        <time>2019-09-25T11:00:37Z</time>
      </trkpt>
      <trkpt lat="43.30006" lon="5.78386">
        <ele>632</ele>
        <time>2019-09-25T11:00:43Z</time>
      </trkpt>
      <trkpt lat="43.30003" lon="5.78391">
        <ele>633</ele>
        <time>2019-09-25T11:00:51Z</time>
      </trkpt>
      <trkpt lat="43.29998" lon="5.78396">
        <ele>631</ele>
        <time>2019-09-25T11:00:57Z</time>
      </trkpt>
      <trkpt lat="43.29995" lon="5.78401">
        <ele>632</ele>
        <time>2019-09-25T11:01:03Z</time>
      </trkpt>
      <trkpt lat="43.29991" lon="5.78407">
        <ele>633</ele>
        <time>2019-09-25T11:01:09Z</time>
      </trkpt>
      <trkpt lat="43.29988" lon="5.78413">
        <ele>634</ele>
        <time>2019-09-25T11:01:15Z</time>
      </trkpt>
      <trkpt lat="43.29985" lon="5.78418">
        <ele>633</ele>
        <time>2019-09-25T11:01:21Z</time>
      </trkpt>
      <trkpt lat="43.29981" lon="5.78424">
        <ele>634</ele>
        <time>2019-09-25T11:01:27Z</time>
      </trkpt>
      <trkpt lat="43.29976" lon="5.78429">
        <ele>633</ele>
        <time>2019-09-25T11:01:33Z</time>
      </trkpt>
      <trkpt lat="43.29974" lon="5.78437">
        <ele>632</ele>
        <time>2019-09-25T11:01:39Z</time>
      </trkpt>
      <trkpt lat="43.29973" lon="5.78446">
        <ele>630</ele>
        <time>2019-09-25T11:01:45Z</time>
      </trkpt>
      <trkpt lat="43.29973" lon="5.78454">
        <ele>631</ele>
        <time>2019-09-25T11:01:51Z</time>
      </trkpt>
      <trkpt lat="43.29972" lon="5.78462">
        <ele>630</ele>
        <time>2019-09-25T11:01:57Z</time>
      </trkpt>
      <trkpt lat="43.29972" lon="5.7847">
        <ele>628</ele>
        <time>2019-09-25T11:02:03Z</time>
      </trkpt>
      <trkpt lat="43.29971" lon="5.78478">
        <ele>626</ele>
        <time>2019-09-25T11:02:09Z</time>
      </trkpt>
      <trkpt lat="43.29969" lon="5.78487">
        <ele>625</ele>
        <time>2019-09-25T11:02:15Z</time>
      </trkpt>
      <trkpt lat="43.29967" lon="5.78494">
        <ele>629</ele>
        <time>2019-09-25T11:02:19Z</time>
      </trkpt>
      <trkpt lat="43.29966" lon="5.78503">
        <ele>629</ele>
        <time>2019-09-25T11:02:25Z</time>
      </trkpt>
      <trkpt lat="43.29964" lon="5.78509">
        <ele>629</ele>
        <time>2019-09-25T11:02:29Z</time>
      </trkpt>
      <trkpt lat="43.29962" lon="5.78515">
        <ele>628</ele>
        <time>2019-09-25T11:02:35Z</time>
      </trkpt>
      <trkpt lat="43.2996" lon="5.78522">
        <ele>626</ele>
        <time>2019-09-25T11:02:39Z</time>
      </trkpt>
      <trkpt lat="43.29957" lon="5.7853">
        <ele>627</ele>
        <time>2019-09-25T11:02:45Z</time>
      </trkpt>
      <trkpt lat="43.29953" lon="5.78534">
        <ele>625</ele>
        <time>2019-09-25T11:02:51Z</time>
      </trkpt>
      <trkpt lat="43.29949" lon="5.78541">
        <ele>625</ele>
        <time>2019-09-25T11:02:57Z</time>
      </trkpt>
      <trkpt lat="43.29948" lon="5.78547">
        <ele>624</ele>
        <time>2019-09-25T11:03:03Z</time>
      </trkpt>
      <trkpt lat="43.29945" lon="5.78554">
        <ele>624</ele>
        <time>2019-09-25T11:03:09Z</time>
      </trkpt>
      <trkpt lat="43.29943" lon="5.7856">
        <ele>625</ele>
        <time>2019-09-25T11:03:13Z</time>
      </trkpt>
      <trkpt lat="43.29939" lon="5.78566">
        <ele>624</ele>
        <time>2019-09-25T11:03:19Z</time>
      </trkpt>
      <trkpt lat="43.29936" lon="5.78571">
        <ele>622</ele>
        <time>2019-09-25T11:03:23Z</time>
      </trkpt>
      <trkpt lat="43.29933" lon="5.78578">
        <ele>620</ele>
        <time>2019-09-25T11:03:29Z</time>
      </trkpt>
      <trkpt lat="43.29931" lon="5.78584">
        <ele>618</ele>
        <time>2019-09-25T11:03:35Z</time>
      </trkpt>
      <trkpt lat="43.29927" lon="5.7859">
        <ele>620</ele>
        <time>2019-09-25T11:03:41Z</time>
      </trkpt>
      <trkpt lat="43.29924" lon="5.78595">
        <ele>621</ele>
        <time>2019-09-25T11:03:45Z</time>
      </trkpt>
      <trkpt lat="43.2992" lon="5.78601">
        <ele>623</ele>
        <time>2019-09-25T11:03:51Z</time>
      </trkpt>
      <trkpt lat="43.29916" lon="5.78608">
        <ele>623</ele>
        <time>2019-09-25T11:03:57Z</time>
      </trkpt>
      <trkpt lat="43.29912" lon="5.78615">
        <ele>622</ele>
        <time>2019-09-25T11:04:03Z</time>
      </trkpt>
      <trkpt lat="43.29907" lon="5.78621">
        <ele>623</ele>
        <time>2019-09-25T11:04:09Z</time>
      </trkpt>
      <trkpt lat="43.29903" lon="5.78626">
        <ele>622</ele>
        <time>2019-09-25T11:04:15Z</time>
      </trkpt>
      <trkpt lat="43.29898" lon="5.78633">
        <ele>622</ele>
        <time>2019-09-25T11:04:21Z</time>
      </trkpt>
      <trkpt lat="43.29896" lon="5.78638">
        <ele>621</ele>
        <time>2019-09-25T11:04:25Z</time>
      </trkpt>
      <trkpt lat="43.29894" lon="5.78645">
        <ele>621</ele>
        <time>2019-09-25T11:04:29Z</time>
      </trkpt>
      <trkpt lat="43.29893" lon="5.78651">
        <ele>623</ele>
        <time>2019-09-25T11:04:33Z</time>
      </trkpt>
      <trkpt lat="43.2989" lon="5.78657">
        <ele>623</ele>
        <time>2019-09-25T11:04:39Z</time>
      </trkpt>
      <trkpt lat="43.29886" lon="5.78661">
        <ele>623</ele>
        <time>2019-09-25T11:04:43Z</time>
      </trkpt>
      <trkpt lat="43.29882" lon="5.78665">
        <ele>622</ele>
        <time>2019-09-25T11:04:47Z</time>
      </trkpt>
      <trkpt lat="43.29879" lon="5.78672">
        <ele>619</ele>
        <time>2019-09-25T11:04:53Z</time>
      </trkpt>
      <trkpt lat="43.29875" lon="5.78676">
        <ele>620</ele>
        <time>2019-09-25T11:04:57Z</time>
      </trkpt>
      <trkpt lat="43.29872" lon="5.78683">
        <ele>618</ele>
        <time>2019-09-25T11:05:01Z</time>
      </trkpt>
      <trkpt lat="43.29869" lon="5.7869">
        <ele>618</ele>
        <time>2019-09-25T11:05:07Z</time>
      </trkpt>
      <trkpt lat="43.29866" lon="5.78697">
        <ele>617</ele>
        <time>2019-09-25T11:05:13Z</time>
      </trkpt>
      <trkpt lat="43.29862" lon="5.78701">
        <ele>616</ele>
        <time>2019-09-25T11:05:19Z</time>
      </trkpt>
      <trkpt lat="43.29856" lon="5.78705">
        <ele>617</ele>
        <time>2019-09-25T11:05:27Z</time>
      </trkpt>
      <trkpt lat="43.2985" lon="5.7871">
        <ele>616</ele>
        <time>2019-09-25T11:05:33Z</time>
      </trkpt>
      <trkpt lat="43.29845" lon="5.78714">
        <ele>616</ele>
        <time>2019-09-25T11:05:37Z</time>
      </trkpt>
      <trkpt lat="43.2984" lon="5.78718">
        <ele>616</ele>
        <time>2019-09-25T11:05:45Z</time>
      </trkpt>
      <trkpt lat="43.29834" lon="5.78723">
        <ele>618</ele>
        <time>2019-09-25T11:05:51Z</time>
      </trkpt>
      <trkpt lat="43.2983" lon="5.78727">
        <ele>617</ele>
        <time>2019-09-25T11:05:57Z</time>
      </trkpt>
      <trkpt lat="43.29827" lon="5.78732">
        <ele>618</ele>
        <time>2019-09-25T11:06:01Z</time>
      </trkpt>
      <trkpt lat="43.29824" lon="5.78739">
        <ele>618</ele>
        <time>2019-09-25T11:06:09Z</time>
      </trkpt>
      <trkpt lat="43.2982" lon="5.78744">
        <ele>617</ele>
        <time>2019-09-25T11:06:13Z</time>
      </trkpt>
      <trkpt lat="43.29814" lon="5.78748">
        <ele>617</ele>
        <time>2019-09-25T11:06:19Z</time>
      </trkpt>
      <trkpt lat="43.2981" lon="5.78751">
        <ele>614</ele>
        <time>2019-09-25T11:06:23Z</time>
      </trkpt>
      <trkpt lat="43.29806" lon="5.78754">
        <ele>613</ele>
        <time>2019-09-25T11:06:27Z</time>
      </trkpt>
      <trkpt lat="43.29801" lon="5.7876">
        <ele>610</ele>
        <time>2019-09-25T11:06:33Z</time>
      </trkpt>
      <trkpt lat="43.29797" lon="5.78764">
        <ele>610</ele>
        <time>2019-09-25T11:06:37Z</time>
      </trkpt>
      <trkpt lat="43.29793" lon="5.7877">
        <ele>612</ele>
        <time>2019-09-25T11:06:43Z</time>
      </trkpt>
      <trkpt lat="43.29788" lon="5.78775">
        <ele>611</ele>
        <time>2019-09-25T11:06:49Z</time>
      </trkpt>
      <trkpt lat="43.29784" lon="5.7878">
        <ele>609</ele>
        <time>2019-09-25T11:06:55Z</time>
      </trkpt>
      <trkpt lat="43.29779" lon="5.78783">
        <ele>610</ele>
        <time>2019-09-25T11:06:59Z</time>
      </trkpt>
      <trkpt lat="43.29775" lon="5.78786">
        <ele>609</ele>
        <time>2019-09-25T11:07:03Z</time>
      </trkpt>
      <trkpt lat="43.29771" lon="5.7879">
        <ele>609</ele>
        <time>2019-09-25T11:07:09Z</time>
      </trkpt>
      <trkpt lat="43.29766" lon="5.78795">
        <ele>608</ele>
        <time>2019-09-25T11:07:15Z</time>
      </trkpt>
      <trkpt lat="43.2976" lon="5.78799">
        <ele>608</ele>
        <time>2019-09-25T11:07:21Z</time>
      </trkpt>
      <trkpt lat="43.29757" lon="5.78804">
        <ele>609</ele>
        <time>2019-09-25T11:07:27Z</time>
      </trkpt>
      <trkpt lat="43.29757" lon="5.78812">
        <ele>607</ele>
        <time>2019-09-25T11:07:41Z</time>
      </trkpt>
      <trkpt lat="43.29756" lon="5.7882">
        <ele>607</ele>
        <time>2019-09-25T11:07:47Z</time>
      </trkpt>
      <trkpt lat="43.29754" lon="5.78827">
        <ele>606</ele>
        <time>2019-09-25T11:07:53Z</time>
      </trkpt>
      <trkpt lat="43.29753" lon="5.78835">
        <ele>607</ele>
        <time>2019-09-25T11:07:59Z</time>
      </trkpt>
      <trkpt lat="43.29751" lon="5.78843">
        <ele>605</ele>
        <time>2019-09-25T11:08:05Z</time>
      </trkpt>
      <trkpt lat="43.2975" lon="5.7885">
        <ele>605</ele>
        <time>2019-09-25T11:08:11Z</time>
      </trkpt>
      <trkpt lat="43.29747" lon="5.78857">
        <ele>605</ele>
        <time>2019-09-25T11:08:17Z</time>
      </trkpt>
      <trkpt lat="43.29745" lon="5.78864">
        <ele>605</ele>
        <time>2019-09-25T11:08:23Z</time>
      </trkpt>
      <trkpt lat="43.29742" lon="5.78871">
        <ele>606</ele>
        <time>2019-09-25T11:08:29Z</time>
      </trkpt>
      <trkpt lat="43.2974" lon="5.78877">
        <ele>607</ele>
        <time>2019-09-25T11:08:33Z</time>
      </trkpt>
      <trkpt lat="43.29739" lon="5.78885">
        <ele>605</ele>
        <time>2019-09-25T11:08:39Z</time>
      </trkpt>
      <trkpt lat="43.29739" lon="5.78893">
        <ele>606</ele>
        <time>2019-09-25T11:08:45Z</time>
      </trkpt>
      <trkpt lat="43.29737" lon="5.789">
        <ele>605</ele>
        <time>2019-09-25T11:08:51Z</time>
      </trkpt>
      <trkpt lat="43.29734" lon="5.78908">
        <ele>604</ele>
        <time>2019-09-25T11:08:57Z</time>
      </trkpt>
      <trkpt lat="43.29733" lon="5.78916">
        <ele>604</ele>
        <time>2019-09-25T11:09:03Z</time>
      </trkpt>
      <trkpt lat="43.29733" lon="5.78923">
        <ele>605</ele>
        <time>2019-09-25T11:09:07Z</time>
      </trkpt>
      <trkpt lat="43.29733" lon="5.7893">
        <ele>605</ele>
        <time>2019-09-25T11:09:13Z</time>
      </trkpt>
      <trkpt lat="43.29734" lon="5.78936">
        <ele>605</ele>
        <time>2019-09-25T11:09:17Z</time>
      </trkpt>
      <trkpt lat="43.29735" lon="5.78943">
        <ele>604</ele>
        <time>2019-09-25T11:09:21Z</time>
      </trkpt>
      <trkpt lat="43.29737" lon="5.78949">
        <ele>602</ele>
        <time>2019-09-25T11:09:25Z</time>
      </trkpt>
      <trkpt lat="43.29737" lon="5.78957">
        <ele>604</ele>
        <time>2019-09-25T11:09:31Z</time>
      </trkpt>
      <trkpt lat="43.29737" lon="5.78963">
        <ele>603</ele>
        <time>2019-09-25T11:09:35Z</time>
      </trkpt>
      <trkpt lat="43.29737" lon="5.78969">
        <ele>605</ele>
        <time>2019-09-25T11:09:39Z</time>
      </trkpt>
      <trkpt lat="43.29738" lon="5.78977">
        <ele>604</ele>
        <time>2019-09-25T11:09:45Z</time>
      </trkpt>
      <trkpt lat="43.2974" lon="5.78984">
        <ele>605</ele>
        <time>2019-09-25T11:09:49Z</time>
      </trkpt>
      <trkpt lat="43.29741" lon="5.7899">
        <ele>605</ele>
        <time>2019-09-25T11:09:53Z</time>
      </trkpt>
      <trkpt lat="43.29742" lon="5.78998">
        <ele>603</ele>
        <time>2019-09-25T11:09:59Z</time>
      </trkpt>
      <trkpt lat="43.29743" lon="5.79006">
        <ele>603</ele>
        <time>2019-09-25T11:10:05Z</time>
      </trkpt>
      <trkpt lat="43.29744" lon="5.79015">
        <ele>602</ele>
        <time>2019-09-25T11:10:11Z</time>
      </trkpt>
      <trkpt lat="43.29744" lon="5.79023">
        <ele>602</ele>
        <time>2019-09-25T11:10:19Z</time>
      </trkpt>
      <trkpt lat="43.29746" lon="5.7903">
        <ele>602</ele>
        <time>2019-09-25T11:10:27Z</time>
      </trkpt>
      <trkpt lat="43.29749" lon="5.79035">
        <ele>604</ele>
        <time>2019-09-25T11:10:43Z</time>
      </trkpt>
      <trkpt lat="43.2975" lon="5.79041">
        <ele>606</ele>
        <time>2019-09-25T11:11:23Z</time>
      </trkpt>
      <trkpt lat="43.2975" lon="5.79048">
        <ele>603</ele>
        <time>2019-09-25T11:11:51Z</time>
      </trkpt>
      <trkpt lat="43.29752" lon="5.79055">
        <ele>603</ele>
        <time>2019-09-25T11:14:11Z</time>
      </trkpt>
      <trkpt lat="43.29754" lon="5.79063">
        <ele>602</ele>
        <time>2019-09-25T11:14:17Z</time>
      </trkpt>
      <trkpt lat="43.29755" lon="5.79071">
        <ele>602</ele>
        <time>2019-09-25T11:14:23Z</time>
      </trkpt>
      <trkpt lat="43.29757" lon="5.79079">
        <ele>604</ele>
        <time>2019-09-25T11:14:29Z</time>
      </trkpt>
      <trkpt lat="43.29758" lon="5.79086">
        <ele>604</ele>
        <time>2019-09-25T11:14:35Z</time>
      </trkpt>
      <trkpt lat="43.29758" lon="5.79094">
        <ele>605</ele>
        <time>2019-09-25T11:14:41Z</time>
      </trkpt>
      <trkpt lat="43.29759" lon="5.79102">
        <ele>606</ele>
        <time>2019-09-25T11:14:47Z</time>
      </trkpt>
      <trkpt lat="43.2976" lon="5.79109">
        <ele>604</ele>
        <time>2019-09-25T11:14:51Z</time>
      </trkpt>
      <trkpt lat="43.2976" lon="5.79116">
        <ele>605</ele>
        <time>2019-09-25T11:14:57Z</time>
      </trkpt>
      <trkpt lat="43.29761" lon="5.79125">
        <ele>605</ele>
        <time>2019-09-25T11:15:03Z</time>
      </trkpt>
      <trkpt lat="43.29761" lon="5.79132">
        <ele>604</ele>
        <time>2019-09-25T11:15:09Z</time>
      </trkpt>
      <trkpt lat="43.29761" lon="5.79141">
        <ele>604</ele>
        <time>2019-09-25T11:15:15Z</time>
      </trkpt>
      <trkpt lat="43.29763" lon="5.79147">
        <ele>603</ele>
        <time>2019-09-25T11:15:19Z</time>
      </trkpt>
      <trkpt lat="43.29764" lon="5.79155">
        <ele>604</ele>
        <time>2019-09-25T11:15:25Z</time>
      </trkpt>
      <trkpt lat="43.29764" lon="5.79163">
        <ele>602</ele>
        <time>2019-09-25T11:15:31Z</time>
      </trkpt>
      <trkpt lat="43.29765" lon="5.7917">
        <ele>603</ele>
        <time>2019-09-25T11:15:37Z</time>
      </trkpt>
      <trkpt lat="43.29766" lon="5.79178">
        <ele>600</ele>
        <time>2019-09-25T11:15:43Z</time>
      </trkpt>
      <trkpt lat="43.29766" lon="5.79187">
        <ele>602</ele>
        <time>2019-09-25T11:15:49Z</time>
      </trkpt>
      <trkpt lat="43.29763" lon="5.79192">
        <ele>601</ele>
        <time>2019-09-25T11:15:53Z</time>
      </trkpt>
      <trkpt lat="43.29758" lon="5.79192">
        <ele>600</ele>
        <time>2019-09-25T11:15:59Z</time>
      </trkpt>
      <trkpt lat="43.29753" lon="5.79188">
        <ele>598</ele>
        <time>2019-09-25T11:16:05Z</time>
      </trkpt>
      <trkpt lat="43.2975" lon="5.79183">
        <ele>598</ele>
        <time>2019-09-25T11:16:11Z</time>
      </trkpt>
      <trkpt lat="43.2975" lon="5.79177">
        <ele>598</ele>
        <time>2019-09-25T11:16:21Z</time>
      </trkpt>
      <trkpt lat="43.29748" lon="5.79171">
        <ele>598</ele>
        <time>2019-09-25T11:16:29Z</time>
      </trkpt>
      <trkpt lat="43.29743" lon="5.79172">
        <ele>601</ele>
        <time>2019-09-25T11:17:59Z</time>
      </trkpt>
      <trkpt lat="43.29738" lon="5.79167">
        <ele>602</ele>
        <time>2019-09-25T11:18:07Z</time>
      </trkpt>
      <trkpt lat="43.29738" lon="5.7916">
        <ele>600</ele>
        <time>2019-09-25T11:18:29Z</time>
      </trkpt>
      <trkpt lat="43.29742" lon="5.79157">
        <ele>599</ele>
        <time>2019-09-25T11:18:39Z</time>
      </trkpt>
      <trkpt lat="43.29741" lon="5.79149">
        <ele>598</ele>
        <time>2019-09-25T11:18:47Z</time>
      </trkpt>
      <trkpt lat="43.2974" lon="5.79157">
        <ele>598</ele>
        <time>2019-09-25T11:19:13Z</time>
      </trkpt>
      <trkpt lat="43.29739" lon="5.79164">
        <ele>599</ele>
        <time>2019-09-25T11:19:47Z</time>
      </trkpt>
      <trkpt lat="43.29742" lon="5.79169">
        <ele>598</ele>
        <time>2019-09-25T11:19:55Z</time>
      </trkpt>
      <trkpt lat="43.29744" lon="5.79176">
        <ele>598</ele>
        <time>2019-09-25T11:20:05Z</time>
      </trkpt>
      <trkpt lat="43.29746" lon="5.79183">
        <ele>601</ele>
        <time>2019-09-25T11:21:37Z</time>
      </trkpt>
      <trkpt lat="43.29742" lon="5.79186">
        <ele>602</ele>
        <time>2019-09-25T11:21:49Z</time>
      </trkpt>
      <trkpt lat="43.29736" lon="5.79187">
        <ele>601</ele>
        <time>2019-09-25T11:21:55Z</time>
      </trkpt>
      <trkpt lat="43.29731" lon="5.79189">
        <ele>601</ele>
        <time>2019-09-25T11:22:01Z</time>
      </trkpt>
      <trkpt lat="43.29725" lon="5.7919">
        <ele>602</ele>
        <time>2019-09-25T11:22:07Z</time>
      </trkpt>
      <trkpt lat="43.29719" lon="5.79193">
        <ele>601</ele>
        <time>2019-09-25T11:22:13Z</time>
      </trkpt>
      <trkpt lat="43.29714" lon="5.79195">
        <ele>602</ele>
        <time>2019-09-25T11:22:19Z</time>
      </trkpt>
      <trkpt lat="43.29709" lon="5.79199">
        <ele>602</ele>
        <time>2019-09-25T11:22:25Z</time>
      </trkpt>
      <trkpt lat="43.29703" lon="5.79202">
        <ele>601</ele>
        <time>2019-09-25T11:22:31Z</time>
      </trkpt>
      <trkpt lat="43.29698" lon="5.79206">
        <ele>601</ele>
        <time>2019-09-25T11:22:37Z</time>
      </trkpt>
      <trkpt lat="43.29693" lon="5.7921">
        <ele>599</ele>
        <time>2019-09-25T11:22:43Z</time>
      </trkpt>
      <trkpt lat="43.29689" lon="5.79215">
        <ele>599</ele>
        <time>2019-09-25T11:22:49Z</time>
      </trkpt>
      <trkpt lat="43.29684" lon="5.79218">
        <ele>598</ele>
        <time>2019-09-25T11:22:55Z</time>
      </trkpt>
      <trkpt lat="43.2968" lon="5.79214">
        <ele>597</ele>
        <time>2019-09-25T11:23:03Z</time>
      </trkpt>
      <trkpt lat="43.29676" lon="5.79208">
        <ele>598</ele>
        <time>2019-09-25T11:23:09Z</time>
      </trkpt>
      <trkpt lat="43.29671" lon="5.79203">
        <ele>597</ele>
        <time>2019-09-25T11:23:15Z</time>
      </trkpt>
      <trkpt lat="43.29666" lon="5.79201">
        <ele>596</ele>
        <time>2019-09-25T11:23:21Z</time>
      </trkpt>
      <trkpt lat="43.29661" lon="5.792">
        <ele>595</ele>
        <time>2019-09-25T11:23:25Z</time>
      </trkpt>
      <trkpt lat="43.29654" lon="5.79199">
        <ele>594</ele>
        <time>2019-09-25T11:23:31Z</time>
      </trkpt>
      <trkpt lat="43.29649" lon="5.79197">
        <ele>594</ele>
        <time>2019-09-25T11:23:37Z</time>
      </trkpt>
      <trkpt lat="43.29643" lon="5.79194">
        <ele>593</ele>
        <time>2019-09-25T11:23:43Z</time>
      </trkpt>
      <trkpt lat="43.29638" lon="5.7919">
        <ele>592</ele>
        <time>2019-09-25T11:23:49Z</time>
      </trkpt>
      <trkpt lat="43.29632" lon="5.79186">
        <ele>592</ele>
        <time>2019-09-25T11:23:55Z</time>
      </trkpt>
      <trkpt lat="43.29628" lon="5.7918">
        <ele>591</ele>
        <time>2019-09-25T11:24:01Z</time>
      </trkpt>
      <trkpt lat="43.29621" lon="5.79178">
        <ele>593</ele>
        <time>2019-09-25T11:24:07Z</time>
      </trkpt>
      <trkpt lat="43.29616" lon="5.79176">
        <ele>593</ele>
        <time>2019-09-25T11:24:13Z</time>
      </trkpt>
      <trkpt lat="43.29609" lon="5.79174">
        <ele>593</ele>
        <time>2019-09-25T11:24:19Z</time>
      </trkpt>
      <trkpt lat="43.29603" lon="5.79171">
        <ele>594</ele>
        <time>2019-09-25T11:24:25Z</time>
      </trkpt>
      <trkpt lat="43.29598" lon="5.79167">
        <ele>593</ele>
        <time>2019-09-25T11:24:31Z</time>
      </trkpt>
      <trkpt lat="43.29594" lon="5.79164">
        <ele>594</ele>
        <time>2019-09-25T11:24:35Z</time>
      </trkpt>
      <trkpt lat="43.29589" lon="5.79159">
        <ele>595</ele>
        <time>2019-09-25T11:24:39Z</time>
      </trkpt>
      <trkpt lat="43.29585" lon="5.79154">
        <ele>594</ele>
        <time>2019-09-25T11:24:43Z</time>
      </trkpt>
      <trkpt lat="43.29579" lon="5.79151">
        <ele>595</ele>
        <time>2019-09-25T11:24:49Z</time>
      </trkpt>
      <trkpt lat="43.29574" lon="5.7915">
        <ele>595</ele>
        <time>2019-09-25T11:24:53Z</time>
      </trkpt>
      <trkpt lat="43.2957" lon="5.79153">
        <ele>594</ele>
        <time>2019-09-25T11:24:57Z</time>
      </trkpt>
      <trkpt lat="43.29565" lon="5.79157">
        <ele>594</ele>
        <time>2019-09-25T11:25:03Z</time>
      </trkpt>
      <trkpt lat="43.29559" lon="5.7916">
        <ele>593</ele>
        <time>2019-09-25T11:25:09Z</time>
      </trkpt>
      <trkpt lat="43.29554" lon="5.79162">
        <ele>593</ele>
        <time>2019-09-25T11:25:15Z</time>
      </trkpt>
      <trkpt lat="43.29547" lon="5.79165">
        <ele>592</ele>
        <time>2019-09-25T11:25:21Z</time>
      </trkpt>
      <trkpt lat="43.29542" lon="5.79169">
        <ele>591</ele>
        <time>2019-09-25T11:25:27Z</time>
      </trkpt>
      <trkpt lat="43.29536" lon="5.79172">
        <ele>589</ele>
        <time>2019-09-25T11:25:33Z</time>
      </trkpt>
      <trkpt lat="43.29531" lon="5.79172">
        <ele>590</ele>
        <time>2019-09-25T11:25:51Z</time>
      </trkpt>
      <trkpt lat="43.29526" lon="5.79175">
        <ele>589</ele>
        <time>2019-09-25T11:25:59Z</time>
      </trkpt>
      <trkpt lat="43.2952" lon="5.79174">
        <ele>591</ele>
        <time>2019-09-25T11:26:05Z</time>
      </trkpt>
      <trkpt lat="43.29515" lon="5.79175">
        <ele>591</ele>
        <time>2019-09-25T11:26:21Z</time>
      </trkpt>
      <trkpt lat="43.2951" lon="5.79177">
        <ele>591</ele>
        <time>2019-09-25T11:26:27Z</time>
      </trkpt>
      <trkpt lat="43.29503" lon="5.79177">
        <ele>591</ele>
        <time>2019-09-25T11:26:33Z</time>
      </trkpt>
      <trkpt lat="43.29498" lon="5.79179">
        <ele>591</ele>
        <time>2019-09-25T11:26:39Z</time>
      </trkpt>
      <trkpt lat="43.29493" lon="5.79179">
        <ele>588</ele>
        <time>2019-09-25T11:26:45Z</time>
      </trkpt>
      <trkpt lat="43.29487" lon="5.79182">
        <ele>589</ele>
        <time>2019-09-25T11:26:51Z</time>
      </trkpt>
      <trkpt lat="43.29482" lon="5.79186">
        <ele>589</ele>
        <time>2019-09-25T11:26:57Z</time>
      </trkpt>
      <trkpt lat="43.29477" lon="5.79187">
        <ele>589</ele>
        <time>2019-09-25T11:27:03Z</time>
      </trkpt>
      <trkpt lat="43.29472" lon="5.79186">
        <ele>589</ele>
        <time>2019-09-25T11:27:09Z</time>
      </trkpt>
      <trkpt lat="43.29468" lon="5.79183">
        <ele>590</ele>
        <time>2019-09-25T11:27:31Z</time>
      </trkpt>
      <trkpt lat="43.29462" lon="5.79185">
        <ele>590</ele>
        <time>2019-09-25T11:27:37Z</time>
      </trkpt>
      <trkpt lat="43.29456" lon="5.79188">
        <ele>589</ele>
        <time>2019-09-25T11:27:43Z</time>
      </trkpt>
      <trkpt lat="43.29449" lon="5.79187">
        <ele>589</ele>
        <time>2019-09-25T11:27:49Z</time>
      </trkpt>
      <trkpt lat="43.29444" lon="5.79182">
        <ele>589</ele>
        <time>2019-09-25T11:27:55Z</time>
      </trkpt>
      <trkpt lat="43.29439" lon="5.79177">
        <ele>588</ele>
        <time>2019-09-25T11:28:01Z</time>
      </trkpt>
      <trkpt lat="43.29435" lon="5.79171">
        <ele>587</ele>
        <time>2019-09-25T11:28:07Z</time>
      </trkpt>
      <trkpt lat="43.2943" lon="5.79169">
        <ele>587</ele>
        <time>2019-09-25T11:28:11Z</time>
      </trkpt>
      <trkpt lat="43.29426" lon="5.79169">
        <ele>587</ele>
        <time>2019-09-25T11:28:15Z</time>
      </trkpt>
      <trkpt lat="43.29419" lon="5.79171">
        <ele>586</ele>
        <time>2019-09-25T11:28:21Z</time>
      </trkpt>
      <trkpt lat="43.29415" lon="5.79174">
        <ele>585</ele>
        <time>2019-09-25T11:28:25Z</time>
      </trkpt>
      <trkpt lat="43.2941" lon="5.79179">
        <ele>585</ele>
        <time>2019-09-25T11:28:31Z</time>
      </trkpt>
      <trkpt lat="43.29405" lon="5.79183">
        <ele>584</ele>
        <time>2019-09-25T11:28:37Z</time>
      </trkpt>
      <trkpt lat="43.29398" lon="5.79185">
        <ele>583</ele>
        <time>2019-09-25T11:28:43Z</time>
      </trkpt>
      <trkpt lat="43.29393" lon="5.79187">
        <ele>583</ele>
        <time>2019-09-25T11:28:49Z</time>
      </trkpt>
      <trkpt lat="43.29387" lon="5.79189">
        <ele>584</ele>
        <time>2019-09-25T11:28:55Z</time>
      </trkpt>
      <trkpt lat="43.29382" lon="5.79188">
        <ele>584</ele>
        <time>2019-09-25T11:29:01Z</time>
      </trkpt>
      <trkpt lat="43.29376" lon="5.79185">
        <ele>584</ele>
        <time>2019-09-25T11:29:07Z</time>
      </trkpt>
      <trkpt lat="43.29371" lon="5.79184">
        <ele>585</ele>
        <time>2019-09-25T11:29:11Z</time>
      </trkpt>
      <trkpt lat="43.29365" lon="5.79182">
        <ele>585</ele>
        <time>2019-09-25T11:29:17Z</time>
      </trkpt>
      <trkpt lat="43.29358" lon="5.7918">
        <ele>585</ele>
        <time>2019-09-25T11:29:23Z</time>
      </trkpt>
      <trkpt lat="43.29354" lon="5.7918">
        <ele>585</ele>
        <time>2019-09-25T11:29:27Z</time>
      </trkpt>
      <trkpt lat="43.29347" lon="5.7918">
        <ele>584</ele>
        <time>2019-09-25T11:29:33Z</time>
      </trkpt>
      <trkpt lat="43.29342" lon="5.79179">
        <ele>585</ele>
        <time>2019-09-25T11:29:37Z</time>
      </trkpt>
      <trkpt lat="43.29335" lon="5.79179">
        <ele>585</ele>
        <time>2019-09-25T11:29:43Z</time>
      </trkpt>
      <trkpt lat="43.2933" lon="5.79173">
        <ele>584</ele>
        <time>2019-09-25T11:29:49Z</time>
      </trkpt>
      <trkpt lat="43.29328" lon="5.79168">
        <ele>583</ele>
        <time>2019-09-25T11:29:53Z</time>
      </trkpt>
      <trkpt lat="43.29324" lon="5.79161">
        <ele>583</ele>
        <time>2019-09-25T11:29:59Z</time>
      </trkpt>
      <trkpt lat="43.2932" lon="5.79155">
        <ele>584</ele>
        <time>2019-09-25T11:30:05Z</time>
      </trkpt>
      <trkpt lat="43.29317" lon="5.7915">
        <ele>584</ele>
        <time>2019-09-25T11:30:09Z</time>
      </trkpt>
      <trkpt lat="43.29313" lon="5.79145">
        <ele>584</ele>
        <time>2019-09-25T11:30:13Z</time>
      </trkpt>
      <trkpt lat="43.2931" lon="5.7914">
        <ele>584</ele>
        <time>2019-09-25T11:30:17Z</time>
      </trkpt>
      <trkpt lat="43.29308" lon="5.79132">
        <ele>583</ele>
        <time>2019-09-25T11:30:23Z</time>
      </trkpt>
      <trkpt lat="43.29306" lon="5.79125">
        <ele>582</ele>
        <time>2019-09-25T11:30:29Z</time>
      </trkpt>
      <trkpt lat="43.29303" lon="5.79118">
        <ele>583</ele>
        <time>2019-09-25T11:30:35Z</time>
      </trkpt>
      <trkpt lat="43.293" lon="5.7911">
        <ele>583</ele>
        <time>2019-09-25T11:30:41Z</time>
      </trkpt>
      <trkpt lat="43.29296" lon="5.79103">
        <ele>581</ele>
        <time>2019-09-25T11:30:47Z</time>
      </trkpt>
      <trkpt lat="43.29292" lon="5.79101">
        <ele>580</ele>
        <time>2019-09-25T11:30:51Z</time>
      </trkpt>
      <trkpt lat="43.29287" lon="5.79098">
        <ele>581</ele>
        <time>2019-09-25T11:30:55Z</time>
      </trkpt>
      <trkpt lat="43.29281" lon="5.79094">
        <ele>581</ele>
        <time>2019-09-25T11:31:01Z</time>
      </trkpt>
      <trkpt lat="43.29276" lon="5.79091">
        <ele>581</ele>
        <time>2019-09-25T11:31:05Z</time>
      </trkpt>
      <trkpt lat="43.2927" lon="5.79087">
        <ele>580</ele>
        <time>2019-09-25T11:31:11Z</time>
      </trkpt>
      <trkpt lat="43.29266" lon="5.79084">
        <ele>581</ele>
        <time>2019-09-25T11:31:15Z</time>
      </trkpt>
      <trkpt lat="43.29261" lon="5.7908">
        <ele>581</ele>
        <time>2019-09-25T11:31:21Z</time>
      </trkpt>
      <trkpt lat="43.29255" lon="5.79076">
        <ele>581</ele>
        <time>2019-09-25T11:31:27Z</time>
      </trkpt>
      <trkpt lat="43.29251" lon="5.79072">
        <ele>581</ele>
        <time>2019-09-25T11:31:31Z</time>
      </trkpt>
      <trkpt lat="43.29246" lon="5.79069">
        <ele>582</ele>
        <time>2019-09-25T11:31:35Z</time>
      </trkpt>
      <trkpt lat="43.29242" lon="5.79068">
        <ele>582</ele>
        <time>2019-09-25T11:31:39Z</time>
      </trkpt>
      <trkpt lat="43.29236" lon="5.79067">
        <ele>583</ele>
        <time>2019-09-25T11:31:45Z</time>
      </trkpt>
      <trkpt lat="43.29231" lon="5.79065">
        <ele>584</ele>
        <time>2019-09-25T11:31:49Z</time>
      </trkpt>
      <trkpt lat="43.29225" lon="5.79064">
        <ele>584</ele>
        <time>2019-09-25T11:31:55Z</time>
      </trkpt>
      <trkpt lat="43.29218" lon="5.79063">
        <ele>584</ele>
        <time>2019-09-25T11:32:01Z</time>
      </trkpt>
      <trkpt lat="43.29214" lon="5.79063">
        <ele>583</ele>
        <time>2019-09-25T11:32:05Z</time>
      </trkpt>
      <trkpt lat="43.29209" lon="5.79064">
        <ele>583</ele>
        <time>2019-09-25T11:32:09Z</time>
      </trkpt>
      <trkpt lat="43.29203" lon="5.79067">
        <ele>582</ele>
        <time>2019-09-25T11:32:15Z</time>
      </trkpt>
      <trkpt lat="43.29196" lon="5.7907">
        <ele>582</ele>
        <time>2019-09-25T11:32:21Z</time>
      </trkpt>
      <trkpt lat="43.29191" lon="5.79076">
        <ele>582</ele>
        <time>2019-09-25T11:32:27Z</time>
      </trkpt>
      <trkpt lat="43.29186" lon="5.79081">
        <ele>582</ele>
        <time>2019-09-25T11:32:33Z</time>
      </trkpt>
      <trkpt lat="43.2918" lon="5.79083">
        <ele>582</ele>
        <time>2019-09-25T11:32:39Z</time>
      </trkpt>
      <trkpt lat="43.29173" lon="5.79085">
        <ele>582</ele>
        <time>2019-09-25T11:32:45Z</time>
      </trkpt>
      <trkpt lat="43.29167" lon="5.79086">
        <ele>583</ele>
        <time>2019-09-25T11:32:51Z</time>
      </trkpt>
      <trkpt lat="43.29161" lon="5.79083">
        <ele>583</ele>
        <time>2019-09-25T11:32:57Z</time>
      </trkpt>
      <trkpt lat="43.29155" lon="5.79081">
        <ele>583</ele>
        <time>2019-09-25T11:33:03Z</time>
      </trkpt>
      <trkpt lat="43.29149" lon="5.79082">
        <ele>581</ele>
        <time>2019-09-25T11:33:09Z</time>
      </trkpt>
      <trkpt lat="43.29143" lon="5.79085">
        <ele>582</ele>
        <time>2019-09-25T11:33:15Z</time>
      </trkpt>
      <trkpt lat="43.29138" lon="5.79089">
        <ele>580</ele>
        <time>2019-09-25T11:33:21Z</time>
      </trkpt>
      <trkpt lat="43.29132" lon="5.79091">
        <ele>581</ele>
        <time>2019-09-25T11:33:27Z</time>
      </trkpt>
      <trkpt lat="43.29127" lon="5.79094">
        <ele>580</ele>
        <time>2019-09-25T11:33:33Z</time>
      </trkpt>
      <trkpt lat="43.29121" lon="5.79097">
        <ele>580</ele>
        <time>2019-09-25T11:33:39Z</time>
      </trkpt>
      <trkpt lat="43.29115" lon="5.791">
        <ele>580</ele>
        <time>2019-09-25T11:33:45Z</time>
      </trkpt>
      <trkpt lat="43.2911" lon="5.79101">
        <ele>579</ele>
        <time>2019-09-25T11:33:49Z</time>
      </trkpt>
      <trkpt lat="43.29104" lon="5.79104">
        <ele>578</ele>
        <time>2019-09-25T11:33:55Z</time>
      </trkpt>
      <trkpt lat="43.291" lon="5.79107">
        <ele>579</ele>
        <time>2019-09-25T11:34:01Z</time>
      </trkpt>
      <trkpt lat="43.29095" lon="5.7911">
        <ele>579</ele>
        <time>2019-09-25T11:34:07Z</time>
      </trkpt>
      <trkpt lat="43.29089" lon="5.79114">
        <ele>580</ele>
        <time>2019-09-25T11:34:13Z</time>
      </trkpt>
      <trkpt lat="43.29083" lon="5.79118">
        <ele>580</ele>
        <time>2019-09-25T11:34:19Z</time>
      </trkpt>
      <trkpt lat="43.29079" lon="5.79121">
        <ele>579</ele>
        <time>2019-09-25T11:34:23Z</time>
      </trkpt>
      <trkpt lat="43.29076" lon="5.79127">
        <ele>579</ele>
        <time>2019-09-25T11:34:27Z</time>
      </trkpt>
      <trkpt lat="43.29073" lon="5.79131">
        <ele>579</ele>
        <time>2019-09-25T11:34:31Z</time>
      </trkpt>
      <trkpt lat="43.2907" lon="5.79136">
        <ele>579</ele>
        <time>2019-09-25T11:34:35Z</time>
      </trkpt>
      <trkpt lat="43.29067" lon="5.79144">
        <ele>578</ele>
        <time>2019-09-25T11:34:41Z</time>
      </trkpt>
      <trkpt lat="43.29064" lon="5.79152">
        <ele>577</ele>
        <time>2019-09-25T11:34:47Z</time>
      </trkpt>
      <trkpt lat="43.29061" lon="5.79158">
        <ele>578</ele>
        <time>2019-09-25T11:34:51Z</time>
      </trkpt>
      <trkpt lat="43.29057" lon="5.79165">
        <ele>578</ele>
        <time>2019-09-25T11:34:57Z</time>
      </trkpt>
      <trkpt lat="43.29054" lon="5.79173">
        <ele>575</ele>
        <time>2019-09-25T11:35:15Z</time>
      </trkpt>
      <trkpt lat="43.29051" lon="5.79179">
        <ele>573</ele>
        <time>2019-09-25T11:35:19Z</time>
      </trkpt>
      <trkpt lat="43.29047" lon="5.79184">
        <ele>573</ele>
        <time>2019-09-25T11:35:25Z</time>
      </trkpt>
      <trkpt lat="43.29041" lon="5.79186">
        <ele>573</ele>
        <time>2019-09-25T11:35:29Z</time>
      </trkpt>
      <trkpt lat="43.29036" lon="5.79188">
        <ele>573</ele>
        <time>2019-09-25T11:35:35Z</time>
      </trkpt>
      <trkpt lat="43.2903" lon="5.79187">
        <ele>573</ele>
        <time>2019-09-25T11:35:41Z</time>
      </trkpt>
      <trkpt lat="43.29026" lon="5.79184">
        <ele>572</ele>
        <time>2019-09-25T11:35:47Z</time>
      </trkpt>
      <trkpt lat="43.29022" lon="5.79178">
        <ele>571</ele>
        <time>2019-09-25T11:35:53Z</time>
      </trkpt>
      <trkpt lat="43.29017" lon="5.79171">
        <ele>570</ele>
        <time>2019-09-25T11:35:59Z</time>
      </trkpt>
      <trkpt lat="43.29012" lon="5.79165">
        <ele>571</ele>
        <time>2019-09-25T11:36:05Z</time>
      </trkpt>
      <trkpt lat="43.29008" lon="5.79159">
        <ele>570</ele>
        <time>2019-09-25T11:36:11Z</time>
      </trkpt>
      <trkpt lat="43.29006" lon="5.79153">
        <ele>572</ele>
        <time>2019-09-25T11:36:15Z</time>
      </trkpt>
      <trkpt lat="43.29004" lon="5.79148">
        <ele>572</ele>
        <time>2019-09-25T11:36:19Z</time>
      </trkpt>
      <trkpt lat="43.29001" lon="5.7914">
        <ele>573</ele>
        <time>2019-09-25T11:36:25Z</time>
      </trkpt>
      <trkpt lat="43.28997" lon="5.79133">
        <ele>574</ele>
        <time>2019-09-25T11:36:31Z</time>
      </trkpt>
      <trkpt lat="43.28994" lon="5.79129">
        <ele>574</ele>
        <time>2019-09-25T11:36:37Z</time>
      </trkpt>
      <trkpt lat="43.28989" lon="5.79124">
        <ele>572</ele>
        <time>2019-09-25T11:36:43Z</time>
      </trkpt>
      <trkpt lat="43.28985" lon="5.7912">
        <ele>571</ele>
        <time>2019-09-25T11:36:47Z</time>
      </trkpt>
      <trkpt lat="43.2898" lon="5.79115">
        <ele>570</ele>
        <time>2019-09-25T11:36:53Z</time>
      </trkpt>
      <trkpt lat="43.28976" lon="5.79113">
        <ele>570</ele>
        <time>2019-09-25T11:36:57Z</time>
      </trkpt>
      <trkpt lat="43.28971" lon="5.79109">
        <ele>570</ele>
        <time>2019-09-25T11:37:03Z</time>
      </trkpt>
      <trkpt lat="43.28965" lon="5.79104">
        <ele>569</ele>
        <time>2019-09-25T11:37:09Z</time>
      </trkpt>
      <trkpt lat="43.2896" lon="5.79099">
        <ele>569</ele>
        <time>2019-09-25T11:37:15Z</time>
      </trkpt>
      <trkpt lat="43.28955" lon="5.79094">
        <ele>569</ele>
        <time>2019-09-25T11:37:21Z</time>
      </trkpt>
      <trkpt lat="43.28952" lon="5.79089">
        <ele>569</ele>
        <time>2019-09-25T11:37:25Z</time>
      </trkpt>
      <trkpt lat="43.28948" lon="5.79083">
        <ele>568</ele>
        <time>2019-09-25T11:37:31Z</time>
      </trkpt>
      <trkpt lat="43.28945" lon="5.79077">
        <ele>568</ele>
        <time>2019-09-25T11:37:37Z</time>
      </trkpt>
      <trkpt lat="43.28941" lon="5.79072">
        <ele>572</ele>
        <time>2019-09-25T11:39:11Z</time>
      </trkpt>
      <trkpt lat="43.28938" lon="5.79066">
        <ele>571</ele>
        <time>2019-09-25T11:39:19Z</time>
      </trkpt>
      <trkpt lat="43.28936" lon="5.7906">
        <ele>572</ele>
        <time>2019-09-25T11:39:25Z</time>
      </trkpt>
      <trkpt lat="43.28934" lon="5.79053">
        <ele>572</ele>
        <time>2019-09-25T11:39:31Z</time>
      </trkpt>
      <trkpt lat="43.28932" lon="5.79046">
        <ele>571</ele>
        <time>2019-09-25T11:39:37Z</time>
      </trkpt>
      <trkpt lat="43.28929" lon="5.79038">
        <ele>571</ele>
        <time>2019-09-25T11:39:43Z</time>
      </trkpt>
      <trkpt lat="43.28927" lon="5.79031">
        <ele>570</ele>
        <time>2019-09-25T11:39:49Z</time>
      </trkpt>
      <trkpt lat="43.28926" lon="5.79022">
        <ele>569</ele>
        <time>2019-09-25T11:39:55Z</time>
      </trkpt>
      <trkpt lat="43.28925" lon="5.79015">
        <ele>569</ele>
        <time>2019-09-25T11:40:01Z</time>
      </trkpt>
      <trkpt lat="43.28923" lon="5.79007">
        <ele>569</ele>
        <time>2019-09-25T11:40:07Z</time>
      </trkpt>
      <trkpt lat="43.28921" lon="5.79">
        <ele>569</ele>
        <time>2019-09-25T11:40:13Z</time>
      </trkpt>
      <trkpt lat="43.2892" lon="5.78992">
        <ele>570</ele>
        <time>2019-09-25T11:40:19Z</time>
      </trkpt>
      <trkpt lat="43.28919" lon="5.78984">
        <ele>569</ele>
        <time>2019-09-25T11:40:25Z</time>
      </trkpt>
      <trkpt lat="43.28918" lon="5.78976">
        <ele>568</ele>
        <time>2019-09-25T11:40:31Z</time>
      </trkpt>
      <trkpt lat="43.28918" lon="5.78969">
        <ele>568</ele>
        <time>2019-09-25T11:40:35Z</time>
      </trkpt>
      <trkpt lat="43.28918" lon="5.78961">
        <ele>567</ele>
        <time>2019-09-25T11:40:41Z</time>
      </trkpt>
      <trkpt lat="43.28918" lon="5.78953">
        <ele>568</ele>
        <time>2019-09-25T11:40:47Z</time>
      </trkpt>
      <trkpt lat="43.28917" lon="5.78947">
        <ele>568</ele>
        <time>2019-09-25T11:40:51Z</time>
      </trkpt>
      <trkpt lat="43.28916" lon="5.7894">
        <ele>569</ele>
        <time>2019-09-25T11:40:55Z</time>
      </trkpt>
      <trkpt lat="43.28915" lon="5.78932">
        <ele>569</ele>
        <time>2019-09-25T11:41:01Z</time>
      </trkpt>
      <trkpt lat="43.28913" lon="5.78924">
        <ele>569</ele>
        <time>2019-09-25T11:41:07Z</time>
      </trkpt>
      <trkpt lat="43.28911" lon="5.78916">
        <ele>568</ele>
        <time>2019-09-25T11:41:13Z</time>
      </trkpt>
      <trkpt lat="43.28909" lon="5.78908">
        <ele>569</ele>
        <time>2019-09-25T11:41:19Z</time>
      </trkpt>
      <trkpt lat="43.28907" lon="5.789">
        <ele>569</ele>
        <time>2019-09-25T11:41:25Z</time>
      </trkpt>
      <trkpt lat="43.28904" lon="5.78893">
        <ele>568</ele>
        <time>2019-09-25T11:41:31Z</time>
      </trkpt>
      <trkpt lat="43.28902" lon="5.78885">
        <ele>568</ele>
        <time>2019-09-25T11:41:37Z</time>
      </trkpt>
      <trkpt lat="43.289" lon="5.78876">
        <ele>570</ele>
        <time>2019-09-25T11:41:43Z</time>
      </trkpt>
      <trkpt lat="43.28898" lon="5.7887">
        <ele>570</ele>
        <time>2019-09-25T11:41:47Z</time>
      </trkpt>
      <trkpt lat="43.28895" lon="5.78864">
        <ele>568</ele>
        <time>2019-09-25T11:41:51Z</time>
      </trkpt>
      <trkpt lat="43.28894" lon="5.78857">
        <ele>568</ele>
        <time>2019-09-25T11:41:57Z</time>
      </trkpt>
      <trkpt lat="43.28891" lon="5.78852">
        <ele>568</ele>
        <time>2019-09-25T11:42:01Z</time>
      </trkpt>
      <trkpt lat="43.28888" lon="5.78844">
        <ele>567</ele>
        <time>2019-09-25T11:42:07Z</time>
      </trkpt>
      <trkpt lat="43.28885" lon="5.78837">
        <ele>567</ele>
        <time>2019-09-25T11:42:13Z</time>
      </trkpt>
      <trkpt lat="43.28882" lon="5.78832">
        <ele>567</ele>
        <time>2019-09-25T11:44:05Z</time>
      </trkpt>
      <trkpt lat="43.28879" lon="5.78826">
        <ele>567</ele>
        <time>2019-09-25T11:44:11Z</time>
      </trkpt>
      <trkpt lat="43.28875" lon="5.78819">
        <ele>567</ele>
        <time>2019-09-25T11:44:17Z</time>
      </trkpt>
      <trkpt lat="43.28872" lon="5.78812">
        <ele>566</ele>
        <time>2019-09-25T11:44:23Z</time>
      </trkpt>
      <trkpt lat="43.28869" lon="5.78806">
        <ele>565</ele>
        <time>2019-09-25T11:44:29Z</time>
      </trkpt>
      <trkpt lat="43.28868" lon="5.788">
        <ele>564</ele>
        <time>2019-09-25T11:44:33Z</time>
      </trkpt>
      <trkpt lat="43.28868" lon="5.78791">
        <ele>564</ele>
        <time>2019-09-25T11:44:39Z</time>
      </trkpt>
      <trkpt lat="43.28866" lon="5.78784">
        <ele>563</ele>
        <time>2019-09-25T11:44:43Z</time>
      </trkpt>
      <trkpt lat="43.28864" lon="5.78778">
        <ele>562</ele>
        <time>2019-09-25T11:44:47Z</time>
      </trkpt>
      <trkpt lat="43.28862" lon="5.78771">
        <ele>564</ele>
        <time>2019-09-25T11:44:53Z</time>
      </trkpt>
      <trkpt lat="43.28858" lon="5.78763">
        <ele>565</ele>
        <time>2019-09-25T11:44:59Z</time>
      </trkpt>
      <trkpt lat="43.28855" lon="5.78758">
        <ele>566</ele>
        <time>2019-09-25T11:45:03Z</time>
      </trkpt>
      <trkpt lat="43.28851" lon="5.7875">
        <ele>565</ele>
        <time>2019-09-25T11:45:09Z</time>
      </trkpt>
      <trkpt lat="43.28849" lon="5.78744">
        <ele>566</ele>
        <time>2019-09-25T11:45:13Z</time>
      </trkpt>
      <trkpt lat="43.28844" lon="5.78737">
        <ele>566</ele>
        <time>2019-09-25T11:45:19Z</time>
      </trkpt>
      <trkpt lat="43.2884" lon="5.78731">
        <ele>568</ele>
        <time>2019-09-25T11:45:25Z</time>
      </trkpt>
      <trkpt lat="43.28839" lon="5.78722">
        <ele>567</ele>
        <time>2019-09-25T11:45:29Z</time>
      </trkpt>
      <trkpt lat="43.28836" lon="5.78716">
        <ele>566</ele>
        <time>2019-09-25T11:45:33Z</time>
      </trkpt>
      <trkpt lat="43.28833" lon="5.78708">
        <ele>566</ele>
        <time>2019-09-25T11:45:39Z</time>
      </trkpt>
      <trkpt lat="43.2883" lon="5.78702">
        <ele>562</ele>
        <time>2019-09-25T11:45:43Z</time>
      </trkpt>
      <trkpt lat="43.28826" lon="5.78696">
        <ele>561</ele>
        <time>2019-09-25T11:45:47Z</time>
      </trkpt>
      <trkpt lat="43.28823" lon="5.78689">
        <ele>562</ele>
        <time>2019-09-25T11:45:53Z</time>
      </trkpt>
      <trkpt lat="43.2882" lon="5.78681">
        <ele>562</ele>
        <time>2019-09-25T11:45:59Z</time>
      </trkpt>
      <trkpt lat="43.28815" lon="5.78675">
        <ele>562</ele>
        <time>2019-09-25T11:46:05Z</time>
      </trkpt>
      <trkpt lat="43.28811" lon="5.78668">
        <ele>561</ele>
        <time>2019-09-25T11:46:17Z</time>
      </trkpt>
      <trkpt lat="43.28807" lon="5.78661">
        <ele>561</ele>
        <time>2019-09-25T11:46:23Z</time>
      </trkpt>
      <trkpt lat="43.28804" lon="5.78655">
        <ele>559</ele>
        <time>2019-09-25T11:46:27Z</time>
      </trkpt>
      <trkpt lat="43.28801" lon="5.7865">
        <ele>559</ele>
        <time>2019-09-25T11:46:31Z</time>
      </trkpt>
      <trkpt lat="43.28798" lon="5.78645">
        <ele>558</ele>
        <time>2019-09-25T11:46:35Z</time>
      </trkpt>
      <trkpt lat="43.28792" lon="5.78641">
        <ele>557</ele>
        <time>2019-09-25T11:46:41Z</time>
      </trkpt>
      <trkpt lat="43.28787" lon="5.78636">
        <ele>556</ele>
        <time>2019-09-25T11:46:47Z</time>
      </trkpt>
      <trkpt lat="43.28783" lon="5.78631">
        <ele>555</ele>
        <time>2019-09-25T11:46:53Z</time>
      </trkpt>
      <trkpt lat="43.28778" lon="5.78627">
        <ele>555</ele>
        <time>2019-09-25T11:46:59Z</time>
      </trkpt>
      <trkpt lat="43.28774" lon="5.78625">
        <ele>553</ele>
        <time>2019-09-25T11:47:13Z</time>
      </trkpt>
      <trkpt lat="43.28769" lon="5.7862">
        <ele>553</ele>
        <time>2019-09-25T11:47:27Z</time>
      </trkpt>
      <trkpt lat="43.28766" lon="5.78614">
        <ele>553</ele>
        <time>2019-09-25T11:47:33Z</time>
      </trkpt>
      <trkpt lat="43.28761" lon="5.78609">
        <ele>553</ele>
        <time>2019-09-25T11:47:39Z</time>
      </trkpt>
      <trkpt lat="43.28756" lon="5.78604">
        <ele>551</ele>
        <time>2019-09-25T11:47:45Z</time>
      </trkpt>
      <trkpt lat="43.28752" lon="5.78599">
        <ele>550</ele>
        <time>2019-09-25T11:47:49Z</time>
      </trkpt>
      <trkpt lat="43.28747" lon="5.78595">
        <ele>551</ele>
        <time>2019-09-25T11:47:55Z</time>
      </trkpt>
      <trkpt lat="43.28741" lon="5.78591">
        <ele>551</ele>
        <time>2019-09-25T11:48:01Z</time>
      </trkpt>
      <trkpt lat="43.28737" lon="5.78587">
        <ele>551</ele>
        <time>2019-09-25T11:48:05Z</time>
      </trkpt>
      <trkpt lat="43.28731" lon="5.78583">
        <ele>551</ele>
        <time>2019-09-25T11:48:11Z</time>
      </trkpt>
      <trkpt lat="43.28726" lon="5.78582">
        <ele>550</ele>
        <time>2019-09-25T11:48:15Z</time>
      </trkpt>
      <trkpt lat="43.2872" lon="5.7858">
        <ele>548</ele>
        <time>2019-09-25T11:48:21Z</time>
      </trkpt>
      <trkpt lat="43.28713" lon="5.78578">
        <ele>547</ele>
        <time>2019-09-25T11:48:27Z</time>
      </trkpt>
      <trkpt lat="43.28707" lon="5.78576">
        <ele>546</ele>
        <time>2019-09-25T11:48:33Z</time>
      </trkpt>
      <trkpt lat="43.28702" lon="5.78575">
        <ele>546</ele>
        <time>2019-09-25T11:48:39Z</time>
      </trkpt>
      <trkpt lat="43.28697" lon="5.78575">
        <ele>545</ele>
        <time>2019-09-25T11:48:45Z</time>
      </trkpt>
      <trkpt lat="43.28692" lon="5.78574">
        <ele>544</ele>
        <time>2019-09-25T11:48:51Z</time>
      </trkpt>
      <trkpt lat="43.28686" lon="5.78573">
        <ele>543</ele>
        <time>2019-09-25T11:48:57Z</time>
      </trkpt>
      <trkpt lat="43.2868" lon="5.78571">
        <ele>545</ele>
        <time>2019-09-25T11:49:03Z</time>
      </trkpt>
      <trkpt lat="43.28675" lon="5.78569">
        <ele>545</ele>
        <time>2019-09-25T11:49:07Z</time>
      </trkpt>
      <trkpt lat="43.28669" lon="5.78568">
        <ele>545</ele>
        <time>2019-09-25T11:49:13Z</time>
      </trkpt>
      <trkpt lat="43.28664" lon="5.78566">
        <ele>545</ele>
        <time>2019-09-25T11:49:17Z</time>
      </trkpt>
      <trkpt lat="43.28658" lon="5.78564">
        <ele>543</ele>
        <time>2019-09-25T11:49:23Z</time>
      </trkpt>
      <trkpt lat="43.28652" lon="5.78563">
        <ele>540</ele>
        <time>2019-09-25T11:49:29Z</time>
      </trkpt>
      <trkpt lat="43.28645" lon="5.78563">
        <ele>540</ele>
        <time>2019-09-25T11:49:35Z</time>
      </trkpt>
      <trkpt lat="43.2864" lon="5.78565">
        <ele>540</ele>
        <time>2019-09-25T11:49:41Z</time>
      </trkpt>
      <trkpt lat="43.28638" lon="5.78571">
        <ele>539</ele>
        <time>2019-09-25T11:49:49Z</time>
      </trkpt>
      <trkpt lat="43.2864" lon="5.78576">
        <ele>538</ele>
        <time>2019-09-25T11:49:53Z</time>
      </trkpt>
      <trkpt lat="43.28638" lon="5.78583">
        <ele>538</ele>
        <time>2019-09-25T11:50:05Z</time>
      </trkpt>
      <trkpt lat="43.28635" lon="5.78589">
        <ele>538</ele>
        <time>2019-09-25T11:50:13Z</time>
      </trkpt>
      <trkpt lat="43.28631" lon="5.78595">
        <ele>539</ele>
        <time>2019-09-25T11:50:19Z</time>
      </trkpt>
      <trkpt lat="43.28629" lon="5.78602">
        <ele>537</ele>
        <time>2019-09-25T11:50:25Z</time>
      </trkpt>
      <trkpt lat="43.28624" lon="5.78608">
        <ele>537</ele>
        <time>2019-09-25T11:50:31Z</time>
      </trkpt>
      <trkpt lat="43.28619" lon="5.78615">
        <ele>538</ele>
        <time>2019-09-25T11:50:37Z</time>
      </trkpt>
      <trkpt lat="43.28614" lon="5.78621">
        <ele>540</ele>
        <time>2019-09-25T11:50:43Z</time>
      </trkpt>
      <trkpt lat="43.28609" lon="5.78626">
        <ele>540</ele>
        <time>2019-09-25T11:50:49Z</time>
      </trkpt>
      <trkpt lat="43.28605" lon="5.78631">
        <ele>538</ele>
        <time>2019-09-25T11:50:57Z</time>
      </trkpt>
      <trkpt lat="43.286" lon="5.78631">
        <ele>540</ele>
        <time>2019-09-25T11:51:03Z</time>
      </trkpt>
      <trkpt lat="43.28594" lon="5.78631">
        <ele>539</ele>
        <time>2019-09-25T11:51:09Z</time>
      </trkpt>
      <trkpt lat="43.28589" lon="5.7863">
        <ele>536</ele>
        <time>2019-09-25T11:51:15Z</time>
      </trkpt>
      <trkpt lat="43.28583" lon="5.7863">
        <ele>535</ele>
        <time>2019-09-25T11:51:21Z</time>
      </trkpt>
      <trkpt lat="43.28577" lon="5.78628">
        <ele>535</ele>
        <time>2019-09-25T11:51:27Z</time>
      </trkpt>
      <trkpt lat="43.28572" lon="5.78626">
        <ele>536</ele>
        <time>2019-09-25T11:51:35Z</time>
      </trkpt>
      <trkpt lat="43.28568" lon="5.78623">
        <ele>537</ele>
        <time>2019-09-25T11:51:39Z</time>
      </trkpt>
      <trkpt lat="43.28569" lon="5.7863">
        <ele>535</ele>
        <time>2019-09-25T11:52:19Z</time>
      </trkpt>
      <trkpt lat="43.28565" lon="5.78624">
        <ele>531</ele>
        <time>2019-09-25T11:52:41Z</time>
      </trkpt>
      <trkpt lat="43.28559" lon="5.78622">
        <ele>532</ele>
        <time>2019-09-25T11:52:47Z</time>
      </trkpt>
      <trkpt lat="43.28553" lon="5.78619">
        <ele>530</ele>
        <time>2019-09-25T11:52:53Z</time>
      </trkpt>
      <trkpt lat="43.28547" lon="5.78616">
        <ele>529</ele>
        <time>2019-09-25T11:52:59Z</time>
      </trkpt>
      <trkpt lat="43.28543" lon="5.78612">
        <ele>529</ele>
        <time>2019-09-25T11:53:05Z</time>
      </trkpt>
      <trkpt lat="43.28547" lon="5.78605">
        <ele>527</ele>
        <time>2019-09-25T11:53:27Z</time>
      </trkpt>
      <trkpt lat="43.28551" lon="5.78599">
        <ele>527</ele>
        <time>2019-09-25T11:53:33Z</time>
      </trkpt>
      <trkpt lat="43.28556" lon="5.78594">
        <ele>527</ele>
        <time>2019-09-25T11:53:39Z</time>
      </trkpt>
      <trkpt lat="43.2856" lon="5.78589">
        <ele>528</ele>
        <time>2019-09-25T11:53:45Z</time>
      </trkpt>
      <trkpt lat="43.28564" lon="5.78585">
        <ele>529</ele>
        <time>2019-09-25T11:53:51Z</time>
      </trkpt>
      <trkpt lat="43.28568" lon="5.7858">
        <ele>530</ele>
        <time>2019-09-25T11:53:57Z</time>
      </trkpt>
      <trkpt lat="43.2857" lon="5.78575">
        <ele>532</ele>
        <time>2019-09-25T11:54:07Z</time>
      </trkpt>
      <trkpt lat="43.28567" lon="5.78579">
        <ele>534</ele>
        <time>2019-09-25T11:54:29Z</time>
      </trkpt>
      <trkpt lat="43.28562" lon="5.78581">
        <ele>533</ele>
        <time>2019-09-25T11:54:39Z</time>
      </trkpt>
      <trkpt lat="43.28559" lon="5.78586">
        <ele>534</ele>
        <time>2019-09-25T11:54:47Z</time>
      </trkpt>
      <trkpt lat="43.28553" lon="5.78588">
        <ele>531</ele>
        <time>2019-09-25T11:54:55Z</time>
      </trkpt>
      <trkpt lat="43.28547" lon="5.78592">
        <ele>530</ele>
        <time>2019-09-25T11:55:01Z</time>
      </trkpt>
      <trkpt lat="43.28544" lon="5.78597">
        <ele>531</ele>
        <time>2019-09-25T11:55:07Z</time>
      </trkpt>
      <trkpt lat="43.28549" lon="5.78597">
        <ele>528</ele>
        <time>2019-09-25T11:55:29Z</time>
      </trkpt>
      <trkpt lat="43.28552" lon="5.78593">
        <ele>529</ele>
        <time>2019-09-25T11:55:41Z</time>
      </trkpt>
      <trkpt lat="43.28556" lon="5.78589">
        <ele>529</ele>
        <time>2019-09-25T11:55:49Z</time>
      </trkpt>
      <trkpt lat="43.28561" lon="5.78588">
        <ele>529</ele>
        <time>2019-09-25T11:55:57Z</time>
      </trkpt>
      <trkpt lat="43.28566" lon="5.78583">
        <ele>532</ele>
        <time>2019-09-25T11:56:07Z</time>
      </trkpt>
      <trkpt lat="43.28567" lon="5.78577">
        <ele>531</ele>
        <time>2019-09-25T11:56:15Z</time>
      </trkpt>
      <trkpt lat="43.28571" lon="5.78576">
        <ele>532</ele>
        <time>2019-09-25T11:56:33Z</time>
      </trkpt>
      <trkpt lat="43.28572" lon="5.78569">
        <ele>533</ele>
        <time>2019-09-25T11:56:43Z</time>
      </trkpt>
      <trkpt lat="43.28567" lon="5.78571">
        <ele>535</ele>
        <time>2019-09-25T13:04:53Z</time>
      </trkpt>
      <trkpt lat="43.28565" lon="5.78577">
        <ele>534</ele>
        <time>2019-09-25T13:05:13Z</time>
      </trkpt>
      <trkpt lat="43.28563" lon="5.78583">
        <ele>532</ele>
        <time>2019-09-25T13:06:35Z</time>
      </trkpt>
      <trkpt lat="43.28558" lon="5.78585">
        <ele>531</ele>
        <time>2019-09-25T13:06:43Z</time>
      </trkpt>
      <trkpt lat="43.28554" lon="5.78589">
        <ele>528</ele>
        <time>2019-09-25T13:06:51Z</time>
      </trkpt>
      <trkpt lat="43.28549" lon="5.78593">
        <ele>528</ele>
        <time>2019-09-25T13:06:59Z</time>
      </trkpt>
      <trkpt lat="43.28546" lon="5.78597">
        <ele>528</ele>
        <time>2019-09-25T13:07:09Z</time>
      </trkpt>
      <trkpt lat="43.28542" lon="5.78601">
        <ele>531</ele>
        <time>2019-09-25T13:07:21Z</time>
      </trkpt>
      <trkpt lat="43.28538" lon="5.78605">
        <ele>529</ele>
        <time>2019-09-25T13:07:29Z</time>
      </trkpt>
      <trkpt lat="43.28533" lon="5.78608">
        <ele>528</ele>
        <time>2019-09-25T13:07:39Z</time>
      </trkpt>
      <trkpt lat="43.28529" lon="5.78607">
        <ele>528</ele>
        <time>2019-09-25T13:07:45Z</time>
      </trkpt>
      <trkpt lat="43.28524" lon="5.78614">
        <ele>528</ele>
        <time>2019-09-25T13:08:01Z</time>
      </trkpt>
      <trkpt lat="43.28521" lon="5.78619">
        <ele>528</ele>
        <time>2019-09-25T13:08:05Z</time>
      </trkpt>
      <trkpt lat="43.28519" lon="5.78627">
        <ele>529</ele>
        <time>2019-09-25T13:08:11Z</time>
      </trkpt>
      <trkpt lat="43.28518" lon="5.78635">
        <ele>531</ele>
        <time>2019-09-25T13:08:19Z</time>
      </trkpt>
      <trkpt lat="43.28522" lon="5.7864">
        <ele>531</ele>
        <time>2019-09-25T13:08:25Z</time>
      </trkpt>
      <trkpt lat="43.28525" lon="5.78645">
        <ele>531</ele>
        <time>2019-09-25T13:08:57Z</time>
      </trkpt>
      <trkpt lat="43.28527" lon="5.78651">
        <ele>531</ele>
        <time>2019-09-25T13:09:05Z</time>
      </trkpt>
      <trkpt lat="43.28531" lon="5.78653">
        <ele>530</ele>
        <time>2019-09-25T13:09:13Z</time>
      </trkpt>
      <trkpt lat="43.28527" lon="5.78655">
        <ele>528</ele>
        <time>2019-09-25T13:09:37Z</time>
      </trkpt>
      <trkpt lat="43.28523" lon="5.78658">
        <ele>528</ele>
        <time>2019-09-25T13:09:49Z</time>
      </trkpt>
      <trkpt lat="43.28519" lon="5.78662">
        <ele>528</ele>
        <time>2019-09-25T13:09:55Z</time>
      </trkpt>
      <trkpt lat="43.28514" lon="5.78665">
        <ele>528</ele>
        <time>2019-09-25T13:10:01Z</time>
      </trkpt>
      <trkpt lat="43.28509" lon="5.78668">
        <ele>527</ele>
        <time>2019-09-25T13:10:09Z</time>
      </trkpt>
      <trkpt lat="43.28504" lon="5.78672">
        <ele>526</ele>
        <time>2019-09-25T13:10:15Z</time>
      </trkpt>
      <trkpt lat="43.28499" lon="5.78675">
        <ele>526</ele>
        <time>2019-09-25T13:10:21Z</time>
      </trkpt>
      <trkpt lat="43.28494" lon="5.78673">
        <ele>526</ele>
        <time>2019-09-25T13:10:27Z</time>
      </trkpt>
      <trkpt lat="43.2849" lon="5.78668">
        <ele>525</ele>
        <time>2019-09-25T13:10:33Z</time>
      </trkpt>
      <trkpt lat="43.28486" lon="5.78663">
        <ele>524</ele>
        <time>2019-09-25T13:10:39Z</time>
      </trkpt>
      <trkpt lat="43.28483" lon="5.78658">
        <ele>524</ele>
        <time>2019-09-25T13:10:45Z</time>
      </trkpt>
      <trkpt lat="43.28478" lon="5.78653">
        <ele>524</ele>
        <time>2019-09-25T13:10:51Z</time>
      </trkpt>
      <trkpt lat="43.28474" lon="5.78648">
        <ele>523</ele>
        <time>2019-09-25T13:10:57Z</time>
      </trkpt>
      <trkpt lat="43.2847" lon="5.78641">
        <ele>522</ele>
        <time>2019-09-25T13:11:03Z</time>
      </trkpt>
      <trkpt lat="43.28466" lon="5.78635">
        <ele>522</ele>
        <time>2019-09-25T13:11:09Z</time>
      </trkpt>
      <trkpt lat="43.28462" lon="5.78629">
        <ele>521</ele>
        <time>2019-09-25T13:11:15Z</time>
      </trkpt>
      <trkpt lat="43.28459" lon="5.78623">
        <ele>520</ele>
        <time>2019-09-25T13:11:21Z</time>
      </trkpt>
      <trkpt lat="43.28456" lon="5.78617">
        <ele>519</ele>
        <time>2019-09-25T13:11:27Z</time>
      </trkpt>
      <trkpt lat="43.28453" lon="5.7861">
        <ele>518</ele>
        <time>2019-09-25T13:11:33Z</time>
      </trkpt>
      <trkpt lat="43.28451" lon="5.78603">
        <ele>517</ele>
        <time>2019-09-25T13:11:39Z</time>
      </trkpt>
      <trkpt lat="43.28448" lon="5.78597">
        <ele>517</ele>
        <time>2019-09-25T13:11:45Z</time>
      </trkpt>
      <trkpt lat="43.28446" lon="5.78591">
        <ele>516</ele>
        <time>2019-09-25T13:11:53Z</time>
      </trkpt>
      <trkpt lat="43.28442" lon="5.78585">
        <ele>514</ele>
        <time>2019-09-25T13:12:03Z</time>
      </trkpt>
      <trkpt lat="43.28438" lon="5.78584">
        <ele>513</ele>
        <time>2019-09-25T13:12:07Z</time>
      </trkpt>
      <trkpt lat="43.28433" lon="5.78587">
        <ele>513</ele>
        <time>2019-09-25T13:12:11Z</time>
      </trkpt>
      <trkpt lat="43.28429" lon="5.78592">
        <ele>511</ele>
        <time>2019-09-25T13:12:29Z</time>
      </trkpt>
      <trkpt lat="43.28426" lon="5.78598">
        <ele>511</ele>
        <time>2019-09-25T13:12:35Z</time>
      </trkpt>
      <trkpt lat="43.28423" lon="5.78605">
        <ele>509</ele>
        <time>2019-09-25T13:12:41Z</time>
      </trkpt>
      <trkpt lat="43.28422" lon="5.78611">
        <ele>510</ele>
        <time>2019-09-25T13:12:45Z</time>
      </trkpt>
      <trkpt lat="43.2842" lon="5.78616">
        <ele>510</ele>
        <time>2019-09-25T13:12:51Z</time>
      </trkpt>
      <trkpt lat="43.28418" lon="5.78623">
        <ele>509</ele>
        <time>2019-09-25T13:12:55Z</time>
      </trkpt>
      <trkpt lat="43.28416" lon="5.78629">
        <ele>509</ele>
        <time>2019-09-25T13:13:01Z</time>
      </trkpt>
      <trkpt lat="43.28415" lon="5.78637">
        <ele>508</ele>
        <time>2019-09-25T13:13:07Z</time>
      </trkpt>
      <trkpt lat="43.28415" lon="5.78645">
        <ele>508</ele>
        <time>2019-09-25T13:13:13Z</time>
      </trkpt>
      <trkpt lat="43.28414" lon="5.78652">
        <ele>507</ele>
        <time>2019-09-25T13:13:19Z</time>
      </trkpt>
      <trkpt lat="43.28413" lon="5.7866">
        <ele>506</ele>
        <time>2019-09-25T13:13:25Z</time>
      </trkpt>
      <trkpt lat="43.28409" lon="5.78666">
        <ele>504</ele>
        <time>2019-09-25T13:13:33Z</time>
      </trkpt>
      <trkpt lat="43.28404" lon="5.78664">
        <ele>504</ele>
        <time>2019-09-25T13:13:39Z</time>
      </trkpt>
      <trkpt lat="43.284" lon="5.78661">
        <ele>504</ele>
        <time>2019-09-25T13:13:45Z</time>
      </trkpt>
      <trkpt lat="43.28398" lon="5.78653">
        <ele>504</ele>
        <time>2019-09-25T13:13:51Z</time>
      </trkpt>
      <trkpt lat="43.28396" lon="5.78645">
        <ele>503</ele>
        <time>2019-09-25T13:13:57Z</time>
      </trkpt>
      <trkpt lat="43.28393" lon="5.78637">
        <ele>503</ele>
        <time>2019-09-25T13:14:03Z</time>
      </trkpt>
      <trkpt lat="43.28389" lon="5.7863">
        <ele>501</ele>
        <time>2019-09-25T13:14:09Z</time>
      </trkpt>
      <trkpt lat="43.28385" lon="5.78625">
        <ele>500</ele>
        <time>2019-09-25T13:14:15Z</time>
      </trkpt>
      <trkpt lat="43.28382" lon="5.78618">
        <ele>500</ele>
        <time>2019-09-25T13:14:21Z</time>
      </trkpt>
      <trkpt lat="43.28378" lon="5.78611">
        <ele>498</ele>
        <time>2019-09-25T13:14:27Z</time>
      </trkpt>
      <trkpt lat="43.28375" lon="5.78603">
        <ele>498</ele>
        <time>2019-09-25T13:14:33Z</time>
      </trkpt>
      <trkpt lat="43.28372" lon="5.78596">
        <ele>498</ele>
        <time>2019-09-25T13:14:39Z</time>
      </trkpt>
      <trkpt lat="43.28368" lon="5.78591">
        <ele>497</ele>
        <time>2019-09-25T13:14:45Z</time>
      </trkpt>
      <trkpt lat="43.28361" lon="5.7859">
        <ele>498</ele>
        <time>2019-09-25T13:14:51Z</time>
      </trkpt>
      <trkpt lat="43.28355" lon="5.78591">
        <ele>497</ele>
        <time>2019-09-25T13:14:57Z</time>
      </trkpt>
      <trkpt lat="43.28351" lon="5.78592">
        <ele>496</ele>
        <time>2019-09-25T13:15:01Z</time>
      </trkpt>
      <trkpt lat="43.28346" lon="5.78591">
        <ele>495</ele>
        <time>2019-09-25T13:15:05Z</time>
      </trkpt>
      <trkpt lat="43.28341" lon="5.78592">
        <ele>494</ele>
        <time>2019-09-25T13:15:09Z</time>
      </trkpt>
      <trkpt lat="43.28336" lon="5.78593">
        <ele>494</ele>
        <time>2019-09-25T13:15:27Z</time>
      </trkpt>
      <trkpt lat="43.28331" lon="5.78595">
        <ele>494</ele>
        <time>2019-09-25T13:15:39Z</time>
      </trkpt>
      <trkpt lat="43.28326" lon="5.78595">
        <ele>494</ele>
        <time>2019-09-25T13:15:47Z</time>
      </trkpt>
      <trkpt lat="43.28323" lon="5.78602">
        <ele>494</ele>
        <time>2019-09-25T13:15:57Z</time>
      </trkpt>
      <trkpt lat="43.28321" lon="5.7861">
        <ele>494</ele>
        <time>2019-09-25T13:16:03Z</time>
      </trkpt>
      <trkpt lat="43.28318" lon="5.78617">
        <ele>494</ele>
        <time>2019-09-25T13:16:09Z</time>
      </trkpt>
      <trkpt lat="43.28314" lon="5.78624">
        <ele>492</ele>
        <time>2019-09-25T13:16:15Z</time>
      </trkpt>
      <trkpt lat="43.28312" lon="5.78631">
        <ele>492</ele>
        <time>2019-09-25T13:16:21Z</time>
      </trkpt>
      <trkpt lat="43.2831" lon="5.78638">
        <ele>492</ele>
        <time>2019-09-25T13:16:27Z</time>
      </trkpt>
      <trkpt lat="43.28308" lon="5.78646">
        <ele>491</ele>
        <time>2019-09-25T13:16:33Z</time>
      </trkpt>
      <trkpt lat="43.28306" lon="5.78653">
        <ele>491</ele>
        <time>2019-09-25T13:16:39Z</time>
      </trkpt>
      <trkpt lat="43.28306" lon="5.78661">
        <ele>489</ele>
        <time>2019-09-25T13:16:45Z</time>
      </trkpt>
      <trkpt lat="43.28305" lon="5.78669">
        <ele>490</ele>
        <time>2019-09-25T13:16:51Z</time>
      </trkpt>
      <trkpt lat="43.28304" lon="5.78676">
        <ele>490</ele>
        <time>2019-09-25T13:16:55Z</time>
      </trkpt>
      <trkpt lat="43.28303" lon="5.78685">
        <ele>489</ele>
        <time>2019-09-25T13:17:01Z</time>
      </trkpt>
      <trkpt lat="43.283" lon="5.78692">
        <ele>490</ele>
        <time>2019-09-25T13:17:07Z</time>
      </trkpt>
      <trkpt lat="43.28298" lon="5.78698">
        <ele>490</ele>
        <time>2019-09-25T13:17:15Z</time>
      </trkpt>
      <trkpt lat="43.28292" lon="5.78701">
        <ele>489</ele>
        <time>2019-09-25T13:17:21Z</time>
      </trkpt>
      <trkpt lat="43.28286" lon="5.78702">
        <ele>489</ele>
        <time>2019-09-25T13:17:27Z</time>
      </trkpt>
      <trkpt lat="43.28284" lon="5.78708">
        <ele>489</ele>
        <time>2019-09-25T13:17:51Z</time>
      </trkpt>
      <trkpt lat="43.28284" lon="5.78715">
        <ele>493</ele>
        <time>2019-09-25T13:17:57Z</time>
      </trkpt>
      <trkpt lat="43.28285" lon="5.78723">
        <ele>491</ele>
        <time>2019-09-25T13:18:03Z</time>
      </trkpt>
      <trkpt lat="43.28285" lon="5.7873">
        <ele>492</ele>
        <time>2019-09-25T13:18:09Z</time>
      </trkpt>
      <trkpt lat="43.28286" lon="5.78723">
        <ele>488</ele>
        <time>2019-09-25T13:22:45Z</time>
      </trkpt>
      <trkpt lat="43.28291" lon="5.78717">
        <ele>487</ele>
        <time>2019-09-25T13:22:59Z</time>
      </trkpt>
      <trkpt lat="43.28294" lon="5.78711">
        <ele>486</ele>
        <time>2019-09-25T13:23:05Z</time>
      </trkpt>
      <trkpt lat="43.28297" lon="5.78704">
        <ele>486</ele>
        <time>2019-09-25T13:23:11Z</time>
      </trkpt>
      <trkpt lat="43.28299" lon="5.78696">
        <ele>485</ele>
        <time>2019-09-25T13:23:17Z</time>
      </trkpt>
      <trkpt lat="43.28302" lon="5.78689">
        <ele>486</ele>
        <time>2019-09-25T13:23:23Z</time>
      </trkpt>
      <trkpt lat="43.28303" lon="5.78681">
        <ele>488</ele>
        <time>2019-09-25T13:23:27Z</time>
      </trkpt>
      <trkpt lat="43.28304" lon="5.78674">
        <ele>489</ele>
        <time>2019-09-25T13:23:31Z</time>
      </trkpt>
      <trkpt lat="43.28306" lon="5.78666">
        <ele>489</ele>
        <time>2019-09-25T13:23:35Z</time>
      </trkpt>
      <trkpt lat="43.28308" lon="5.78661">
        <ele>490</ele>
        <time>2019-09-25T13:23:39Z</time>
      </trkpt>
      <trkpt lat="43.28309" lon="5.78654">
        <ele>491</ele>
        <time>2019-09-25T13:23:43Z</time>
      </trkpt>
      <trkpt lat="43.2831" lon="5.78646">
        <ele>490</ele>
        <time>2019-09-25T13:23:49Z</time>
      </trkpt>
      <trkpt lat="43.28312" lon="5.78638">
        <ele>490</ele>
        <time>2019-09-25T13:23:55Z</time>
      </trkpt>
      <trkpt lat="43.28314" lon="5.78631">
        <ele>489</ele>
        <time>2019-09-25T13:24:01Z</time>
      </trkpt>
      <trkpt lat="43.28316" lon="5.78625">
        <ele>489</ele>
        <time>2019-09-25T13:24:05Z</time>
      </trkpt>
      <trkpt lat="43.28319" lon="5.78619">
        <ele>490</ele>
        <time>2019-09-25T13:24:09Z</time>
      </trkpt>
      <trkpt lat="43.28321" lon="5.78614">
        <ele>491</ele>
        <time>2019-09-25T13:24:13Z</time>
      </trkpt>
      <trkpt lat="43.28323" lon="5.78608">
        <ele>490</ele>
        <time>2019-09-25T13:24:17Z</time>
      </trkpt>
      <trkpt lat="43.28326" lon="5.78603">
        <ele>491</ele>
        <time>2019-09-25T13:24:21Z</time>
      </trkpt>
      <trkpt lat="43.28329" lon="5.78595">
        <ele>490</ele>
        <time>2019-09-25T13:24:27Z</time>
      </trkpt>
      <trkpt lat="43.28331" lon="5.78586">
        <ele>490</ele>
        <time>2019-09-25T13:24:33Z</time>
      </trkpt>
      <trkpt lat="43.28332" lon="5.7858">
        <ele>490</ele>
        <time>2019-09-25T13:24:37Z</time>
      </trkpt>
      <trkpt lat="43.28334" lon="5.78574">
        <ele>489</ele>
        <time>2019-09-25T13:24:41Z</time>
      </trkpt>
      <trkpt lat="43.28334" lon="5.78565">
        <ele>489</ele>
        <time>2019-09-25T13:24:47Z</time>
      </trkpt>
      <trkpt lat="43.28335" lon="5.78556">
        <ele>490</ele>
        <time>2019-09-25T13:24:53Z</time>
      </trkpt>
      <trkpt lat="43.28336" lon="5.7855">
        <ele>490</ele>
        <time>2019-09-25T13:24:57Z</time>
      </trkpt>
      <trkpt lat="43.28337" lon="5.78541">
        <ele>491</ele>
        <time>2019-09-25T13:25:03Z</time>
      </trkpt>
      <trkpt lat="43.28337" lon="5.78535">
        <ele>490</ele>
        <time>2019-09-25T13:25:07Z</time>
      </trkpt>
      <trkpt lat="43.28337" lon="5.78526">
        <ele>491</ele>
        <time>2019-09-25T13:25:13Z</time>
      </trkpt>
      <trkpt lat="43.28338" lon="5.7852">
        <ele>492</ele>
        <time>2019-09-25T13:25:17Z</time>
      </trkpt>
      <trkpt lat="43.2834" lon="5.78514">
        <ele>494</ele>
        <time>2019-09-25T13:25:21Z</time>
      </trkpt>
      <trkpt lat="43.2834" lon="5.78507">
        <ele>494</ele>
        <time>2019-09-25T13:25:25Z</time>
      </trkpt>
      <trkpt lat="43.28339" lon="5.78499">
        <ele>493</ele>
        <time>2019-09-25T13:25:31Z</time>
      </trkpt>
      <trkpt lat="43.28339" lon="5.78491">
        <ele>492</ele>
        <time>2019-09-25T13:25:37Z</time>
      </trkpt>
      <trkpt lat="43.2834" lon="5.78482">
        <ele>492</ele>
        <time>2019-09-25T13:25:43Z</time>
      </trkpt>
      <trkpt lat="43.2834" lon="5.78472">
        <ele>493</ele>
        <time>2019-09-25T13:25:49Z</time>
      </trkpt>
      <trkpt lat="43.2834" lon="5.78463">
        <ele>492</ele>
        <time>2019-09-25T13:25:55Z</time>
      </trkpt>
      <trkpt lat="43.28339" lon="5.78454">
        <ele>492</ele>
        <time>2019-09-25T13:26:01Z</time>
      </trkpt>
      <trkpt lat="43.28339" lon="5.78447">
        <ele>492</ele>
        <time>2019-09-25T13:26:05Z</time>
      </trkpt>
      <trkpt lat="43.28338" lon="5.78441">
        <ele>492</ele>
        <time>2019-09-25T13:26:09Z</time>
      </trkpt>
      <trkpt lat="43.28337" lon="5.78432">
        <ele>492</ele>
        <time>2019-09-25T13:26:15Z</time>
      </trkpt>
      <trkpt lat="43.28337" lon="5.78425">
        <ele>491</ele>
        <time>2019-09-25T13:26:19Z</time>
      </trkpt>
      <trkpt lat="43.28336" lon="5.78419">
        <ele>492</ele>
        <time>2019-09-25T13:26:23Z</time>
      </trkpt>
      <trkpt lat="43.28336" lon="5.78412">
        <ele>492</ele>
        <time>2019-09-25T13:26:27Z</time>
      </trkpt>
      <trkpt lat="43.28336" lon="5.78405">
        <ele>492</ele>
        <time>2019-09-25T13:26:31Z</time>
      </trkpt>
      <trkpt lat="43.28336" lon="5.78396">
        <ele>493</ele>
        <time>2019-09-25T13:26:37Z</time>
      </trkpt>
      <trkpt lat="43.28337" lon="5.78389">
        <ele>492</ele>
        <time>2019-09-25T13:26:41Z</time>
      </trkpt>
      <trkpt lat="43.28338" lon="5.78381">
        <ele>492</ele>
        <time>2019-09-25T13:26:47Z</time>
      </trkpt>
      <trkpt lat="43.28339" lon="5.78374">
        <ele>489</ele>
        <time>2019-09-25T13:26:53Z</time>
      </trkpt>
      <trkpt lat="43.2834" lon="5.78365">
        <ele>489</ele>
        <time>2019-09-25T13:26:59Z</time>
      </trkpt>
      <trkpt lat="43.28341" lon="5.78358">
        <ele>489</ele>
        <time>2019-09-25T13:27:03Z</time>
      </trkpt>
      <trkpt lat="43.28342" lon="5.78351">
        <ele>489</ele>
        <time>2019-09-25T13:27:07Z</time>
      </trkpt>
      <trkpt lat="43.28343" lon="5.78343">
        <ele>488</ele>
        <time>2019-09-25T13:27:13Z</time>
      </trkpt>
      <trkpt lat="43.28344" lon="5.78334">
        <ele>488</ele>
        <time>2019-09-25T13:27:19Z</time>
      </trkpt>
      <trkpt lat="43.28345" lon="5.78326">
        <ele>486</ele>
        <time>2019-09-25T13:27:25Z</time>
      </trkpt>
      <trkpt lat="43.28343" lon="5.78319">
        <ele>486</ele>
        <time>2019-09-25T13:27:29Z</time>
      </trkpt>
      <trkpt lat="43.28341" lon="5.78311">
        <ele>486</ele>
        <time>2019-09-25T13:27:35Z</time>
      </trkpt>
      <trkpt lat="43.28339" lon="5.78304">
        <ele>485</ele>
        <time>2019-09-25T13:27:41Z</time>
      </trkpt>
      <trkpt lat="43.28335" lon="5.783">
        <ele>484</ele>
        <time>2019-09-25T13:27:45Z</time>
      </trkpt>
      <trkpt lat="43.28328" lon="5.78298">
        <ele>483</ele>
        <time>2019-09-25T13:27:51Z</time>
      </trkpt>
      <trkpt lat="43.28323" lon="5.78296">
        <ele>482</ele>
        <time>2019-09-25T13:27:57Z</time>
      </trkpt>
      <trkpt lat="43.28316" lon="5.78296">
        <ele>481</ele>
        <time>2019-09-25T13:28:03Z</time>
      </trkpt>
      <trkpt lat="43.28312" lon="5.78297">
        <ele>480</ele>
        <time>2019-09-25T13:28:11Z</time>
      </trkpt>
      <trkpt lat="43.28306" lon="5.78297">
        <ele>481</ele>
        <time>2019-09-25T13:28:17Z</time>
      </trkpt>
      <trkpt lat="43.283" lon="5.78297">
        <ele>480</ele>
        <time>2019-09-25T13:28:23Z</time>
      </trkpt>
      <trkpt lat="43.28294" lon="5.78297">
        <ele>478</ele>
        <time>2019-09-25T13:28:29Z</time>
      </trkpt>
      <trkpt lat="43.28289" lon="5.78296">
        <ele>477</ele>
        <time>2019-09-25T13:28:33Z</time>
      </trkpt>
      <trkpt lat="43.28284" lon="5.78295">
        <ele>477</ele>
        <time>2019-09-25T13:28:37Z</time>
      </trkpt>
      <trkpt lat="43.28279" lon="5.78294">
        <ele>477</ele>
        <time>2019-09-25T13:28:43Z</time>
      </trkpt>
      <trkpt lat="43.28273" lon="5.78292">
        <ele>475</ele>
        <time>2019-09-25T13:28:49Z</time>
      </trkpt>
      <trkpt lat="43.28267" lon="5.78291">
        <ele>474</ele>
        <time>2019-09-25T13:28:55Z</time>
      </trkpt>
      <trkpt lat="43.28261" lon="5.78288">
        <ele>474</ele>
        <time>2019-09-25T13:29:01Z</time>
      </trkpt>
      <trkpt lat="43.28256" lon="5.78286">
        <ele>473</ele>
        <time>2019-09-25T13:29:07Z</time>
      </trkpt>
      <trkpt lat="43.28251" lon="5.78283">
        <ele>473</ele>
        <time>2019-09-25T13:29:13Z</time>
      </trkpt>
      <trkpt lat="43.28246" lon="5.7828">
        <ele>471</ele>
        <time>2019-09-25T13:29:19Z</time>
      </trkpt>
      <trkpt lat="43.28241" lon="5.78275">
        <ele>471</ele>
        <time>2019-09-25T13:29:25Z</time>
      </trkpt>
      <trkpt lat="43.28237" lon="5.7827">
        <ele>470</ele>
        <time>2019-09-25T13:29:31Z</time>
      </trkpt>
      <trkpt lat="43.28232" lon="5.78263">
        <ele>470</ele>
        <time>2019-09-25T13:29:37Z</time>
      </trkpt>
      <trkpt lat="43.28229" lon="5.78258">
        <ele>470</ele>
        <time>2019-09-25T13:29:41Z</time>
      </trkpt>
      <trkpt lat="43.28226" lon="5.7825">
        <ele>469</ele>
        <time>2019-09-25T13:29:47Z</time>
      </trkpt>
      <trkpt lat="43.28223" lon="5.78241">
        <ele>470</ele>
        <time>2019-09-25T13:29:53Z</time>
      </trkpt>
      <trkpt lat="43.28222" lon="5.78235">
        <ele>470</ele>
        <time>2019-09-25T13:29:57Z</time>
      </trkpt>
      <trkpt lat="43.28218" lon="5.78228">
        <ele>470</ele>
        <time>2019-09-25T13:30:03Z</time>
      </trkpt>
      <trkpt lat="43.28215" lon="5.78223">
        <ele>470</ele>
        <time>2019-09-25T13:30:07Z</time>
      </trkpt>
      <trkpt lat="43.28213" lon="5.78217">
        <ele>470</ele>
        <time>2019-09-25T13:30:11Z</time>
      </trkpt>
      <trkpt lat="43.2821" lon="5.7821">
        <ele>471</ele>
        <time>2019-09-25T13:30:17Z</time>
      </trkpt>
      <trkpt lat="43.28207" lon="5.78202">
        <ele>471</ele>
        <time>2019-09-25T13:30:23Z</time>
      </trkpt>
      <trkpt lat="43.28203" lon="5.78195">
        <ele>470</ele>
        <time>2019-09-25T13:30:29Z</time>
      </trkpt>
      <trkpt lat="43.28199" lon="5.78188">
        <ele>470</ele>
        <time>2019-09-25T13:30:35Z</time>
      </trkpt>
      <trkpt lat="43.28196" lon="5.78182">
        <ele>471</ele>
        <time>2019-09-25T13:30:41Z</time>
      </trkpt>
      <trkpt lat="43.28193" lon="5.78175">
        <ele>472</ele>
        <time>2019-09-25T13:30:47Z</time>
      </trkpt>
      <trkpt lat="43.28191" lon="5.78167">
        <ele>472</ele>
        <time>2019-09-25T13:30:53Z</time>
      </trkpt>
      <trkpt lat="43.28189" lon="5.78161">
        <ele>472</ele>
        <time>2019-09-25T13:30:59Z</time>
      </trkpt>
      <trkpt lat="43.28187" lon="5.78155">
        <ele>473</ele>
        <time>2019-09-25T13:31:03Z</time>
      </trkpt>
      <trkpt lat="43.28185" lon="5.78146">
        <ele>474</ele>
        <time>2019-09-25T13:31:09Z</time>
      </trkpt>
      <trkpt lat="43.28183" lon="5.78138">
        <ele>474</ele>
        <time>2019-09-25T13:31:15Z</time>
      </trkpt>
      <trkpt lat="43.28182" lon="5.78132">
        <ele>474</ele>
        <time>2019-09-25T13:31:19Z</time>
      </trkpt>
      <trkpt lat="43.28181" lon="5.78123">
        <ele>474</ele>
        <time>2019-09-25T13:31:25Z</time>
      </trkpt>
      <trkpt lat="43.28179" lon="5.78114">
        <ele>474</ele>
        <time>2019-09-25T13:31:31Z</time>
      </trkpt>
      <trkpt lat="43.28177" lon="5.78106">
        <ele>475</ele>
        <time>2019-09-25T13:31:37Z</time>
      </trkpt>
      <trkpt lat="43.28175" lon="5.78098">
        <ele>474</ele>
        <time>2019-09-25T13:31:43Z</time>
      </trkpt>
      <trkpt lat="43.28174" lon="5.7809">
        <ele>474</ele>
        <time>2019-09-25T13:31:49Z</time>
      </trkpt>
      <trkpt lat="43.28172" lon="5.78084">
        <ele>473</ele>
        <time>2019-09-25T13:31:53Z</time>
      </trkpt>
      <trkpt lat="43.2817" lon="5.78077">
        <ele>473</ele>
        <time>2019-09-25T13:31:59Z</time>
      </trkpt>
      <trkpt lat="43.28169" lon="5.7807">
        <ele>472</ele>
        <time>2019-09-25T13:32:05Z</time>
      </trkpt>
      <trkpt lat="43.28167" lon="5.78063">
        <ele>473</ele>
        <time>2019-09-25T13:32:11Z</time>
      </trkpt>
      <trkpt lat="43.28165" lon="5.78055">
        <ele>473</ele>
        <time>2019-09-25T13:32:17Z</time>
      </trkpt>
      <trkpt lat="43.28162" lon="5.78047">
        <ele>472</ele>
        <time>2019-09-25T13:32:23Z</time>
      </trkpt>
      <trkpt lat="43.28161" lon="5.78038">
        <ele>472</ele>
        <time>2019-09-25T13:32:29Z</time>
      </trkpt>
      <trkpt lat="43.2816" lon="5.78032">
        <ele>472</ele>
        <time>2019-09-25T13:32:33Z</time>
      </trkpt>
      <trkpt lat="43.28159" lon="5.78024">
        <ele>471</ele>
        <time>2019-09-25T13:32:39Z</time>
      </trkpt>
      <trkpt lat="43.28159" lon="5.78015">
        <ele>471</ele>
        <time>2019-09-25T13:32:45Z</time>
      </trkpt>
      <trkpt lat="43.28159" lon="5.78007">
        <ele>469</ele>
        <time>2019-09-25T13:32:51Z</time>
      </trkpt>
      <trkpt lat="43.28161" lon="5.77999">
        <ele>469</ele>
        <time>2019-09-25T13:32:57Z</time>
      </trkpt>
      <trkpt lat="43.28163" lon="5.77991">
        <ele>468</ele>
        <time>2019-09-25T13:33:03Z</time>
      </trkpt>
      <trkpt lat="43.28164" lon="5.77984">
        <ele>469</ele>
        <time>2019-09-25T13:33:09Z</time>
      </trkpt>
      <trkpt lat="43.28164" lon="5.77977">
        <ele>468</ele>
        <time>2019-09-25T13:33:13Z</time>
      </trkpt>
      <trkpt lat="43.28165" lon="5.77968">
        <ele>470</ele>
        <time>2019-09-25T13:33:19Z</time>
      </trkpt>
      <trkpt lat="43.28163" lon="5.7796">
        <ele>469</ele>
        <time>2019-09-25T13:33:25Z</time>
      </trkpt>
      <trkpt lat="43.28162" lon="5.77952">
        <ele>468</ele>
        <time>2019-09-25T13:33:31Z</time>
      </trkpt>
      <trkpt lat="43.28161" lon="5.77945">
        <ele>469</ele>
        <time>2019-09-25T13:33:35Z</time>
      </trkpt>
      <trkpt lat="43.28162" lon="5.77938">
        <ele>469</ele>
        <time>2019-09-25T13:33:39Z</time>
      </trkpt>
      <trkpt lat="43.28162" lon="5.77931">
        <ele>468</ele>
        <time>2019-09-25T13:33:43Z</time>
      </trkpt>
      <trkpt lat="43.28161" lon="5.77924">
        <ele>468</ele>
        <time>2019-09-25T13:33:47Z</time>
      </trkpt>
      <trkpt lat="43.28161" lon="5.77918">
        <ele>468</ele>
        <time>2019-09-25T13:33:51Z</time>
      </trkpt>
      <trkpt lat="43.28161" lon="5.77912">
        <ele>469</ele>
        <time>2019-09-25T13:33:55Z</time>
      </trkpt>
      <trkpt lat="43.28161" lon="5.77904">
        <ele>466</ele>
        <time>2019-09-25T13:34:01Z</time>
      </trkpt>
      <trkpt lat="43.28163" lon="5.77896">
        <ele>466</ele>
        <time>2019-09-25T13:34:07Z</time>
      </trkpt>
      <trkpt lat="43.28165" lon="5.7789">
        <ele>466</ele>
        <time>2019-09-25T13:34:11Z</time>
      </trkpt>
      <trkpt lat="43.28168" lon="5.77883">
        <ele>466</ele>
        <time>2019-09-25T13:34:17Z</time>
      </trkpt>
      <trkpt lat="43.28171" lon="5.77875">
        <ele>466</ele>
        <time>2019-09-25T13:34:23Z</time>
      </trkpt>
      <trkpt lat="43.2817" lon="5.77868">
        <ele>465</ele>
        <time>2019-09-25T13:34:33Z</time>
      </trkpt>
      <trkpt lat="43.28166" lon="5.77864">
        <ele>464</ele>
        <time>2019-09-25T13:34:39Z</time>
      </trkpt>
      <trkpt lat="43.2816" lon="5.77863">
        <ele>464</ele>
        <time>2019-09-25T13:34:45Z</time>
      </trkpt>
      <trkpt lat="43.28155" lon="5.77864">
        <ele>464</ele>
        <time>2019-09-25T13:34:49Z</time>
      </trkpt>
      <trkpt lat="43.28151" lon="5.77865">
        <ele>464</ele>
        <time>2019-09-25T13:34:53Z</time>
      </trkpt>
      <trkpt lat="43.28146" lon="5.77867">
        <ele>464</ele>
        <time>2019-09-25T13:34:57Z</time>
      </trkpt>
      <trkpt lat="43.2814" lon="5.7787">
        <ele>464</ele>
        <time>2019-09-25T13:35:03Z</time>
      </trkpt>
      <trkpt lat="43.28134" lon="5.77873">
        <ele>465</ele>
        <time>2019-09-25T13:35:09Z</time>
      </trkpt>
      <trkpt lat="43.28128" lon="5.77877">
        <ele>465</ele>
        <time>2019-09-25T13:35:15Z</time>
      </trkpt>
      <trkpt lat="43.28122" lon="5.7788">
        <ele>465</ele>
        <time>2019-09-25T13:35:21Z</time>
      </trkpt>
      <trkpt lat="43.28116" lon="5.77884">
        <ele>464</ele>
        <time>2019-09-25T13:35:27Z</time>
      </trkpt>
      <trkpt lat="43.28111" lon="5.77889">
        <ele>462</ele>
        <time>2019-09-25T13:35:33Z</time>
      </trkpt>
      <trkpt lat="43.28105" lon="5.77893">
        <ele>462</ele>
        <time>2019-09-25T13:35:39Z</time>
      </trkpt>
      <trkpt lat="43.28102" lon="5.77898">
        <ele>463</ele>
        <time>2019-09-25T13:35:43Z</time>
      </trkpt>
      <trkpt lat="43.28096" lon="5.77903">
        <ele>462</ele>
        <time>2019-09-25T13:35:49Z</time>
      </trkpt>
      <trkpt lat="43.28093" lon="5.77908">
        <ele>460</ele>
        <time>2019-09-25T13:35:53Z</time>
      </trkpt>
      <trkpt lat="43.28089" lon="5.77915">
        <ele>461</ele>
        <time>2019-09-25T13:35:59Z</time>
      </trkpt>
      <trkpt lat="43.28085" lon="5.77918">
        <ele>462</ele>
        <time>2019-09-25T13:36:03Z</time>
      </trkpt>
      <trkpt lat="43.28079" lon="5.77919">
        <ele>463</ele>
        <time>2019-09-25T13:36:09Z</time>
      </trkpt>
      <trkpt lat="43.28074" lon="5.77917">
        <ele>463</ele>
        <time>2019-09-25T13:36:15Z</time>
      </trkpt>
      <trkpt lat="43.2807" lon="5.77912">
        <ele>464</ele>
        <time>2019-09-25T13:36:21Z</time>
      </trkpt>
      <trkpt lat="43.28067" lon="5.77907">
        <ele>465</ele>
        <time>2019-09-25T13:36:27Z</time>
      </trkpt>
      <trkpt lat="43.28064" lon="5.77901">
        <ele>466</ele>
        <time>2019-09-25T13:36:33Z</time>
      </trkpt>
      <trkpt lat="43.28059" lon="5.77896">
        <ele>465</ele>
        <time>2019-09-25T13:36:39Z</time>
      </trkpt>
      <trkpt lat="43.28054" lon="5.77891">
        <ele>462</ele>
        <time>2019-09-25T13:36:49Z</time>
      </trkpt>
      <trkpt lat="43.28051" lon="5.77885">
        <ele>462</ele>
        <time>2019-09-25T13:36:57Z</time>
      </trkpt>
      <trkpt lat="43.28048" lon="5.7788">
        <ele>462</ele>
        <time>2019-09-25T13:37:03Z</time>
      </trkpt>
      <trkpt lat="43.28045" lon="5.77875">
        <ele>464</ele>
        <time>2019-09-25T13:37:09Z</time>
      </trkpt>
      <trkpt lat="43.28041" lon="5.77871">
        <ele>463</ele>
        <time>2019-09-25T13:37:15Z</time>
      </trkpt>
      <trkpt lat="43.28039" lon="5.77865">
        <ele>462</ele>
        <time>2019-09-25T13:37:23Z</time>
      </trkpt>
      <trkpt lat="43.28036" lon="5.77859">
        <ele>464</ele>
        <time>2019-09-25T13:37:29Z</time>
      </trkpt>
      <trkpt lat="43.28034" lon="5.77852">
        <ele>465</ele>
        <time>2019-09-25T13:37:35Z</time>
      </trkpt>
      <trkpt lat="43.28032" lon="5.77844">
        <ele>466</ele>
        <time>2019-09-25T13:37:41Z</time>
      </trkpt>
      <trkpt lat="43.28029" lon="5.77837">
        <ele>468</ele>
        <time>2019-09-25T13:37:47Z</time>
      </trkpt>
      <trkpt lat="43.28028" lon="5.77831">
        <ele>471</ele>
        <time>2019-09-25T13:37:51Z</time>
      </trkpt>
      <trkpt lat="43.28024" lon="5.77823">
        <ele>472</ele>
        <time>2019-09-25T13:37:57Z</time>
      </trkpt>
      <trkpt lat="43.28022" lon="5.77817">
        <ele>472</ele>
        <time>2019-09-25T13:38:03Z</time>
      </trkpt>
      <trkpt lat="43.28018" lon="5.7781">
        <ele>474</ele>
        <time>2019-09-25T13:38:09Z</time>
      </trkpt>
      <trkpt lat="43.28015" lon="5.77804">
        <ele>474</ele>
        <time>2019-09-25T13:38:15Z</time>
      </trkpt>
      <trkpt lat="43.28012" lon="5.77799">
        <ele>476</ele>
        <time>2019-09-25T13:38:21Z</time>
      </trkpt>
      <trkpt lat="43.28006" lon="5.77795">
        <ele>475</ele>
        <time>2019-09-25T13:38:27Z</time>
      </trkpt>
      <trkpt lat="43.28001" lon="5.77797">
        <ele>477</ele>
        <time>2019-09-25T13:38:47Z</time>
      </trkpt>
      <trkpt lat="43.27996" lon="5.77797">
        <ele>478</ele>
        <time>2019-09-25T13:38:53Z</time>
      </trkpt>
      <trkpt lat="43.2799" lon="5.77796">
        <ele>478</ele>
        <time>2019-09-25T13:38:59Z</time>
      </trkpt>
      <trkpt lat="43.27985" lon="5.77795">
        <ele>478</ele>
        <time>2019-09-25T13:39:05Z</time>
      </trkpt>
      <trkpt lat="43.27978" lon="5.77793">
        <ele>478</ele>
        <time>2019-09-25T13:39:11Z</time>
      </trkpt>
      <trkpt lat="43.27973" lon="5.77789">
        <ele>478</ele>
        <time>2019-09-25T13:39:17Z</time>
      </trkpt>
      <trkpt lat="43.27968" lon="5.77787">
        <ele>476</ele>
        <time>2019-09-25T13:39:25Z</time>
      </trkpt>
      <trkpt lat="43.27964" lon="5.77782">
        <ele>476</ele>
        <time>2019-09-25T13:39:31Z</time>
      </trkpt>
      <trkpt lat="43.27961" lon="5.77776">
        <ele>475</ele>
        <time>2019-09-25T13:39:35Z</time>
      </trkpt>
      <trkpt lat="43.27956" lon="5.77771">
        <ele>475</ele>
        <time>2019-09-25T13:39:41Z</time>
      </trkpt>
      <trkpt lat="43.27951" lon="5.77769">
        <ele>474</ele>
        <time>2019-09-25T13:39:45Z</time>
      </trkpt>
      <trkpt lat="43.27947" lon="5.77767">
        <ele>473</ele>
        <time>2019-09-25T13:39:49Z</time>
      </trkpt>
      <trkpt lat="43.27941" lon="5.77765">
        <ele>473</ele>
        <time>2019-09-25T13:39:55Z</time>
      </trkpt>
      <trkpt lat="43.27937" lon="5.77763">
        <ele>474</ele>
        <time>2019-09-25T13:39:59Z</time>
      </trkpt>
      <trkpt lat="43.27932" lon="5.77761">
        <ele>473</ele>
        <time>2019-09-25T13:40:03Z</time>
      </trkpt>
      <trkpt lat="43.27926" lon="5.7776">
        <ele>472</ele>
        <time>2019-09-25T13:40:17Z</time>
      </trkpt>
      <trkpt lat="43.27921" lon="5.77758">
        <ele>474</ele>
        <time>2019-09-25T13:41:01Z</time>
      </trkpt>
      <trkpt lat="43.27919" lon="5.77752">
        <ele>476</ele>
        <time>2019-09-25T13:41:11Z</time>
      </trkpt>
      <trkpt lat="43.27914" lon="5.77748">
        <ele>475</ele>
        <time>2019-09-25T13:41:17Z</time>
      </trkpt>
      <trkpt lat="43.2791" lon="5.77747">
        <ele>475</ele>
        <time>2019-09-25T13:41:21Z</time>
      </trkpt>
      <trkpt lat="43.27904" lon="5.77744">
        <ele>474</ele>
        <time>2019-09-25T13:41:27Z</time>
      </trkpt>
      <trkpt lat="43.279" lon="5.77741">
        <ele>473</ele>
        <time>2019-09-25T13:41:31Z</time>
      </trkpt>
      <trkpt lat="43.27894" lon="5.77736">
        <ele>473</ele>
        <time>2019-09-25T13:41:37Z</time>
      </trkpt>
      <trkpt lat="43.27889" lon="5.77732">
        <ele>472</ele>
        <time>2019-09-25T13:41:43Z</time>
      </trkpt>
      <trkpt lat="43.27885" lon="5.77726">
        <ele>473</ele>
        <time>2019-09-25T13:41:49Z</time>
      </trkpt>
      <trkpt lat="43.27881" lon="5.77719">
        <ele>473</ele>
        <time>2019-09-25T13:41:55Z</time>
      </trkpt>
      <trkpt lat="43.27878" lon="5.77713">
        <ele>472</ele>
        <time>2019-09-25T13:42:01Z</time>
      </trkpt>
      <trkpt lat="43.27877" lon="5.77706">
        <ele>474</ele>
        <time>2019-09-25T13:42:11Z</time>
      </trkpt>
      <trkpt lat="43.27876" lon="5.77699">
        <ele>473</ele>
        <time>2019-09-25T13:42:17Z</time>
      </trkpt>
      <trkpt lat="43.27874" lon="5.77691">
        <ele>473</ele>
        <time>2019-09-25T13:42:25Z</time>
      </trkpt>
      <trkpt lat="43.27875" lon="5.77684">
        <ele>473</ele>
        <time>2019-09-25T13:42:47Z</time>
      </trkpt>
      <trkpt lat="43.27875" lon="5.77677">
        <ele>473</ele>
        <time>2019-09-25T13:42:59Z</time>
      </trkpt>
      <trkpt lat="43.27875" lon="5.77669">
        <ele>471</ele>
        <time>2019-09-25T13:43:05Z</time>
      </trkpt>
      <trkpt lat="43.27876" lon="5.77661">
        <ele>470</ele>
        <time>2019-09-25T13:43:11Z</time>
      </trkpt>
      <trkpt lat="43.27881" lon="5.77655">
        <ele>470</ele>
        <time>2019-09-25T13:43:17Z</time>
      </trkpt>
      <trkpt lat="43.27883" lon="5.77647">
        <ele>471</ele>
        <time>2019-09-25T13:43:23Z</time>
      </trkpt>
      <trkpt lat="43.27887" lon="5.77642">
        <ele>472</ele>
        <time>2019-09-25T13:43:29Z</time>
      </trkpt>
      <trkpt lat="43.2789" lon="5.77636">
        <ele>472</ele>
        <time>2019-09-25T13:43:35Z</time>
      </trkpt>
      <trkpt lat="43.27893" lon="5.7763">
        <ele>472</ele>
        <time>2019-09-25T13:43:41Z</time>
      </trkpt>
      <trkpt lat="43.27897" lon="5.77624">
        <ele>472</ele>
        <time>2019-09-25T13:43:47Z</time>
      </trkpt>
      <trkpt lat="43.279" lon="5.77618">
        <ele>474</ele>
        <time>2019-09-25T13:43:53Z</time>
      </trkpt>
      <trkpt lat="43.27905" lon="5.77614">
        <ele>476</ele>
        <time>2019-09-25T13:44:01Z</time>
      </trkpt>
      <trkpt lat="43.27909" lon="5.77609">
        <ele>475</ele>
        <time>2019-09-25T13:44:07Z</time>
      </trkpt>
      <trkpt lat="43.27912" lon="5.77604">
        <ele>474</ele>
        <time>2019-09-25T13:44:15Z</time>
      </trkpt>
      <trkpt lat="43.27915" lon="5.776">
        <ele>475</ele>
        <time>2019-09-25T13:44:21Z</time>
      </trkpt>
      <trkpt lat="43.27917" lon="5.77594">
        <ele>477</ele>
        <time>2019-09-25T13:44:37Z</time>
      </trkpt>
      <trkpt lat="43.27914" lon="5.77586">
        <ele>476</ele>
        <time>2019-09-25T13:44:43Z</time>
      </trkpt>
      <trkpt lat="43.27914" lon="5.77577">
        <ele>476</ele>
        <time>2019-09-25T13:44:49Z</time>
      </trkpt>
      <trkpt lat="43.27913" lon="5.77569">
        <ele>476</ele>
        <time>2019-09-25T13:44:55Z</time>
      </trkpt>
      <trkpt lat="43.27913" lon="5.77563">
        <ele>476</ele>
        <time>2019-09-25T13:45:01Z</time>
      </trkpt>
      <trkpt lat="43.27912" lon="5.77555">
        <ele>477</ele>
        <time>2019-09-25T13:45:07Z</time>
      </trkpt>
      <trkpt lat="43.27913" lon="5.77548">
        <ele>477</ele>
        <time>2019-09-25T13:45:13Z</time>
      </trkpt>
      <trkpt lat="43.27913" lon="5.77541">
        <ele>476</ele>
        <time>2019-09-25T13:45:19Z</time>
      </trkpt>
      <trkpt lat="43.27914" lon="5.77534">
        <ele>477</ele>
        <time>2019-09-25T13:45:25Z</time>
      </trkpt>
      <trkpt lat="43.27917" lon="5.77528">
        <ele>477</ele>
        <time>2019-09-25T13:45:31Z</time>
      </trkpt>
      <trkpt lat="43.2792" lon="5.77522">
        <ele>476</ele>
        <time>2019-09-25T13:45:37Z</time>
      </trkpt>
      <trkpt lat="43.27923" lon="5.77515">
        <ele>476</ele>
        <time>2019-09-25T13:45:43Z</time>
      </trkpt>
      <trkpt lat="43.27925" lon="5.77508">
        <ele>477</ele>
        <time>2019-09-25T13:45:49Z</time>
      </trkpt>
      <trkpt lat="43.27926" lon="5.77502">
        <ele>477</ele>
        <time>2019-09-25T13:45:55Z</time>
      </trkpt>
      <trkpt lat="43.27928" lon="5.77495">
        <ele>477</ele>
        <time>2019-09-25T13:46:01Z</time>
      </trkpt>
      <trkpt lat="43.27931" lon="5.77489">
        <ele>477</ele>
        <time>2019-09-25T13:46:07Z</time>
      </trkpt>
      <trkpt lat="43.27934" lon="5.77483">
        <ele>478</ele>
        <time>2019-09-25T13:46:13Z</time>
      </trkpt>
      <trkpt lat="43.27937" lon="5.77477">
        <ele>478</ele>
        <time>2019-09-25T13:46:19Z</time>
      </trkpt>
      <trkpt lat="43.2794" lon="5.77471">
        <ele>478</ele>
        <time>2019-09-25T13:46:25Z</time>
      </trkpt>
      <trkpt lat="43.27942" lon="5.77465">
        <ele>479</ele>
        <time>2019-09-25T13:46:31Z</time>
      </trkpt>
      <trkpt lat="43.27944" lon="5.77458">
        <ele>477</ele>
        <time>2019-09-25T13:46:39Z</time>
      </trkpt>
      <trkpt lat="43.27948" lon="5.77452">
        <ele>477</ele>
        <time>2019-09-25T13:46:45Z</time>
      </trkpt>
      <trkpt lat="43.27951" lon="5.77446">
        <ele>477</ele>
        <time>2019-09-25T13:46:51Z</time>
      </trkpt>
      <trkpt lat="43.27954" lon="5.7744">
        <ele>477</ele>
        <time>2019-09-25T13:46:57Z</time>
      </trkpt>
      <trkpt lat="43.27957" lon="5.77433">
        <ele>477</ele>
        <time>2019-09-25T13:47:05Z</time>
      </trkpt>
      <trkpt lat="43.27959" lon="5.77425">
        <ele>478</ele>
        <time>2019-09-25T13:47:11Z</time>
      </trkpt>
      <trkpt lat="43.27962" lon="5.77418">
        <ele>478</ele>
        <time>2019-09-25T13:47:17Z</time>
      </trkpt>
      <trkpt lat="43.27964" lon="5.7741">
        <ele>478</ele>
        <time>2019-09-25T13:47:23Z</time>
      </trkpt>
      <trkpt lat="43.27964" lon="5.77402">
        <ele>478</ele>
        <time>2019-09-25T13:47:29Z</time>
      </trkpt>
      <trkpt lat="43.27965" lon="5.77395">
        <ele>478</ele>
        <time>2019-09-25T13:47:35Z</time>
      </trkpt>
      <trkpt lat="43.27967" lon="5.77389">
        <ele>479</ele>
        <time>2019-09-25T13:47:41Z</time>
      </trkpt>
      <trkpt lat="43.27969" lon="5.77381">
        <ele>480</ele>
        <time>2019-09-25T13:47:51Z</time>
      </trkpt>
      <trkpt lat="43.27967" lon="5.77375">
        <ele>480</ele>
        <time>2019-09-25T13:47:59Z</time>
      </trkpt>
      <trkpt lat="43.27963" lon="5.77369">
        <ele>480</ele>
        <time>2019-09-25T13:48:05Z</time>
      </trkpt>
      <trkpt lat="43.27961" lon="5.77362">
        <ele>481</ele>
        <time>2019-09-25T13:48:13Z</time>
      </trkpt>
      <trkpt lat="43.27957" lon="5.77356">
        <ele>482</ele>
        <time>2019-09-25T13:48:23Z</time>
      </trkpt>
      <trkpt lat="43.27959" lon="5.77349">
        <ele>480</ele>
        <time>2019-09-25T13:48:43Z</time>
      </trkpt>
      <trkpt lat="43.2796" lon="5.77342">
        <ele>480</ele>
        <time>2019-09-25T13:48:51Z</time>
      </trkpt>
      <trkpt lat="43.27955" lon="5.77338">
        <ele>479</ele>
        <time>2019-09-25T13:48:59Z</time>
      </trkpt>
      <trkpt lat="43.27952" lon="5.77334">
        <ele>478</ele>
        <time>2019-09-25T13:49:05Z</time>
      </trkpt>
      <trkpt lat="43.27948" lon="5.77329">
        <ele>477</ele>
        <time>2019-09-25T13:49:13Z</time>
      </trkpt>
      <trkpt lat="43.27944" lon="5.77325">
        <ele>478</ele>
        <time>2019-09-25T13:49:19Z</time>
      </trkpt>
      <trkpt lat="43.27941" lon="5.77321">
        <ele>478</ele>
        <time>2019-09-25T13:49:23Z</time>
      </trkpt>
      <trkpt lat="43.27936" lon="5.77315">
        <ele>476</ele>
        <time>2019-09-25T13:49:29Z</time>
      </trkpt>
      <trkpt lat="43.27932" lon="5.77309">
        <ele>477</ele>
        <time>2019-09-25T13:50:13Z</time>
      </trkpt>
      <trkpt lat="43.27927" lon="5.77307">
        <ele>475</ele>
        <time>2019-09-25T13:50:19Z</time>
      </trkpt>
      <trkpt lat="43.27923" lon="5.77312">
        <ele>475</ele>
        <time>2019-09-25T13:50:27Z</time>
      </trkpt>
      <trkpt lat="43.27928" lon="5.7731">
        <ele>475</ele>
        <time>2019-09-25T13:51:09Z</time>
      </trkpt>
      <trkpt lat="43.27926" lon="5.77305">
        <ele>472</ele>
        <time>2019-09-25T13:51:37Z</time>
      </trkpt>
      <trkpt lat="43.27924" lon="5.77299">
        <ele>477</ele>
        <time>2019-09-25T13:55:53Z</time>
      </trkpt>
      <trkpt lat="43.2792" lon="5.77293">
        <ele>479</ele>
        <time>2019-09-25T13:56:03Z</time>
      </trkpt>
      <trkpt lat="43.27916" lon="5.77288">
        <ele>479</ele>
        <time>2019-09-25T13:56:07Z</time>
      </trkpt>
      <trkpt lat="43.27912" lon="5.77284">
        <ele>479</ele>
        <time>2019-09-25T13:56:13Z</time>
      </trkpt>
      <trkpt lat="43.27908" lon="5.7728">
        <ele>478</ele>
        <time>2019-09-25T13:56:17Z</time>
      </trkpt>
      <trkpt lat="43.27904" lon="5.77274">
        <ele>478</ele>
        <time>2019-09-25T13:56:23Z</time>
      </trkpt>
      <trkpt lat="43.279" lon="5.77267">
        <ele>475</ele>
        <time>2019-09-25T13:56:29Z</time>
      </trkpt>
      <trkpt lat="43.27896" lon="5.77262">
        <ele>475</ele>
        <time>2019-09-25T13:56:33Z</time>
      </trkpt>
      <trkpt lat="43.27891" lon="5.77257">
        <ele>476</ele>
        <time>2019-09-25T13:56:39Z</time>
      </trkpt>
      <trkpt lat="43.27888" lon="5.7725">
        <ele>477</ele>
        <time>2019-09-25T13:56:45Z</time>
      </trkpt>
      <trkpt lat="43.27885" lon="5.77245">
        <ele>476</ele>
        <time>2019-09-25T13:56:49Z</time>
      </trkpt>
      <trkpt lat="43.2788" lon="5.77239">
        <ele>478</ele>
        <time>2019-09-25T13:56:55Z</time>
      </trkpt>
      <trkpt lat="43.27876" lon="5.77234">
        <ele>478</ele>
        <time>2019-09-25T13:57:01Z</time>
      </trkpt>
      <trkpt lat="43.27872" lon="5.7723">
        <ele>478</ele>
        <time>2019-09-25T13:57:05Z</time>
      </trkpt>
      <trkpt lat="43.27868" lon="5.77223">
        <ele>479</ele>
        <time>2019-09-25T13:57:11Z</time>
      </trkpt>
      <trkpt lat="43.27865" lon="5.77217">
        <ele>478</ele>
        <time>2019-09-25T13:57:17Z</time>
      </trkpt>
      <trkpt lat="43.27862" lon="5.77212">
        <ele>478</ele>
        <time>2019-09-25T13:57:21Z</time>
      </trkpt>
      <trkpt lat="43.27859" lon="5.77207">
        <ele>479</ele>
        <time>2019-09-25T13:57:25Z</time>
      </trkpt>
      <trkpt lat="43.27856" lon="5.77202">
        <ele>480</ele>
        <time>2019-09-25T13:57:29Z</time>
      </trkpt>
      <trkpt lat="43.27852" lon="5.77194">
        <ele>480</ele>
        <time>2019-09-25T13:57:35Z</time>
      </trkpt>
      <trkpt lat="43.27849" lon="5.77187">
        <ele>481</ele>
        <time>2019-09-25T13:57:41Z</time>
      </trkpt>
      <trkpt lat="43.27845" lon="5.7718">
        <ele>480</ele>
        <time>2019-09-25T13:57:47Z</time>
      </trkpt>
      <trkpt lat="43.27841" lon="5.77172">
        <ele>481</ele>
        <time>2019-09-25T13:57:53Z</time>
      </trkpt>
      <trkpt lat="43.27838" lon="5.77165">
        <ele>481</ele>
        <time>2019-09-25T13:57:59Z</time>
      </trkpt>
      <trkpt lat="43.27835" lon="5.77158">
        <ele>482</ele>
        <time>2019-09-25T13:58:05Z</time>
      </trkpt>
      <trkpt lat="43.27831" lon="5.77153">
        <ele>480</ele>
        <time>2019-09-25T13:58:09Z</time>
      </trkpt>
      <trkpt lat="43.27828" lon="5.77148">
        <ele>479</ele>
        <time>2019-09-25T13:58:13Z</time>
      </trkpt>
      <trkpt lat="43.27823" lon="5.77142">
        <ele>478</ele>
        <time>2019-09-25T13:58:19Z</time>
      </trkpt>
      <trkpt lat="43.27818" lon="5.77136">
        <ele>476</ele>
        <time>2019-09-25T13:58:23Z</time>
      </trkpt>
      <trkpt lat="43.27815" lon="5.77131">
        <ele>476</ele>
        <time>2019-09-25T13:58:27Z</time>
      </trkpt>
      <trkpt lat="43.27811" lon="5.77125">
        <ele>476</ele>
        <time>2019-09-25T13:58:33Z</time>
      </trkpt>
      <trkpt lat="43.27807" lon="5.77121">
        <ele>478</ele>
        <time>2019-09-25T13:58:39Z</time>
      </trkpt>
      <trkpt lat="43.27803" lon="5.77117">
        <ele>476</ele>
        <time>2019-09-25T13:58:45Z</time>
      </trkpt>
      <trkpt lat="43.27799" lon="5.77109">
        <ele>475</ele>
        <time>2019-09-25T13:58:53Z</time>
      </trkpt>
      <trkpt lat="43.27796" lon="5.77102">
        <ele>473</ele>
        <time>2019-09-25T13:58:57Z</time>
      </trkpt>
      <trkpt lat="43.27792" lon="5.77096">
        <ele>472</ele>
        <time>2019-09-25T13:59:01Z</time>
      </trkpt>
      <trkpt lat="43.27789" lon="5.77091">
        <ele>472</ele>
        <time>2019-09-25T13:59:05Z</time>
      </trkpt>
      <trkpt lat="43.27785" lon="5.77085">
        <ele>471</ele>
        <time>2019-09-25T13:59:11Z</time>
      </trkpt>
      <trkpt lat="43.2778" lon="5.77079">
        <ele>471</ele>
        <time>2019-09-25T13:59:19Z</time>
      </trkpt>
      <trkpt lat="43.27776" lon="5.77074">
        <ele>471</ele>
        <time>2019-09-25T13:59:23Z</time>
      </trkpt>
      <trkpt lat="43.27773" lon="5.7707">
        <ele>472</ele>
        <time>2019-09-25T13:59:27Z</time>
      </trkpt>
      <trkpt lat="43.27769" lon="5.77066">
        <ele>473</ele>
        <time>2019-09-25T13:59:33Z</time>
      </trkpt>
      <trkpt lat="43.27766" lon="5.7706">
        <ele>473</ele>
        <time>2019-09-25T13:59:37Z</time>
      </trkpt>
      <trkpt lat="43.27763" lon="5.77054">
        <ele>471</ele>
        <time>2019-09-25T13:59:41Z</time>
      </trkpt>
      <trkpt lat="43.27759" lon="5.77047">
        <ele>470</ele>
        <time>2019-09-25T13:59:47Z</time>
      </trkpt>
      <trkpt lat="43.27755" lon="5.77041">
        <ele>469</ele>
        <time>2019-09-25T13:59:53Z</time>
      </trkpt>
      <trkpt lat="43.27753" lon="5.77034">
        <ele>471</ele>
        <time>2019-09-25T13:59:59Z</time>
      </trkpt>
      <trkpt lat="43.2775" lon="5.77026">
        <ele>471</ele>
        <time>2019-09-25T14:00:05Z</time>
      </trkpt>
      <trkpt lat="43.27745" lon="5.77019">
        <ele>470</ele>
        <time>2019-09-25T14:00:11Z</time>
      </trkpt>
      <trkpt lat="43.2774" lon="5.77014">
        <ele>470</ele>
        <time>2019-09-25T14:00:17Z</time>
      </trkpt>
      <trkpt lat="43.27735" lon="5.77011">
        <ele>469</ele>
        <time>2019-09-25T14:00:23Z</time>
      </trkpt>
      <trkpt lat="43.2773" lon="5.7701">
        <ele>469</ele>
        <time>2019-09-25T14:00:27Z</time>
      </trkpt>
      <trkpt lat="43.27725" lon="5.77009">
        <ele>471</ele>
        <time>2019-09-25T14:00:35Z</time>
      </trkpt>
      <trkpt lat="43.27721" lon="5.77005">
        <ele>468</ele>
        <time>2019-09-25T14:00:49Z</time>
      </trkpt>
      <trkpt lat="43.27717" lon="5.77002">
        <ele>466</ele>
        <time>2019-09-25T14:00:53Z</time>
      </trkpt>
      <trkpt lat="43.27713" lon="5.76994">
        <ele>467</ele>
        <time>2019-09-25T14:00:59Z</time>
      </trkpt>
      <trkpt lat="43.2771" lon="5.76988">
        <ele>467</ele>
        <time>2019-09-25T14:01:03Z</time>
      </trkpt>
      <trkpt lat="43.27708" lon="5.7698">
        <ele>467</ele>
        <time>2019-09-25T14:01:07Z</time>
      </trkpt>
      <trkpt lat="43.27704" lon="5.76975">
        <ele>469</ele>
        <time>2019-09-25T14:01:11Z</time>
      </trkpt>
      <trkpt lat="43.277" lon="5.76971">
        <ele>468</ele>
        <time>2019-09-25T14:01:15Z</time>
      </trkpt>
      <trkpt lat="43.27696" lon="5.76967">
        <ele>468</ele>
        <time>2019-09-25T14:01:19Z</time>
      </trkpt>
      <trkpt lat="43.27691" lon="5.76964">
        <ele>467</ele>
        <time>2019-09-25T14:01:25Z</time>
      </trkpt>
      <trkpt lat="43.27685" lon="5.7696">
        <ele>468</ele>
        <time>2019-09-25T14:01:31Z</time>
      </trkpt>
      <trkpt lat="43.27681" lon="5.76956">
        <ele>467</ele>
        <time>2019-09-25T14:01:35Z</time>
      </trkpt>
      <trkpt lat="43.27677" lon="5.76953">
        <ele>467</ele>
        <time>2019-09-25T14:01:39Z</time>
      </trkpt>
      <trkpt lat="43.27672" lon="5.7695">
        <ele>467</ele>
        <time>2019-09-25T14:01:43Z</time>
      </trkpt>
      <trkpt lat="43.27667" lon="5.76946">
        <ele>467</ele>
        <time>2019-09-25T14:01:49Z</time>
      </trkpt>
      <trkpt lat="43.27663" lon="5.76943">
        <ele>467</ele>
        <time>2019-09-25T14:01:53Z</time>
      </trkpt>
      <trkpt lat="43.27658" lon="5.7694">
        <ele>467</ele>
        <time>2019-09-25T14:01:57Z</time>
      </trkpt>
      <trkpt lat="43.27654" lon="5.76938">
        <ele>467</ele>
        <time>2019-09-25T14:02:01Z</time>
      </trkpt>
      <trkpt lat="43.27648" lon="5.76934">
        <ele>468</ele>
        <time>2019-09-25T14:02:07Z</time>
      </trkpt>
      <trkpt lat="43.27644" lon="5.7693">
        <ele>468</ele>
        <time>2019-09-25T14:02:11Z</time>
      </trkpt>
      <trkpt lat="43.2764" lon="5.76927">
        <ele>468</ele>
        <time>2019-09-25T14:02:15Z</time>
      </trkpt>
      <trkpt lat="43.27634" lon="5.76923">
        <ele>467</ele>
        <time>2019-09-25T14:02:21Z</time>
      </trkpt>
      <trkpt lat="43.27627" lon="5.76919">
        <ele>464</ele>
        <time>2019-09-25T14:02:27Z</time>
      </trkpt>
      <trkpt lat="43.27621" lon="5.76916">
        <ele>463</ele>
        <time>2019-09-25T14:02:33Z</time>
      </trkpt>
      <trkpt lat="43.27615" lon="5.76913">
        <ele>463</ele>
        <time>2019-09-25T14:02:39Z</time>
      </trkpt>
      <trkpt lat="43.2761" lon="5.76911">
        <ele>462</ele>
        <time>2019-09-25T14:02:43Z</time>
      </trkpt>
      <trkpt lat="43.27606" lon="5.7691">
        <ele>462</ele>
        <time>2019-09-25T14:02:47Z</time>
      </trkpt>
      <trkpt lat="43.27601" lon="5.76909">
        <ele>463</ele>
        <time>2019-09-25T14:02:51Z</time>
      </trkpt>
      <trkpt lat="43.27596" lon="5.76908">
        <ele>463</ele>
        <time>2019-09-25T14:02:55Z</time>
      </trkpt>
      <trkpt lat="43.27589" lon="5.76905">
        <ele>463</ele>
        <time>2019-09-25T14:03:01Z</time>
      </trkpt>
      <trkpt lat="43.27582" lon="5.76903">
        <ele>464</ele>
        <time>2019-09-25T14:03:07Z</time>
      </trkpt>
      <trkpt lat="43.27575" lon="5.769">
        <ele>465</ele>
        <time>2019-09-25T14:03:13Z</time>
      </trkpt>
      <trkpt lat="43.2757" lon="5.76898">
        <ele>464</ele>
        <time>2019-09-25T14:03:19Z</time>
      </trkpt>
      <trkpt lat="43.27564" lon="5.76896">
        <ele>464</ele>
        <time>2019-09-25T14:03:25Z</time>
      </trkpt>
      <trkpt lat="43.27558" lon="5.76895">
        <ele>464</ele>
        <time>2019-09-25T14:03:31Z</time>
      </trkpt>
      <trkpt lat="43.27551" lon="5.76896">
        <ele>461</ele>
        <time>2019-09-25T14:03:37Z</time>
      </trkpt>
      <trkpt lat="43.27546" lon="5.76896">
        <ele>459</ele>
        <time>2019-09-25T14:03:43Z</time>
      </trkpt>
      <trkpt lat="43.27539" lon="5.76898">
        <ele>458</ele>
        <time>2019-09-25T14:03:49Z</time>
      </trkpt>
      <trkpt lat="43.27533" lon="5.76899">
        <ele>458</ele>
        <time>2019-09-25T14:03:55Z</time>
      </trkpt>
      <trkpt lat="43.27529" lon="5.76899">
        <ele>458</ele>
        <time>2019-09-25T14:03:59Z</time>
      </trkpt>
      <trkpt lat="43.27524" lon="5.76902">
        <ele>458</ele>
        <time>2019-09-25T14:04:05Z</time>
      </trkpt>
      <trkpt lat="43.27517" lon="5.76904">
        <ele>457</ele>
        <time>2019-09-25T14:04:11Z</time>
      </trkpt>
      <trkpt lat="43.27512" lon="5.76903">
        <ele>455</ele>
        <time>2019-09-25T14:04:15Z</time>
      </trkpt>
      <trkpt lat="43.27506" lon="5.76905">
        <ele>453</ele>
        <time>2019-09-25T14:04:21Z</time>
      </trkpt>
      <trkpt lat="43.275" lon="5.76907">
        <ele>454</ele>
        <time>2019-09-25T14:04:27Z</time>
      </trkpt>
      <trkpt lat="43.27495" lon="5.76908">
        <ele>454</ele>
        <time>2019-09-25T14:04:31Z</time>
      </trkpt>
      <trkpt lat="43.2749" lon="5.76907">
        <ele>455</ele>
        <time>2019-09-25T14:04:35Z</time>
      </trkpt>
      <trkpt lat="43.27486" lon="5.76905">
        <ele>454</ele>
        <time>2019-09-25T14:04:39Z</time>
      </trkpt>
      <trkpt lat="43.2748" lon="5.76904">
        <ele>454</ele>
        <time>2019-09-25T14:04:45Z</time>
      </trkpt>
      <trkpt lat="43.27474" lon="5.769">
        <ele>455</ele>
        <time>2019-09-25T14:04:51Z</time>
      </trkpt>
      <trkpt lat="43.27469" lon="5.76896">
        <ele>456</ele>
        <time>2019-09-25T14:04:57Z</time>
      </trkpt>
      <trkpt lat="43.27464" lon="5.76891">
        <ele>457</ele>
        <time>2019-09-25T14:05:03Z</time>
      </trkpt>
      <trkpt lat="43.2746" lon="5.76888">
        <ele>457</ele>
        <time>2019-09-25T14:05:07Z</time>
      </trkpt>
      <trkpt lat="43.27455" lon="5.76885">
        <ele>456</ele>
        <time>2019-09-25T14:05:11Z</time>
      </trkpt>
      <trkpt lat="43.27451" lon="5.76883">
        <ele>456</ele>
        <time>2019-09-25T14:05:15Z</time>
      </trkpt>
      <trkpt lat="43.27446" lon="5.7688">
        <ele>456</ele>
        <time>2019-09-25T14:05:19Z</time>
      </trkpt>
      <trkpt lat="43.27441" lon="5.7688">
        <ele>456</ele>
        <time>2019-09-25T14:05:23Z</time>
      </trkpt>
      <trkpt lat="43.27434" lon="5.7688">
        <ele>455</ele>
        <time>2019-09-25T14:05:29Z</time>
      </trkpt>
      <trkpt lat="43.27429" lon="5.76881">
        <ele>457</ele>
        <time>2019-09-25T14:05:33Z</time>
      </trkpt>
      <trkpt lat="43.27423" lon="5.76885">
        <ele>456</ele>
        <time>2019-09-25T14:05:39Z</time>
      </trkpt>
      <trkpt lat="43.27418" lon="5.76891">
        <ele>457</ele>
        <time>2019-09-25T14:05:45Z</time>
      </trkpt>
      <trkpt lat="43.27415" lon="5.76898">
        <ele>456</ele>
        <time>2019-09-25T14:05:51Z</time>
      </trkpt>
      <trkpt lat="43.27412" lon="5.76905">
        <ele>455</ele>
        <time>2019-09-25T14:05:57Z</time>
      </trkpt>
      <trkpt lat="43.27409" lon="5.76912">
        <ele>455</ele>
        <time>2019-09-25T14:06:03Z</time>
      </trkpt>
      <trkpt lat="43.27405" lon="5.76917">
        <ele>454</ele>
        <time>2019-09-25T14:06:09Z</time>
      </trkpt>
      <trkpt lat="43.27402" lon="5.76923">
        <ele>452</ele>
        <time>2019-09-25T14:06:15Z</time>
      </trkpt>
      <trkpt lat="43.27398" lon="5.76927">
        <ele>451</ele>
        <time>2019-09-25T14:06:21Z</time>
      </trkpt>
      <trkpt lat="43.27394" lon="5.76933">
        <ele>449</ele>
        <time>2019-09-25T14:06:29Z</time>
      </trkpt>
      <trkpt lat="43.2739" lon="5.76938">
        <ele>448</ele>
        <time>2019-09-25T14:06:35Z</time>
      </trkpt>
      <trkpt lat="43.27385" lon="5.7694">
        <ele>445</ele>
        <time>2019-09-25T14:06:43Z</time>
      </trkpt>
      <trkpt lat="43.2738" lon="5.7694">
        <ele>444</ele>
        <time>2019-09-25T14:06:49Z</time>
      </trkpt>
      <trkpt lat="43.27374" lon="5.7694">
        <ele>442</ele>
        <time>2019-09-25T14:06:55Z</time>
      </trkpt>
      <trkpt lat="43.27369" lon="5.76941">
        <ele>440</ele>
        <time>2019-09-25T14:07:01Z</time>
      </trkpt>
      <trkpt lat="43.27365" lon="5.76945">
        <ele>438</ele>
        <time>2019-09-25T14:07:07Z</time>
      </trkpt>
      <trkpt lat="43.27361" lon="5.7695">
        <ele>436</ele>
        <time>2019-09-25T14:07:13Z</time>
      </trkpt>
      <trkpt lat="43.27357" lon="5.76954">
        <ele>437</ele>
        <time>2019-09-25T14:07:19Z</time>
      </trkpt>
      <trkpt lat="43.27353" lon="5.7696">
        <ele>434</ele>
        <time>2019-09-25T14:07:27Z</time>
      </trkpt>
      <trkpt lat="43.27349" lon="5.76964">
        <ele>433</ele>
        <time>2019-09-25T14:07:33Z</time>
      </trkpt>
      <trkpt lat="43.27346" lon="5.76969">
        <ele>432</ele>
        <time>2019-09-25T14:07:39Z</time>
      </trkpt>
      <trkpt lat="43.27343" lon="5.76976">
        <ele>430</ele>
        <time>2019-09-25T14:07:45Z</time>
      </trkpt>
      <trkpt lat="43.27341" lon="5.76982">
        <ele>428</ele>
        <time>2019-09-25T14:07:51Z</time>
      </trkpt>
      <trkpt lat="43.27339" lon="5.76988">
        <ele>427</ele>
        <time>2019-09-25T14:07:55Z</time>
      </trkpt>
      <trkpt lat="43.27337" lon="5.76994">
        <ele>427</ele>
        <time>2019-09-25T14:07:59Z</time>
      </trkpt>
      <trkpt lat="43.27336" lon="5.77">
        <ele>428</ele>
        <time>2019-09-25T14:08:07Z</time>
      </trkpt>
      <trkpt lat="43.2733" lon="5.77001">
        <ele>429</ele>
        <time>2019-09-25T14:08:19Z</time>
      </trkpt>
      <trkpt lat="43.27334" lon="5.77004">
        <ele>429</ele>
        <time>2019-09-25T14:09:51Z</time>
      </trkpt>
      <trkpt lat="43.27336" lon="5.76999">
        <ele>428</ele>
        <time>2019-09-25T14:17:59Z</time>
      </trkpt>
      <trkpt lat="43.27335" lon="5.76991">
        <ele>426</ele>
        <time>2019-09-25T14:18:05Z</time>
      </trkpt>
      <trkpt lat="43.27332" lon="5.76984">
        <ele>427</ele>
        <time>2019-09-25T14:18:09Z</time>
      </trkpt>
      <trkpt lat="43.2733" lon="5.76977">
        <ele>427</ele>
        <time>2019-09-25T14:18:15Z</time>
      </trkpt>
      <trkpt lat="43.27328" lon="5.7697">
        <ele>427</ele>
        <time>2019-09-25T14:18:19Z</time>
      </trkpt>
      <trkpt lat="43.27327" lon="5.76962">
        <ele>429</ele>
        <time>2019-09-25T14:18:25Z</time>
      </trkpt>
      <trkpt lat="43.27326" lon="5.76956">
        <ele>429</ele>
        <time>2019-09-25T14:18:31Z</time>
      </trkpt>
      <trkpt lat="43.27324" lon="5.76949">
        <ele>430</ele>
        <time>2019-09-25T14:18:37Z</time>
      </trkpt>
      <trkpt lat="43.27322" lon="5.76942">
        <ele>429</ele>
        <time>2019-09-25T14:18:45Z</time>
      </trkpt>
      <trkpt lat="43.2732" lon="5.76934">
        <ele>428</ele>
        <time>2019-09-25T14:18:51Z</time>
      </trkpt>
      <trkpt lat="43.27318" lon="5.76928">
        <ele>429</ele>
        <time>2019-09-25T14:18:57Z</time>
      </trkpt>
      <trkpt lat="43.27315" lon="5.76919">
        <ele>429</ele>
        <time>2019-09-25T14:19:03Z</time>
      </trkpt>
      <trkpt lat="43.27313" lon="5.76914">
        <ele>427</ele>
        <time>2019-09-25T14:19:07Z</time>
      </trkpt>
      <trkpt lat="43.2731" lon="5.76908">
        <ele>428</ele>
        <time>2019-09-25T14:19:11Z</time>
      </trkpt>
      <trkpt lat="43.27308" lon="5.76901">
        <ele>428</ele>
        <time>2019-09-25T14:19:17Z</time>
      </trkpt>
      <trkpt lat="43.27306" lon="5.76893">
        <ele>429</ele>
        <time>2019-09-25T14:19:23Z</time>
      </trkpt>
      <trkpt lat="43.27304" lon="5.76888">
        <ele>430</ele>
        <time>2019-09-25T14:19:27Z</time>
      </trkpt>
      <trkpt lat="43.27302" lon="5.7688">
        <ele>429</ele>
        <time>2019-09-25T14:19:33Z</time>
      </trkpt>
      <trkpt lat="43.27301" lon="5.76872">
        <ele>429</ele>
        <time>2019-09-25T14:19:39Z</time>
      </trkpt>
      <trkpt lat="43.27298" lon="5.76866">
        <ele>427</ele>
        <time>2019-09-25T14:19:43Z</time>
      </trkpt>
      <trkpt lat="43.27295" lon="5.76861">
        <ele>427</ele>
        <time>2019-09-25T14:19:47Z</time>
      </trkpt>
      <trkpt lat="43.27291" lon="5.76854">
        <ele>425</ele>
        <time>2019-09-25T14:19:51Z</time>
      </trkpt>
      <trkpt lat="43.27286" lon="5.76848">
        <ele>427</ele>
        <time>2019-09-25T14:19:55Z</time>
      </trkpt>
      <trkpt lat="43.27283" lon="5.76841">
        <ele>429</ele>
        <time>2019-09-25T14:20:01Z</time>
      </trkpt>
      <trkpt lat="43.27281" lon="5.76835">
        <ele>428</ele>
        <time>2019-09-25T14:20:05Z</time>
      </trkpt>
      <trkpt lat="43.27278" lon="5.76829">
        <ele>428</ele>
        <time>2019-09-25T14:20:11Z</time>
      </trkpt>
      <trkpt lat="43.27273" lon="5.76826">
        <ele>426</ele>
        <time>2019-09-25T14:20:15Z</time>
      </trkpt>
      <trkpt lat="43.27268" lon="5.76823">
        <ele>423</ele>
        <time>2019-09-25T14:20:19Z</time>
      </trkpt>
      <trkpt lat="43.27262" lon="5.76823">
        <ele>423</ele>
        <time>2019-09-25T14:20:23Z</time>
      </trkpt>
      <trkpt lat="43.27256" lon="5.76821">
        <ele>423</ele>
        <time>2019-09-25T14:20:29Z</time>
      </trkpt>
      <trkpt lat="43.27251" lon="5.76818">
        <ele>422</ele>
        <time>2019-09-25T14:20:35Z</time>
      </trkpt>
      <trkpt lat="43.27245" lon="5.76816">
        <ele>423</ele>
        <time>2019-09-25T14:20:41Z</time>
      </trkpt>
      <trkpt lat="43.2724" lon="5.76815">
        <ele>424</ele>
        <time>2019-09-25T14:20:45Z</time>
      </trkpt>
      <trkpt lat="43.27234" lon="5.76815">
        <ele>425</ele>
        <time>2019-09-25T14:20:51Z</time>
      </trkpt>
      <trkpt lat="43.27228" lon="5.76812">
        <ele>426</ele>
        <time>2019-09-25T14:20:57Z</time>
      </trkpt>
      <trkpt lat="43.27223" lon="5.76811">
        <ele>424</ele>
        <time>2019-09-25T14:21:01Z</time>
      </trkpt>
      <trkpt lat="43.27217" lon="5.76813">
        <ele>423</ele>
        <time>2019-09-25T14:21:05Z</time>
      </trkpt>
      <trkpt lat="43.27213" lon="5.76817">
        <ele>424</ele>
        <time>2019-09-25T14:21:09Z</time>
      </trkpt>
      <trkpt lat="43.2721" lon="5.76821">
        <ele>424</ele>
        <time>2019-09-25T14:21:13Z</time>
      </trkpt>
      <trkpt lat="43.27206" lon="5.76824">
        <ele>424</ele>
        <time>2019-09-25T14:21:17Z</time>
      </trkpt>
      <trkpt lat="43.27201" lon="5.76826">
        <ele>424</ele>
        <time>2019-09-25T14:21:21Z</time>
      </trkpt>
      <trkpt lat="43.27197" lon="5.76823">
        <ele>423</ele>
        <time>2019-09-25T14:21:25Z</time>
      </trkpt>
      <trkpt lat="43.27193" lon="5.7682">
        <ele>423</ele>
        <time>2019-09-25T14:21:29Z</time>
      </trkpt>
      <trkpt lat="43.27188" lon="5.76816">
        <ele>422</ele>
        <time>2019-09-25T14:21:37Z</time>
      </trkpt>
      <trkpt lat="43.27183" lon="5.76812">
        <ele>421</ele>
        <time>2019-09-25T14:21:41Z</time>
      </trkpt>
      <trkpt lat="43.27176" lon="5.76809">
        <ele>420</ele>
        <time>2019-09-25T14:21:47Z</time>
      </trkpt>
      <trkpt lat="43.27171" lon="5.76809">
        <ele>419</ele>
        <time>2019-09-25T14:21:53Z</time>
      </trkpt>
      <trkpt lat="43.27166" lon="5.76809">
        <ele>419</ele>
        <time>2019-09-25T14:21:57Z</time>
      </trkpt>
      <trkpt lat="43.27161" lon="5.76803">
        <ele>418</ele>
        <time>2019-09-25T14:22:03Z</time>
      </trkpt>
      <trkpt lat="43.2716" lon="5.76795">
        <ele>420</ele>
        <time>2019-09-25T14:22:09Z</time>
      </trkpt>
      <trkpt lat="43.27157" lon="5.76789">
        <ele>421</ele>
        <time>2019-09-25T14:22:15Z</time>
      </trkpt>
      <trkpt lat="43.27151" lon="5.76788">
        <ele>418</ele>
        <time>2019-09-25T14:22:21Z</time>
      </trkpt>
      <trkpt lat="43.27146" lon="5.76787">
        <ele>419</ele>
        <time>2019-09-25T14:22:25Z</time>
      </trkpt>
      <trkpt lat="43.27141" lon="5.76785">
        <ele>420</ele>
        <time>2019-09-25T14:22:29Z</time>
      </trkpt>
      <trkpt lat="43.27136" lon="5.76782">
        <ele>420</ele>
        <time>2019-09-25T14:22:35Z</time>
      </trkpt>
      <trkpt lat="43.27132" lon="5.76777">
        <ele>420</ele>
        <time>2019-09-25T14:22:39Z</time>
      </trkpt>
      <trkpt lat="43.27128" lon="5.76772">
        <ele>421</ele>
        <time>2019-09-25T14:22:45Z</time>
      </trkpt>
      <trkpt lat="43.27124" lon="5.76767">
        <ele>420</ele>
        <time>2019-09-25T14:22:51Z</time>
      </trkpt>
      <trkpt lat="43.27118" lon="5.76764">
        <ele>418</ele>
        <time>2019-09-25T14:22:55Z</time>
      </trkpt>
      <trkpt lat="43.27114" lon="5.7676">
        <ele>417</ele>
        <time>2019-09-25T14:22:59Z</time>
      </trkpt>
      <trkpt lat="43.27109" lon="5.76755">
        <ele>418</ele>
        <time>2019-09-25T14:23:05Z</time>
      </trkpt>
      <trkpt lat="43.27104" lon="5.76749">
        <ele>420</ele>
        <time>2019-09-25T14:23:11Z</time>
      </trkpt>
      <trkpt lat="43.27101" lon="5.76744">
        <ele>420</ele>
        <time>2019-09-25T14:23:15Z</time>
      </trkpt>
      <trkpt lat="43.27097" lon="5.7674">
        <ele>420</ele>
        <time>2019-09-25T14:23:21Z</time>
      </trkpt>
      <trkpt lat="43.27093" lon="5.76734">
        <ele>421</ele>
        <time>2019-09-25T14:23:27Z</time>
      </trkpt>
      <trkpt lat="43.27089" lon="5.76729">
        <ele>422</ele>
        <time>2019-09-25T14:23:33Z</time>
      </trkpt>
      <trkpt lat="43.27084" lon="5.76722">
        <ele>422</ele>
        <time>2019-09-25T14:23:39Z</time>
      </trkpt>
      <trkpt lat="43.27081" lon="5.76716">
        <ele>420</ele>
        <time>2019-09-25T14:23:45Z</time>
      </trkpt>
      <trkpt lat="43.27078" lon="5.7671">
        <ele>419</ele>
        <time>2019-09-25T14:23:49Z</time>
      </trkpt>
      <trkpt lat="43.27076" lon="5.76704">
        <ele>419</ele>
        <time>2019-09-25T14:23:53Z</time>
      </trkpt>
      <trkpt lat="43.27072" lon="5.76698">
        <ele>417</ele>
        <time>2019-09-25T14:23:59Z</time>
      </trkpt>
      <trkpt lat="43.27067" lon="5.76692">
        <ele>415</ele>
        <time>2019-09-25T14:24:03Z</time>
      </trkpt>
      <trkpt lat="43.27063" lon="5.76688">
        <ele>416</ele>
        <time>2019-09-25T14:24:07Z</time>
      </trkpt>
      <trkpt lat="43.27058" lon="5.76683">
        <ele>418</ele>
        <time>2019-09-25T14:24:13Z</time>
      </trkpt>
      <trkpt lat="43.27054" lon="5.76676">
        <ele>419</ele>
        <time>2019-09-25T14:24:19Z</time>
      </trkpt>
      <trkpt lat="43.27053" lon="5.76668">
        <ele>419</ele>
        <time>2019-09-25T14:24:25Z</time>
      </trkpt>
      <trkpt lat="43.27053" lon="5.76661">
        <ele>418</ele>
        <time>2019-09-25T14:24:31Z</time>
      </trkpt>
      <trkpt lat="43.27055" lon="5.76654">
        <ele>416</ele>
        <time>2019-09-25T14:24:37Z</time>
      </trkpt>
      <trkpt lat="43.2706" lon="5.76651">
        <ele>415</ele>
        <time>2019-09-25T14:24:43Z</time>
      </trkpt>
      <trkpt lat="43.27063" lon="5.76646">
        <ele>415</ele>
        <time>2019-09-25T14:24:47Z</time>
      </trkpt>
      <trkpt lat="43.27065" lon="5.7664">
        <ele>416</ele>
        <time>2019-09-25T14:24:51Z</time>
      </trkpt>
      <trkpt lat="43.27069" lon="5.76636">
        <ele>416</ele>
        <time>2019-09-25T14:24:57Z</time>
      </trkpt>
      <trkpt lat="43.27073" lon="5.76629">
        <ele>415</ele>
        <time>2019-09-25T14:25:03Z</time>
      </trkpt>
      <trkpt lat="43.27078" lon="5.76625">
        <ele>414</ele>
        <time>2019-09-25T14:25:09Z</time>
      </trkpt>
      <trkpt lat="43.2708" lon="5.76619">
        <ele>416</ele>
        <time>2019-09-25T14:25:13Z</time>
      </trkpt>
      <trkpt lat="43.27085" lon="5.76613">
        <ele>416</ele>
        <time>2019-09-25T14:25:19Z</time>
      </trkpt>
      <trkpt lat="43.27089" lon="5.76607">
        <ele>415</ele>
        <time>2019-09-25T14:25:25Z</time>
      </trkpt>
      <trkpt lat="43.27094" lon="5.76604">
        <ele>415</ele>
        <time>2019-09-25T14:25:31Z</time>
      </trkpt>
      <trkpt lat="43.27098" lon="5.76599">
        <ele>416</ele>
        <time>2019-09-25T14:25:37Z</time>
      </trkpt>
      <trkpt lat="43.27102" lon="5.76593">
        <ele>415</ele>
        <time>2019-09-25T14:25:41Z</time>
      </trkpt>
      <trkpt lat="43.27105" lon="5.76586">
        <ele>415</ele>
        <time>2019-09-25T14:25:47Z</time>
      </trkpt>
      <trkpt lat="43.27108" lon="5.7658">
        <ele>415</ele>
        <time>2019-09-25T14:25:51Z</time>
      </trkpt>
      <trkpt lat="43.27111" lon="5.76575">
        <ele>415</ele>
        <time>2019-09-25T14:25:55Z</time>
      </trkpt>
      <trkpt lat="43.27115" lon="5.76569">
        <ele>415</ele>
        <time>2019-09-25T14:26:01Z</time>
      </trkpt>
      <trkpt lat="43.27119" lon="5.76563">
        <ele>415</ele>
        <time>2019-09-25T14:26:07Z</time>
      </trkpt>
      <trkpt lat="43.27122" lon="5.76554">
        <ele>417</ele>
        <time>2019-09-25T14:26:13Z</time>
      </trkpt>
      <trkpt lat="43.27126" lon="5.76547">
        <ele>414</ele>
        <time>2019-09-25T14:26:19Z</time>
      </trkpt>
      <trkpt lat="43.27127" lon="5.76541">
        <ele>415</ele>
        <time>2019-09-25T14:26:23Z</time>
      </trkpt>
      <trkpt lat="43.27128" lon="5.76534">
        <ele>412</ele>
        <time>2019-09-25T14:26:27Z</time>
      </trkpt>
      <trkpt lat="43.2713" lon="5.76526">
        <ele>413</ele>
        <time>2019-09-25T14:26:33Z</time>
      </trkpt>
      <trkpt lat="43.27134" lon="5.76522">
        <ele>410</ele>
        <time>2019-09-25T14:26:39Z</time>
      </trkpt>
      <trkpt lat="43.27134" lon="5.76514">
        <ele>409</ele>
        <time>2019-09-25T14:26:43Z</time>
      </trkpt>
      <trkpt lat="43.27134" lon="5.76507">
        <ele>411</ele>
        <time>2019-09-25T14:26:47Z</time>
      </trkpt>
      <trkpt lat="43.27133" lon="5.765">
        <ele>413</ele>
        <time>2019-09-25T14:26:51Z</time>
      </trkpt>
      <trkpt lat="43.27133" lon="5.76492">
        <ele>413</ele>
        <time>2019-09-25T14:26:57Z</time>
      </trkpt>
      <trkpt lat="43.27131" lon="5.76485">
        <ele>415</ele>
        <time>2019-09-25T14:27:01Z</time>
      </trkpt>
      <trkpt lat="43.27125" lon="5.76477">
        <ele>413</ele>
        <time>2019-09-25T14:27:05Z</time>
      </trkpt>
      <trkpt lat="43.27123" lon="5.7647">
        <ele>416</ele>
        <time>2019-09-25T14:27:11Z</time>
      </trkpt>
      <trkpt lat="43.27121" lon="5.76464">
        <ele>415</ele>
        <time>2019-09-25T14:27:19Z</time>
      </trkpt>
      <trkpt lat="43.27119" lon="5.76459">
        <ele>413</ele>
        <time>2019-09-25T14:27:25Z</time>
      </trkpt>
      <trkpt lat="43.27116" lon="5.76452">
        <ele>411</ele>
        <time>2019-09-25T14:27:31Z</time>
      </trkpt>
      <trkpt lat="43.27111" lon="5.76446">
        <ele>411</ele>
        <time>2019-09-25T14:27:35Z</time>
      </trkpt>
      <trkpt lat="43.27107" lon="5.76441">
        <ele>413</ele>
        <time>2019-09-25T14:27:39Z</time>
      </trkpt>
      <trkpt lat="43.27102" lon="5.76436">
        <ele>413</ele>
        <time>2019-09-25T14:27:43Z</time>
      </trkpt>
      <trkpt lat="43.27095" lon="5.76432">
        <ele>411</ele>
        <time>2019-09-25T14:27:47Z</time>
      </trkpt>
      <trkpt lat="43.2709" lon="5.76428">
        <ele>411</ele>
        <time>2019-09-25T14:27:51Z</time>
      </trkpt>
      <trkpt lat="43.27084" lon="5.76426">
        <ele>408</ele>
        <time>2019-09-25T14:27:57Z</time>
      </trkpt>
      <trkpt lat="43.27079" lon="5.76424">
        <ele>409</ele>
        <time>2019-09-25T14:28:01Z</time>
      </trkpt>
      <trkpt lat="43.27072" lon="5.76423">
        <ele>410</ele>
        <time>2019-09-25T14:28:07Z</time>
      </trkpt>
      <trkpt lat="43.27065" lon="5.76421">
        <ele>409</ele>
        <time>2019-09-25T14:28:13Z</time>
      </trkpt>
      <trkpt lat="43.27061" lon="5.7642">
        <ele>410</ele>
        <time>2019-09-25T14:28:17Z</time>
      </trkpt>
      <trkpt lat="43.27054" lon="5.76417">
        <ele>410</ele>
        <time>2019-09-25T14:28:23Z</time>
      </trkpt>
      <trkpt lat="43.27049" lon="5.76413">
        <ele>410</ele>
        <time>2019-09-25T14:28:29Z</time>
      </trkpt>
      <trkpt lat="43.27043" lon="5.76409">
        <ele>410</ele>
        <time>2019-09-25T14:28:35Z</time>
      </trkpt>
      <trkpt lat="43.2704" lon="5.76405">
        <ele>412</ele>
        <time>2019-09-25T14:28:39Z</time>
      </trkpt>
      <trkpt lat="43.27033" lon="5.76401">
        <ele>411</ele>
        <time>2019-09-25T14:28:45Z</time>
      </trkpt>
      <trkpt lat="43.27029" lon="5.76399">
        <ele>411</ele>
        <time>2019-09-25T14:28:49Z</time>
      </trkpt>
      <trkpt lat="43.27023" lon="5.76395">
        <ele>412</ele>
        <time>2019-09-25T14:28:55Z</time>
      </trkpt>
      <trkpt lat="43.27018" lon="5.76392">
        <ele>412</ele>
        <time>2019-09-25T14:28:59Z</time>
      </trkpt>
      <trkpt lat="43.27014" lon="5.76389">
        <ele>413</ele>
        <time>2019-09-25T14:29:03Z</time>
      </trkpt>
      <trkpt lat="43.27009" lon="5.76384">
        <ele>413</ele>
        <time>2019-09-25T14:29:09Z</time>
      </trkpt>
      <trkpt lat="43.27005" lon="5.7638">
        <ele>413</ele>
        <time>2019-09-25T14:29:13Z</time>
      </trkpt>
      <trkpt lat="43.26999" lon="5.76376">
        <ele>412</ele>
        <time>2019-09-25T14:29:19Z</time>
      </trkpt>
      <trkpt lat="43.26995" lon="5.76374">
        <ele>412</ele>
        <time>2019-09-25T14:29:23Z</time>
      </trkpt>
      <trkpt lat="43.2699" lon="5.76369">
        <ele>411</ele>
        <time>2019-09-25T14:29:29Z</time>
      </trkpt>
      <trkpt lat="43.26985" lon="5.76365">
        <ele>411</ele>
        <time>2019-09-25T14:29:35Z</time>
      </trkpt>
      <trkpt lat="43.26982" lon="5.76358">
        <ele>413</ele>
        <time>2019-09-25T14:29:41Z</time>
      </trkpt>
      <trkpt lat="43.26979" lon="5.7635">
        <ele>414</ele>
        <time>2019-09-25T14:29:47Z</time>
      </trkpt>
      <trkpt lat="43.26979" lon="5.76343">
        <ele>414</ele>
        <time>2019-09-25T14:29:51Z</time>
      </trkpt>
      <trkpt lat="43.2698" lon="5.76335">
        <ele>413</ele>
        <time>2019-09-25T14:29:57Z</time>
      </trkpt>
      <trkpt lat="43.2698" lon="5.76326">
        <ele>413</ele>
        <time>2019-09-25T14:30:05Z</time>
      </trkpt>
      <trkpt lat="43.26981" lon="5.7632">
        <ele>410</ele>
        <time>2019-09-25T14:30:09Z</time>
      </trkpt>
      <trkpt lat="43.26983" lon="5.76311">
        <ele>410</ele>
        <time>2019-09-25T14:30:15Z</time>
      </trkpt>
      <trkpt lat="43.26984" lon="5.76302">
        <ele>409</ele>
        <time>2019-09-25T14:30:21Z</time>
      </trkpt>
      <trkpt lat="43.26986" lon="5.76295">
        <ele>408</ele>
        <time>2019-09-25T14:30:27Z</time>
      </trkpt>
      <trkpt lat="43.26988" lon="5.76288">
        <ele>408</ele>
        <time>2019-09-25T14:30:31Z</time>
      </trkpt>
      <trkpt lat="43.26989" lon="5.76281">
        <ele>409</ele>
        <time>2019-09-25T14:30:37Z</time>
      </trkpt>
      <trkpt lat="43.26992" lon="5.76275">
        <ele>406</ele>
        <time>2019-09-25T14:30:43Z</time>
      </trkpt>
      <trkpt lat="43.26994" lon="5.76267">
        <ele>404</ele>
        <time>2019-09-25T14:30:49Z</time>
      </trkpt>
      <trkpt lat="43.26995" lon="5.76259">
        <ele>404</ele>
        <time>2019-09-25T14:30:53Z</time>
      </trkpt>
      <trkpt lat="43.26998" lon="5.76254">
        <ele>406</ele>
        <time>2019-09-25T14:30:57Z</time>
      </trkpt>
      <trkpt lat="43.27002" lon="5.7625">
        <ele>407</ele>
        <time>2019-09-25T14:31:01Z</time>
      </trkpt>
      <trkpt lat="43.27006" lon="5.76246">
        <ele>407</ele>
        <time>2019-09-25T14:31:05Z</time>
      </trkpt>
      <trkpt lat="43.2701" lon="5.76243">
        <ele>408</ele>
        <time>2019-09-25T14:31:11Z</time>
      </trkpt>
      <trkpt lat="43.27009" lon="5.76237">
        <ele>407</ele>
        <time>2019-09-25T14:31:17Z</time>
      </trkpt>
      <trkpt lat="43.27013" lon="5.7623">
        <ele>406</ele>
        <time>2019-09-25T14:31:25Z</time>
      </trkpt>
      <trkpt lat="43.27016" lon="5.76224">
        <ele>409</ele>
        <time>2019-09-25T14:31:33Z</time>
      </trkpt>
      <trkpt lat="43.27018" lon="5.76219">
        <ele>408</ele>
        <time>2019-09-25T14:31:39Z</time>
      </trkpt>
      <trkpt lat="43.27021" lon="5.76214">
        <ele>409</ele>
        <time>2019-09-25T14:31:45Z</time>
      </trkpt>
      <trkpt lat="43.27022" lon="5.76207">
        <ele>408</ele>
        <time>2019-09-25T14:32:11Z</time>
      </trkpt>
      <trkpt lat="43.27024" lon="5.76201">
        <ele>409</ele>
        <time>2019-09-25T14:32:17Z</time>
      </trkpt>
      <trkpt lat="43.27023" lon="5.76194">
        <ele>411</ele>
        <time>2019-09-25T14:39:47Z</time>
      </trkpt>
      <trkpt lat="43.27026" lon="5.7619">
        <ele>409</ele>
        <time>2019-09-25T14:43:31Z</time>
      </trkpt>
      <trkpt lat="43.27026" lon="5.76183">
        <ele>407</ele>
        <time>2019-09-25T14:43:39Z</time>
      </trkpt>
      <trkpt lat="43.27028" lon="5.76176">
        <ele>408</ele>
        <time>2019-09-25T14:43:45Z</time>
      </trkpt>
      <trkpt lat="43.27029" lon="5.76168">
        <ele>408</ele>
        <time>2019-09-25T14:43:51Z</time>
      </trkpt>
      <trkpt lat="43.2703" lon="5.76161">
        <ele>408</ele>
        <time>2019-09-25T14:43:57Z</time>
      </trkpt>
      <trkpt lat="43.2703" lon="5.76154">
        <ele>408</ele>
        <time>2019-09-25T14:44:03Z</time>
      </trkpt>
      <trkpt lat="43.27029" lon="5.76145">
        <ele>407</ele>
        <time>2019-09-25T14:44:09Z</time>
      </trkpt>
      <trkpt lat="43.27029" lon="5.76139">
        <ele>406</ele>
        <time>2019-09-25T14:44:15Z</time>
      </trkpt>
      <trkpt lat="43.2703" lon="5.7613">
        <ele>406</ele>
        <time>2019-09-25T14:44:21Z</time>
      </trkpt>
      <trkpt lat="43.27031" lon="5.76121">
        <ele>407</ele>
        <time>2019-09-25T14:44:27Z</time>
      </trkpt>
      <trkpt lat="43.27031" lon="5.76115">
        <ele>407</ele>
        <time>2019-09-25T14:44:33Z</time>
      </trkpt>
      <trkpt lat="43.27028" lon="5.7611">
        <ele>406</ele>
        <time>2019-09-25T14:45:05Z</time>
      </trkpt>
      <trkpt lat="43.27022" lon="5.76108">
        <ele>408</ele>
        <time>2019-09-25T14:47:39Z</time>
      </trkpt>
      <trkpt lat="43.27017" lon="5.76107">
        <ele>409</ele>
        <time>2019-09-25T14:47:45Z</time>
      </trkpt>
      <trkpt lat="43.27012" lon="5.76105">
        <ele>412</ele>
        <time>2019-09-25T14:47:53Z</time>
      </trkpt>
      <trkpt lat="43.27007" lon="5.76103">
        <ele>412</ele>
        <time>2019-09-25T14:47:59Z</time>
      </trkpt>
      <trkpt lat="43.27003" lon="5.76101">
        <ele>413</ele>
        <time>2019-09-25T14:48:03Z</time>
      </trkpt>
      <trkpt lat="43.26996" lon="5.76099">
        <ele>413</ele>
        <time>2019-09-25T14:48:09Z</time>
      </trkpt>
      <trkpt lat="43.26989" lon="5.76096">
        <ele>414</ele>
        <time>2019-09-25T14:48:15Z</time>
      </trkpt>
      <trkpt lat="43.26983" lon="5.76095">
        <ele>414</ele>
        <time>2019-09-25T14:48:21Z</time>
      </trkpt>
      <trkpt lat="43.26978" lon="5.76094">
        <ele>414</ele>
        <time>2019-09-25T14:48:27Z</time>
      </trkpt>
      <trkpt lat="43.26971" lon="5.76093">
        <ele>411</ele>
        <time>2019-09-25T14:48:35Z</time>
      </trkpt>
      <trkpt lat="43.26966" lon="5.76092">
        <ele>409</ele>
        <time>2019-09-25T14:48:43Z</time>
      </trkpt>
      <trkpt lat="43.26962" lon="5.7609">
        <ele>408</ele>
        <time>2019-09-25T14:48:49Z</time>
      </trkpt>
      <trkpt lat="43.26957" lon="5.7609">
        <ele>407</ele>
        <time>2019-09-25T14:48:53Z</time>
      </trkpt>
      <trkpt lat="43.26951" lon="5.76087">
        <ele>408</ele>
        <time>2019-09-25T14:48:59Z</time>
      </trkpt>
      <trkpt lat="43.26947" lon="5.76084">
        <ele>409</ele>
        <time>2019-09-25T14:49:03Z</time>
      </trkpt>
      <trkpt lat="43.26942" lon="5.76079">
        <ele>408</ele>
        <time>2019-09-25T14:49:07Z</time>
      </trkpt>
      <trkpt lat="43.26941" lon="5.76073">
        <ele>408</ele>
        <time>2019-09-25T14:49:11Z</time>
      </trkpt>
      <trkpt lat="43.26938" lon="5.76064">
        <ele>407</ele>
        <time>2019-09-25T14:49:17Z</time>
      </trkpt>
      <trkpt lat="43.26938" lon="5.76058">
        <ele>406</ele>
        <time>2019-09-25T14:49:21Z</time>
      </trkpt>
      <trkpt lat="43.26937" lon="5.76052">
        <ele>404</ele>
        <time>2019-09-25T14:49:27Z</time>
      </trkpt>
      <trkpt lat="43.26937" lon="5.76044">
        <ele>406</ele>
        <time>2019-09-25T14:49:33Z</time>
      </trkpt>
      <trkpt lat="43.26938" lon="5.76036">
        <ele>406</ele>
        <time>2019-09-25T14:49:39Z</time>
      </trkpt>
      <trkpt lat="43.26939" lon="5.76027">
        <ele>408</ele>
        <time>2019-09-25T14:49:45Z</time>
      </trkpt>
      <trkpt lat="43.26935" lon="5.76021">
        <ele>406</ele>
        <time>2019-09-25T14:49:51Z</time>
      </trkpt>
      <trkpt lat="43.26931" lon="5.76014">
        <ele>406</ele>
        <time>2019-09-25T14:49:57Z</time>
      </trkpt>
      <trkpt lat="43.26929" lon="5.76008">
        <ele>406</ele>
        <time>2019-09-25T14:50:01Z</time>
      </trkpt>
      <trkpt lat="43.26925" lon="5.76001">
        <ele>406</ele>
        <time>2019-09-25T14:50:05Z</time>
      </trkpt>
      <trkpt lat="43.26922" lon="5.75994">
        <ele>408</ele>
        <time>2019-09-25T14:50:09Z</time>
      </trkpt>
      <trkpt lat="43.26919" lon="5.75987">
        <ele>407</ele>
        <time>2019-09-25T14:50:15Z</time>
      </trkpt>
      <trkpt lat="43.26916" lon="5.75981">
        <ele>409</ele>
        <time>2019-09-25T14:50:19Z</time>
      </trkpt>
      <trkpt lat="43.26911" lon="5.75975">
        <ele>409</ele>
        <time>2019-09-25T14:50:25Z</time>
      </trkpt>
      <trkpt lat="43.26908" lon="5.75968">
        <ele>409</ele>
        <time>2019-09-25T14:50:29Z</time>
      </trkpt>
      <trkpt lat="43.26906" lon="5.75962">
        <ele>406</ele>
        <time>2019-09-25T14:50:35Z</time>
      </trkpt>
      <trkpt lat="43.26905" lon="5.75954">
        <ele>407</ele>
        <time>2019-09-25T14:50:41Z</time>
      </trkpt>
      <trkpt lat="43.26904" lon="5.75947">
        <ele>407</ele>
        <time>2019-09-25T14:50:47Z</time>
      </trkpt>
      <trkpt lat="43.26904" lon="5.75938">
        <ele>406</ele>
        <time>2019-09-25T14:50:53Z</time>
      </trkpt>
      <trkpt lat="43.26904" lon="5.75931">
        <ele>407</ele>
        <time>2019-09-25T14:50:57Z</time>
      </trkpt>
      <trkpt lat="43.26903" lon="5.75923">
        <ele>408</ele>
        <time>2019-09-25T14:51:03Z</time>
      </trkpt>
      <trkpt lat="43.26902" lon="5.75914">
        <ele>407</ele>
        <time>2019-09-25T14:51:09Z</time>
      </trkpt>
      <trkpt lat="43.26901" lon="5.75905">
        <ele>406</ele>
        <time>2019-09-25T14:51:15Z</time>
      </trkpt>
      <trkpt lat="43.269" lon="5.75897">
        <ele>407</ele>
        <time>2019-09-25T14:51:21Z</time>
      </trkpt>
      <trkpt lat="43.269" lon="5.7589">
        <ele>407</ele>
        <time>2019-09-25T14:51:27Z</time>
      </trkpt>
      <trkpt lat="43.26898" lon="5.75882">
        <ele>406</ele>
        <time>2019-09-25T14:51:33Z</time>
      </trkpt>
      <trkpt lat="43.26896" lon="5.75876">
        <ele>408</ele>
        <time>2019-09-25T14:51:37Z</time>
      </trkpt>
      <trkpt lat="43.26893" lon="5.75872">
        <ele>406</ele>
        <time>2019-09-25T14:51:41Z</time>
      </trkpt>
      <trkpt lat="43.26889" lon="5.75868">
        <ele>407</ele>
        <time>2019-09-25T14:51:45Z</time>
      </trkpt>
      <trkpt lat="43.26884" lon="5.75866">
        <ele>407</ele>
        <time>2019-09-25T14:51:49Z</time>
      </trkpt>
      <trkpt lat="43.2688" lon="5.75864">
        <ele>408</ele>
        <time>2019-09-25T14:51:55Z</time>
      </trkpt>
      <trkpt lat="43.26875" lon="5.75859">
        <ele>410</ele>
        <time>2019-09-25T14:51:59Z</time>
      </trkpt>
      <trkpt lat="43.26871" lon="5.75856">
        <ele>410</ele>
        <time>2019-09-25T14:52:03Z</time>
      </trkpt>
      <trkpt lat="43.26866" lon="5.75852">
        <ele>412</ele>
        <time>2019-09-25T14:52:07Z</time>
      </trkpt>
      <trkpt lat="43.2686" lon="5.7585">
        <ele>410</ele>
        <time>2019-09-25T14:52:13Z</time>
      </trkpt>
      <trkpt lat="43.26855" lon="5.75849">
        <ele>413</ele>
        <time>2019-09-25T14:52:19Z</time>
      </trkpt>
      <trkpt lat="43.26849" lon="5.75852">
        <ele>412</ele>
        <time>2019-09-25T14:52:27Z</time>
      </trkpt>
      <trkpt lat="43.26844" lon="5.75856">
        <ele>415</ele>
        <time>2019-09-25T14:52:33Z</time>
      </trkpt>
      <trkpt lat="43.26842" lon="5.75862">
        <ele>416</ele>
        <time>2019-09-25T14:52:39Z</time>
      </trkpt>
      <trkpt lat="43.26843" lon="5.75868">
        <ele>417</ele>
        <time>2019-09-25T14:52:43Z</time>
      </trkpt>
      <trkpt lat="43.26845" lon="5.75876">
        <ele>416</ele>
        <time>2019-09-25T14:52:49Z</time>
      </trkpt>
      <trkpt lat="43.26846" lon="5.75884">
        <ele>419</ele>
        <time>2019-09-25T14:52:55Z</time>
      </trkpt>
      <trkpt lat="43.26844" lon="5.75891">
        <ele>419</ele>
        <time>2019-09-25T14:53:03Z</time>
      </trkpt>
      <trkpt lat="43.26844" lon="5.75898">
        <ele>420</ele>
        <time>2019-09-25T14:53:09Z</time>
      </trkpt>
      <trkpt lat="43.26844" lon="5.75906">
        <ele>422</ele>
        <time>2019-09-25T14:53:15Z</time>
      </trkpt>
      <trkpt lat="43.26843" lon="5.75913">
        <ele>424</ele>
        <time>2019-09-25T14:53:21Z</time>
      </trkpt>
      <trkpt lat="43.26842" lon="5.75919">
        <ele>423</ele>
        <time>2019-09-25T14:53:27Z</time>
      </trkpt>
      <trkpt lat="43.2684" lon="5.75926">
        <ele>423</ele>
        <time>2019-09-25T14:53:35Z</time>
      </trkpt>
      <trkpt lat="43.2684" lon="5.75934">
        <ele>423</ele>
        <time>2019-09-25T14:53:41Z</time>
      </trkpt>
      <trkpt lat="43.26839" lon="5.75941">
        <ele>423</ele>
        <time>2019-09-25T14:53:47Z</time>
      </trkpt>
      <trkpt lat="43.26839" lon="5.75948">
        <ele>426</ele>
        <time>2019-09-25T14:53:53Z</time>
      </trkpt>
      <trkpt lat="43.26839" lon="5.75956">
        <ele>426</ele>
        <time>2019-09-25T14:53:59Z</time>
      </trkpt>
      <trkpt lat="43.2684" lon="5.75964">
        <ele>426</ele>
        <time>2019-09-25T14:54:05Z</time>
      </trkpt>
      <trkpt lat="43.26835" lon="5.75962">
        <ele>426</ele>
        <time>2019-09-25T14:54:13Z</time>
      </trkpt>
      <trkpt lat="43.26834" lon="5.75955">
        <ele>425</ele>
        <time>2019-09-25T14:54:21Z</time>
      </trkpt>
      <trkpt lat="43.26832" lon="5.75949">
        <ele>425</ele>
        <time>2019-09-25T14:54:27Z</time>
      </trkpt>
      <trkpt lat="43.26829" lon="5.75943">
        <ele>429</ele>
        <time>2019-09-25T14:54:33Z</time>
      </trkpt>
      <trkpt lat="43.26823" lon="5.75938">
        <ele>430</ele>
        <time>2019-09-25T14:54:39Z</time>
      </trkpt>
      <trkpt lat="43.26819" lon="5.7594">
        <ele>432</ele>
        <time>2019-09-25T14:54:43Z</time>
      </trkpt>
      <trkpt lat="43.26817" lon="5.75946">
        <ele>431</ele>
        <time>2019-09-25T14:54:49Z</time>
      </trkpt>
      <trkpt lat="43.26816" lon="5.75954">
        <ele>432</ele>
        <time>2019-09-25T14:54:55Z</time>
      </trkpt>
      <trkpt lat="43.26814" lon="5.75962">
        <ele>433</ele>
        <time>2019-09-25T14:55:01Z</time>
      </trkpt>
      <trkpt lat="43.26813" lon="5.7597">
        <ele>435</ele>
        <time>2019-09-25T14:55:11Z</time>
      </trkpt>
      <trkpt lat="43.2681" lon="5.75977">
        <ele>437</ele>
        <time>2019-09-25T14:55:19Z</time>
      </trkpt>
      <trkpt lat="43.26808" lon="5.75985">
        <ele>436</ele>
        <time>2019-09-25T14:55:25Z</time>
      </trkpt>
      <trkpt lat="43.26803" lon="5.75991">
        <ele>437</ele>
        <time>2019-09-25T14:55:31Z</time>
      </trkpt>
      <trkpt lat="43.268" lon="5.75996">
        <ele>438</ele>
        <time>2019-09-25T14:55:37Z</time>
      </trkpt>
      <trkpt lat="43.26796" lon="5.76001">
        <ele>440</ele>
        <time>2019-09-25T14:55:43Z</time>
      </trkpt>
      <trkpt lat="43.26791" lon="5.76006">
        <ele>439</ele>
        <time>2019-09-25T14:55:51Z</time>
      </trkpt>
      <trkpt lat="43.26786" lon="5.76007">
        <ele>443</ele>
        <time>2019-09-25T14:55:59Z</time>
      </trkpt>
      <trkpt lat="43.26781" lon="5.76006">
        <ele>444</ele>
        <time>2019-09-25T14:56:09Z</time>
      </trkpt>
      <trkpt lat="43.26778" lon="5.76">
        <ele>442</ele>
        <time>2019-09-25T14:56:19Z</time>
      </trkpt>
      <trkpt lat="43.26774" lon="5.75995">
        <ele>446</ele>
        <time>2019-09-25T14:56:45Z</time>
      </trkpt>
      <trkpt lat="43.26773" lon="5.75988">
        <ele>445</ele>
        <time>2019-09-25T14:56:51Z</time>
      </trkpt>
      <trkpt lat="43.26773" lon="5.7598">
        <ele>443</ele>
        <time>2019-09-25T14:56:59Z</time>
      </trkpt>
      <trkpt lat="43.26772" lon="5.75973">
        <ele>444</ele>
        <time>2019-09-25T14:57:03Z</time>
      </trkpt>
      <trkpt lat="43.26771" lon="5.75964">
        <ele>447</ele>
        <time>2019-09-25T14:57:09Z</time>
      </trkpt>
      <trkpt lat="43.26771" lon="5.75958">
        <ele>449</ele>
        <time>2019-09-25T14:57:15Z</time>
      </trkpt>
      <trkpt lat="43.26772" lon="5.75951">
        <ele>447</ele>
        <time>2019-09-25T14:57:21Z</time>
      </trkpt>
      <trkpt lat="43.26773" lon="5.75944">
        <ele>449</ele>
        <time>2019-09-25T14:57:27Z</time>
      </trkpt>
      <trkpt lat="43.26769" lon="5.75936">
        <ele>451</ele>
        <time>2019-09-25T14:57:33Z</time>
      </trkpt>
      <trkpt lat="43.26765" lon="5.75929">
        <ele>451</ele>
        <time>2019-09-25T14:57:39Z</time>
      </trkpt>
      <trkpt lat="43.26761" lon="5.75927">
        <ele>453</ele>
        <time>2019-09-25T14:57:45Z</time>
      </trkpt>
      <trkpt lat="43.26755" lon="5.75923">
        <ele>451</ele>
        <time>2019-09-25T14:57:51Z</time>
      </trkpt>
      <trkpt lat="43.26749" lon="5.75921">
        <ele>451</ele>
        <time>2019-09-25T14:57:57Z</time>
      </trkpt>
      <trkpt lat="43.26745" lon="5.75919">
        <ele>451</ele>
        <time>2019-09-25T14:58:01Z</time>
      </trkpt>
      <trkpt lat="43.26739" lon="5.75917">
        <ele>451</ele>
        <time>2019-09-25T14:58:05Z</time>
      </trkpt>
      <trkpt lat="43.26734" lon="5.75917">
        <ele>453</ele>
        <time>2019-09-25T14:58:09Z</time>
      </trkpt>
      <trkpt lat="43.26728" lon="5.75918">
        <ele>453</ele>
        <time>2019-09-25T14:58:13Z</time>
      </trkpt>
      <trkpt lat="43.26724" lon="5.75921">
        <ele>453</ele>
        <time>2019-09-25T14:58:17Z</time>
      </trkpt>
      <trkpt lat="43.2672" lon="5.75926">
        <ele>453</ele>
        <time>2019-09-25T14:58:21Z</time>
      </trkpt>
      <trkpt lat="43.26715" lon="5.75932">
        <ele>455</ele>
        <time>2019-09-25T14:58:27Z</time>
      </trkpt>
      <trkpt lat="43.26712" lon="5.75937">
        <ele>455</ele>
        <time>2019-09-25T14:58:31Z</time>
      </trkpt>
      <trkpt lat="43.2671" lon="5.75945">
        <ele>454</ele>
        <time>2019-09-25T14:58:37Z</time>
      </trkpt>
      <trkpt lat="43.26709" lon="5.75951">
        <ele>456</ele>
        <time>2019-09-25T14:58:41Z</time>
      </trkpt>
      <trkpt lat="43.26708" lon="5.7596">
        <ele>455</ele>
        <time>2019-09-25T14:58:47Z</time>
      </trkpt>
      <trkpt lat="43.26707" lon="5.75969">
        <ele>454</ele>
        <time>2019-09-25T14:58:53Z</time>
      </trkpt>
      <trkpt lat="43.26706" lon="5.75978">
        <ele>455</ele>
        <time>2019-09-25T14:58:59Z</time>
      </trkpt>
      <trkpt lat="43.26704" lon="5.75984">
        <ele>455</ele>
        <time>2019-09-25T14:59:03Z</time>
      </trkpt>
      <trkpt lat="43.26701" lon="5.75991">
        <ele>456</ele>
        <time>2019-09-25T14:59:09Z</time>
      </trkpt>
      <trkpt lat="43.26699" lon="5.76">
        <ele>456</ele>
        <time>2019-09-25T14:59:15Z</time>
      </trkpt>
      <trkpt lat="43.26697" lon="5.76008">
        <ele>456</ele>
        <time>2019-09-25T14:59:21Z</time>
      </trkpt>
      <trkpt lat="43.26695" lon="5.76016">
        <ele>456</ele>
        <time>2019-09-25T14:59:27Z</time>
      </trkpt>
      <trkpt lat="43.26693" lon="5.76024">
        <ele>457</ele>
        <time>2019-09-25T14:59:33Z</time>
      </trkpt>
      <trkpt lat="43.2669" lon="5.76032">
        <ele>457</ele>
        <time>2019-09-25T14:59:39Z</time>
      </trkpt>
      <trkpt lat="43.26688" lon="5.76041">
        <ele>457</ele>
        <time>2019-09-25T14:59:45Z</time>
      </trkpt>
      <trkpt lat="43.26686" lon="5.7605">
        <ele>456</ele>
        <time>2019-09-25T14:59:51Z</time>
      </trkpt>
      <trkpt lat="43.26684" lon="5.76058">
        <ele>455</ele>
        <time>2019-09-25T14:59:57Z</time>
      </trkpt>
      <trkpt lat="43.26684" lon="5.76066">
        <ele>453</ele>
        <time>2019-09-25T15:00:03Z</time>
      </trkpt>
      <trkpt lat="43.26683" lon="5.76073">
        <ele>453</ele>
        <time>2019-09-25T15:00:07Z</time>
      </trkpt>
      <trkpt lat="43.2668" lon="5.76081">
        <ele>454</ele>
        <time>2019-09-25T15:00:13Z</time>
      </trkpt>
      <trkpt lat="43.26678" lon="5.76087">
        <ele>455</ele>
        <time>2019-09-25T15:00:17Z</time>
      </trkpt>
      <trkpt lat="43.26676" lon="5.76093">
        <ele>456</ele>
        <time>2019-09-25T15:00:21Z</time>
      </trkpt>
      <trkpt lat="43.26673" lon="5.76099">
        <ele>458</ele>
        <time>2019-09-25T15:00:27Z</time>
      </trkpt>
      <trkpt lat="43.26671" lon="5.76106">
        <ele>457</ele>
        <time>2019-09-25T15:00:33Z</time>
      </trkpt>
      <trkpt lat="43.26669" lon="5.76114">
        <ele>457</ele>
        <time>2019-09-25T15:00:39Z</time>
      </trkpt>
      <trkpt lat="43.26666" lon="5.76121">
        <ele>458</ele>
        <time>2019-09-25T15:00:45Z</time>
      </trkpt>
      <trkpt lat="43.26664" lon="5.76128">
        <ele>457</ele>
        <time>2019-09-25T15:00:49Z</time>
      </trkpt>
      <trkpt lat="43.26663" lon="5.76137">
        <ele>457</ele>
        <time>2019-09-25T15:00:55Z</time>
      </trkpt>
      <trkpt lat="43.26663" lon="5.76145">
        <ele>456</ele>
        <time>2019-09-25T15:01:01Z</time>
      </trkpt>
      <trkpt lat="43.26663" lon="5.76154">
        <ele>457</ele>
        <time>2019-09-25T15:01:07Z</time>
      </trkpt>
      <trkpt lat="43.26663" lon="5.76163">
        <ele>455</ele>
        <time>2019-09-25T15:01:13Z</time>
      </trkpt>
      <trkpt lat="43.26663" lon="5.7617">
        <ele>455</ele>
        <time>2019-09-25T15:01:17Z</time>
      </trkpt>
      <trkpt lat="43.26663" lon="5.76179">
        <ele>456</ele>
        <time>2019-09-25T15:01:23Z</time>
      </trkpt>
      <trkpt lat="43.26662" lon="5.76188">
        <ele>457</ele>
        <time>2019-09-25T15:01:29Z</time>
      </trkpt>
      <trkpt lat="43.2666" lon="5.76196">
        <ele>457</ele>
        <time>2019-09-25T15:01:35Z</time>
      </trkpt>
      <trkpt lat="43.26659" lon="5.76206">
        <ele>455</ele>
        <time>2019-09-25T15:01:41Z</time>
      </trkpt>
      <trkpt lat="43.26658" lon="5.76213">
        <ele>454</ele>
        <time>2019-09-25T15:01:45Z</time>
      </trkpt>
      <trkpt lat="43.26657" lon="5.76222">
        <ele>453</ele>
        <time>2019-09-25T15:01:51Z</time>
      </trkpt>
      <trkpt lat="43.26656" lon="5.76228">
        <ele>454</ele>
        <time>2019-09-25T15:01:55Z</time>
      </trkpt>
      <trkpt lat="43.26655" lon="5.76234">
        <ele>454</ele>
        <time>2019-09-25T15:01:59Z</time>
      </trkpt>
      <trkpt lat="43.26653" lon="5.7624">
        <ele>454</ele>
        <time>2019-09-25T15:02:03Z</time>
      </trkpt>
      <trkpt lat="43.26651" lon="5.76249">
        <ele>454</ele>
        <time>2019-09-25T15:02:09Z</time>
      </trkpt>
      <trkpt lat="43.26649" lon="5.76258">
        <ele>453</ele>
        <time>2019-09-25T15:02:15Z</time>
      </trkpt>
      <trkpt lat="43.26646" lon="5.76263">
        <ele>454</ele>
        <time>2019-09-25T15:02:19Z</time>
      </trkpt>
      <trkpt lat="43.26643" lon="5.76269">
        <ele>454</ele>
        <time>2019-09-25T15:02:23Z</time>
      </trkpt>
      <trkpt lat="43.26639" lon="5.76273">
        <ele>456</ele>
        <time>2019-09-25T15:02:27Z</time>
      </trkpt>
      <trkpt lat="43.26636" lon="5.76279">
        <ele>456</ele>
        <time>2019-09-25T15:02:31Z</time>
      </trkpt>
      <trkpt lat="43.26633" lon="5.76284">
        <ele>456</ele>
        <time>2019-09-25T15:02:35Z</time>
      </trkpt>
      <trkpt lat="43.2663" lon="5.76289">
        <ele>455</ele>
        <time>2019-09-25T15:02:39Z</time>
      </trkpt>
      <trkpt lat="43.26625" lon="5.76296">
        <ele>455</ele>
        <time>2019-09-25T15:02:45Z</time>
      </trkpt>
      <trkpt lat="43.26622" lon="5.76303">
        <ele>456</ele>
        <time>2019-09-25T15:02:51Z</time>
      </trkpt>
      <trkpt lat="43.26621" lon="5.76312">
        <ele>454</ele>
        <time>2019-09-25T15:02:57Z</time>
      </trkpt>
      <trkpt lat="43.26617" lon="5.76319">
        <ele>454</ele>
        <time>2019-09-25T15:03:03Z</time>
      </trkpt>
      <trkpt lat="43.26614" lon="5.76323">
        <ele>452</ele>
        <time>2019-09-25T15:03:07Z</time>
      </trkpt>
      <trkpt lat="43.2661" lon="5.76328">
        <ele>451</ele>
        <time>2019-09-25T15:03:11Z</time>
      </trkpt>
      <trkpt lat="43.26607" lon="5.76334">
        <ele>452</ele>
        <time>2019-09-25T15:03:15Z</time>
      </trkpt>
      <trkpt lat="43.26603" lon="5.76341">
        <ele>452</ele>
        <time>2019-09-25T15:03:21Z</time>
      </trkpt>
      <trkpt lat="43.26599" lon="5.76345">
        <ele>454</ele>
        <time>2019-09-25T15:03:25Z</time>
      </trkpt>
      <trkpt lat="43.26596" lon="5.7635">
        <ele>452</ele>
        <time>2019-09-25T15:03:29Z</time>
      </trkpt>
      <trkpt lat="43.26593" lon="5.76356">
        <ele>453</ele>
        <time>2019-09-25T15:03:33Z</time>
      </trkpt>
      <trkpt lat="43.2659" lon="5.76362">
        <ele>453</ele>
        <time>2019-09-25T15:03:37Z</time>
      </trkpt>
      <trkpt lat="43.26588" lon="5.7637">
        <ele>454</ele>
        <time>2019-09-25T15:03:43Z</time>
      </trkpt>
      <trkpt lat="43.26583" lon="5.76377">
        <ele>455</ele>
        <time>2019-09-25T15:03:49Z</time>
      </trkpt>
      <trkpt lat="43.2658" lon="5.76382">
        <ele>455</ele>
        <time>2019-09-25T15:03:53Z</time>
      </trkpt>
      <trkpt lat="43.26576" lon="5.76388">
        <ele>456</ele>
        <time>2019-09-25T15:03:59Z</time>
      </trkpt>
      <trkpt lat="43.26572" lon="5.76395">
        <ele>454</ele>
        <time>2019-09-25T15:04:05Z</time>
      </trkpt>
      <trkpt lat="43.26567" lon="5.76401">
        <ele>454</ele>
        <time>2019-09-25T15:04:11Z</time>
      </trkpt>
      <trkpt lat="43.26563" lon="5.76407">
        <ele>456</ele>
        <time>2019-09-25T15:04:17Z</time>
      </trkpt>
      <trkpt lat="43.26559" lon="5.76409">
        <ele>456</ele>
        <time>2019-09-25T15:04:21Z</time>
      </trkpt>
      <trkpt lat="43.26553" lon="5.76411">
        <ele>455</ele>
        <time>2019-09-25T15:04:27Z</time>
      </trkpt>
      <trkpt lat="43.26549" lon="5.76415">
        <ele>454</ele>
        <time>2019-09-25T15:04:31Z</time>
      </trkpt>
      <trkpt lat="43.26544" lon="5.76418">
        <ele>455</ele>
        <time>2019-09-25T15:04:35Z</time>
      </trkpt>
      <trkpt lat="43.26539" lon="5.76422">
        <ele>457</ele>
        <time>2019-09-25T15:04:41Z</time>
      </trkpt>
      <trkpt lat="43.26535" lon="5.76425">
        <ele>458</ele>
        <time>2019-09-25T15:04:45Z</time>
      </trkpt>
      <trkpt lat="43.2653" lon="5.76428">
        <ele>459</ele>
        <time>2019-09-25T15:04:49Z</time>
      </trkpt>
      <trkpt lat="43.26525" lon="5.76431">
        <ele>460</ele>
        <time>2019-09-25T15:04:53Z</time>
      </trkpt>
      <trkpt lat="43.2652" lon="5.76437">
        <ele>461</ele>
        <time>2019-09-25T15:04:59Z</time>
      </trkpt>
      <trkpt lat="43.26516" lon="5.76441">
        <ele>462</ele>
        <time>2019-09-25T15:05:03Z</time>
      </trkpt>
      <trkpt lat="43.2651" lon="5.76445">
        <ele>466</ele>
        <time>2019-09-25T15:05:09Z</time>
      </trkpt>
      <trkpt lat="43.26505" lon="5.7645">
        <ele>465</ele>
        <time>2019-09-25T15:05:15Z</time>
      </trkpt>
      <trkpt lat="43.26499" lon="5.76455">
        <ele>466</ele>
        <time>2019-09-25T15:05:21Z</time>
      </trkpt>
      <trkpt lat="43.26494" lon="5.76461">
        <ele>465</ele>
        <time>2019-09-25T15:05:27Z</time>
      </trkpt>
      <trkpt lat="43.26491" lon="5.76466">
        <ele>464</ele>
        <time>2019-09-25T15:05:31Z</time>
      </trkpt>
      <trkpt lat="43.26488" lon="5.76471">
        <ele>464</ele>
        <time>2019-09-25T15:05:35Z</time>
      </trkpt>
      <trkpt lat="43.26484" lon="5.76475">
        <ele>464</ele>
        <time>2019-09-25T15:05:39Z</time>
      </trkpt>
      <trkpt lat="43.26479" lon="5.76479">
        <ele>463</ele>
        <time>2019-09-25T15:05:45Z</time>
      </trkpt>
      <trkpt lat="43.26474" lon="5.76482">
        <ele>462</ele>
        <time>2019-09-25T15:05:51Z</time>
      </trkpt>
      <trkpt lat="43.26468" lon="5.76486">
        <ele>461</ele>
        <time>2019-09-25T15:05:57Z</time>
      </trkpt>
      <trkpt lat="43.26463" lon="5.7649">
        <ele>461</ele>
        <time>2019-09-25T15:06:01Z</time>
      </trkpt>
      <trkpt lat="43.26459" lon="5.76493">
        <ele>462</ele>
        <time>2019-09-25T15:06:05Z</time>
      </trkpt>
      <trkpt lat="43.26455" lon="5.76497">
        <ele>462</ele>
        <time>2019-09-25T15:06:09Z</time>
      </trkpt>
      <trkpt lat="43.2645" lon="5.76502">
        <ele>463</ele>
        <time>2019-09-25T15:06:15Z</time>
      </trkpt>
      <trkpt lat="43.26445" lon="5.76506">
        <ele>464</ele>
        <time>2019-09-25T15:06:21Z</time>
      </trkpt>
      <trkpt lat="43.26439" lon="5.7651">
        <ele>466</ele>
        <time>2019-09-25T15:06:29Z</time>
      </trkpt>
      <trkpt lat="43.26434" lon="5.76512">
        <ele>465</ele>
        <time>2019-09-25T15:06:35Z</time>
      </trkpt>
    </trkseg>
  </trk>
</gpx>